<?xml version="1.0" encoding="UTF-8" standalone="no" ?>
<gpx xmlns="http://www.topografix.com/GPX/1/1" xmlns:xsi="http://www.w3.org/2001/XMLSchema-instance" xsi:schemaLocation="http://www.topografix.com/GPX/1/1 http://www.topografix.com/GPX/1/1/gpx.xsd" version="1.1" creator="VisuGPX - https://www.visugpx.com">
  <metadata>
    <name>2018-03-29-46-Cieurac</name>
    <desc><![CDATA[Randonnée de 11,5km et 350m de dénivelé positif, joli circuit entre pré et sous bois]]></desc>
  </metadata>
  <trk>
    <name><![CDATA[Tracé 29 mars 2018 14:03:34]]></name>
    <trkseg>
      <trkpt lat="44.39142" lon="1.48357">
        <ele>190.93507545219</ele>
        <time>2018-03-29T12:03:34Z</time>
      </trkpt>
      <trkpt lat="44.39143" lon="1.48357">
        <ele>248.13262731658</ele>
        <time>2018-03-29T12:03:51Z</time>
      </trkpt>
      <trkpt lat="44.39142" lon="1.48344">
        <ele>259.7368859495</ele>
        <time>2018-03-29T12:03:55Z</time>
      </trkpt>
      <trkpt lat="44.39134" lon="1.48341">
        <ele>268.50177408987</ele>
        <time>2018-03-29T12:04:00Z</time>
      </trkpt>
      <trkpt lat="44.39134" lon="1.48341">
        <ele>272.60717457025</ele>
        <time>2018-03-29T12:04:04Z</time>
      </trkpt>
      <trkpt lat="44.39128" lon="1.48334">
        <ele>275.17109870362</ele>
        <time>2018-03-29T12:04:08Z</time>
      </trkpt>
      <trkpt lat="44.39124" lon="1.48329">
        <ele>277.89620607742</ele>
        <time>2018-03-29T12:04:13Z</time>
      </trkpt>
      <trkpt lat="44.39124" lon="1.48329">
        <ele>278.15622000454</ele>
        <time>2018-03-29T12:04:20Z</time>
      </trkpt>
      <trkpt lat="44.39116" lon="1.48317">
        <ele>278.33520666638</ele>
        <time>2018-03-29T12:04:24Z</time>
      </trkpt>
      <trkpt lat="44.3911" lon="1.48311">
        <ele>278.04387078194</ele>
        <time>2018-03-29T12:04:29Z</time>
      </trkpt>
      <trkpt lat="44.39105" lon="1.48308">
        <ele>278.06918969302</ele>
        <time>2018-03-29T12:04:33Z</time>
      </trkpt>
      <trkpt lat="44.39101" lon="1.48303">
        <ele>277.96586261372</ele>
        <time>2018-03-29T12:04:38Z</time>
      </trkpt>
      <trkpt lat="44.39097" lon="1.48301">
        <ele>278.07750035146</ele>
        <time>2018-03-29T12:04:44Z</time>
      </trkpt>
      <trkpt lat="44.39093" lon="1.48299">
        <ele>277.99828873431</ele>
        <time>2018-03-29T12:04:49Z</time>
      </trkpt>
      <trkpt lat="44.39089" lon="1.48299">
        <ele>278.15873383729</ele>
        <time>2018-03-29T12:04:54Z</time>
      </trkpt>
      <trkpt lat="44.39085" lon="1.48297">
        <ele>278.34184864461</ele>
        <time>2018-03-29T12:05:02Z</time>
      </trkpt>
      <trkpt lat="44.39077" lon="1.48295">
        <ele>278.48198731981</ele>
        <time>2018-03-29T12:05:07Z</time>
      </trkpt>
      <trkpt lat="44.39073" lon="1.48294">
        <ele>278.50908419501</ele>
        <time>2018-03-29T12:05:11Z</time>
      </trkpt>
      <trkpt lat="44.39068" lon="1.48292">
        <ele>278.52896309646</ele>
        <time>2018-03-29T12:05:16Z</time>
      </trkpt>
      <trkpt lat="44.39063" lon="1.4829">
        <ele>278.96565992502</ele>
        <time>2018-03-29T12:05:20Z</time>
      </trkpt>
      <trkpt lat="44.39057" lon="1.48288">
        <ele>279.37233367774</ele>
        <time>2018-03-29T12:05:24Z</time>
      </trkpt>
      <trkpt lat="44.39052" lon="1.48285">
        <ele>279.36069505589</ele>
        <time>2018-03-29T12:05:29Z</time>
      </trkpt>
      <trkpt lat="44.39048" lon="1.48284">
        <ele>279.53935591174</ele>
        <time>2018-03-29T12:05:34Z</time>
      </trkpt>
      <trkpt lat="44.39043" lon="1.48282">
        <ele>279.79658396006</ele>
        <time>2018-03-29T12:05:38Z</time>
      </trkpt>
      <trkpt lat="44.39038" lon="1.4828">
        <ele>280.21087004366</ele>
        <time>2018-03-29T12:05:43Z</time>
      </trkpt>
      <trkpt lat="44.39034" lon="1.48278">
        <ele>280.50509860463</ele>
        <time>2018-03-29T12:05:48Z</time>
      </trkpt>
      <trkpt lat="44.3903" lon="1.48275">
        <ele>280.60411069208</ele>
        <time>2018-03-29T12:05:52Z</time>
      </trkpt>
      <trkpt lat="44.39026" lon="1.48272">
        <ele>280.43093256239</ele>
        <time>2018-03-29T12:06:00Z</time>
      </trkpt>
      <trkpt lat="44.39022" lon="1.4827">
        <ele>279.59902362337</ele>
        <time>2018-03-29T12:06:05Z</time>
      </trkpt>
      <trkpt lat="44.39019" lon="1.48269">
        <ele>279.1690205629</ele>
        <time>2018-03-29T12:06:11Z</time>
      </trkpt>
      <trkpt lat="44.39016" lon="1.48266">
        <ele>278.52416925832</ele>
        <time>2018-03-29T12:06:28Z</time>
      </trkpt>
      <trkpt lat="44.39013" lon="1.48262">
        <ele>278.40867751117</ele>
        <time>2018-03-29T12:06:40Z</time>
      </trkpt>
      <trkpt lat="44.39007" lon="1.48264">
        <ele>278.07057683825</ele>
        <time>2018-03-29T12:06:44Z</time>
      </trkpt>
      <trkpt lat="44.39002" lon="1.48261">
        <ele>277.95209423731</ele>
        <time>2018-03-29T12:06:49Z</time>
      </trkpt>
      <trkpt lat="44.38995" lon="1.48259">
        <ele>277.69516414619</ele>
        <time>2018-03-29T12:06:54Z</time>
      </trkpt>
      <trkpt lat="44.38989" lon="1.48257">
        <ele>277.6091632044</ele>
        <time>2018-03-29T12:06:58Z</time>
      </trkpt>
      <trkpt lat="44.38982" lon="1.48253">
        <ele>277.25061489104</ele>
        <time>2018-03-29T12:07:03Z</time>
      </trkpt>
      <trkpt lat="44.38977" lon="1.48246">
        <ele>277.04734231929</ele>
        <time>2018-03-29T12:07:08Z</time>
      </trkpt>
      <trkpt lat="44.38971" lon="1.48239">
        <ele>276.8312140288</ele>
        <time>2018-03-29T12:07:13Z</time>
      </trkpt>
      <trkpt lat="44.38968" lon="1.48234">
        <ele>276.18198808484</ele>
        <time>2018-03-29T12:07:27Z</time>
      </trkpt>
      <trkpt lat="44.38964" lon="1.48231">
        <ele>275.75966187192</ele>
        <time>2018-03-29T12:07:31Z</time>
      </trkpt>
      <trkpt lat="44.3896" lon="1.48228">
        <ele>275.22105101125</ele>
        <time>2018-03-29T12:07:35Z</time>
      </trkpt>
      <trkpt lat="44.38954" lon="1.48223">
        <ele>274.82250669836</ele>
        <time>2018-03-29T12:07:39Z</time>
      </trkpt>
      <trkpt lat="44.38948" lon="1.48217">
        <ele>274.34211114992</ele>
        <time>2018-03-29T12:07:43Z</time>
      </trkpt>
      <trkpt lat="44.38944" lon="1.48212">
        <ele>274.07913832484</ele>
        <time>2018-03-29T12:07:47Z</time>
      </trkpt>
      <trkpt lat="44.3894" lon="1.48204">
        <ele>273.79708968273</ele>
        <time>2018-03-29T12:07:52Z</time>
      </trkpt>
      <trkpt lat="44.38936" lon="1.48198">
        <ele>273.70335592218</ele>
        <time>2018-03-29T12:07:56Z</time>
      </trkpt>
      <trkpt lat="44.38933" lon="1.48194">
        <ele>273.23993497055</ele>
        <time>2018-03-29T12:08:00Z</time>
      </trkpt>
      <trkpt lat="44.38932" lon="1.48183">
        <ele>273.17158858389</ele>
        <time>2018-03-29T12:08:05Z</time>
      </trkpt>
      <trkpt lat="44.38933" lon="1.48175">
        <ele>273.25633130707</ele>
        <time>2018-03-29T12:08:09Z</time>
      </trkpt>
      <trkpt lat="44.3893" lon="1.4817">
        <ele>272.91388127042</ele>
        <time>2018-03-29T12:08:17Z</time>
      </trkpt>
      <trkpt lat="44.38925" lon="1.48166">
        <ele>272.47093734093</ele>
        <time>2018-03-29T12:08:22Z</time>
      </trkpt>
      <trkpt lat="44.38922" lon="1.48161">
        <ele>271.84855210027</ele>
        <time>2018-03-29T12:08:26Z</time>
      </trkpt>
      <trkpt lat="44.38917" lon="1.48156">
        <ele>271.45506210099</ele>
        <time>2018-03-29T12:08:30Z</time>
      </trkpt>
      <trkpt lat="44.38911" lon="1.4815">
        <ele>271.2473475358</ele>
        <time>2018-03-29T12:08:34Z</time>
      </trkpt>
      <trkpt lat="44.38906" lon="1.48145">
        <ele>271.11283923004</ele>
        <time>2018-03-29T12:08:38Z</time>
      </trkpt>
      <trkpt lat="44.38902" lon="1.48141">
        <ele>271.0533834479</ele>
        <time>2018-03-29T12:08:42Z</time>
      </trkpt>
      <trkpt lat="44.38896" lon="1.48136">
        <ele>270.38469437458</ele>
        <time>2018-03-29T12:08:47Z</time>
      </trkpt>
      <trkpt lat="44.38892" lon="1.48131">
        <ele>270.10492364712</ele>
        <time>2018-03-29T12:08:51Z</time>
      </trkpt>
      <trkpt lat="44.38889" lon="1.48127">
        <ele>270.00313408981</ele>
        <time>2018-03-29T12:08:55Z</time>
      </trkpt>
      <trkpt lat="44.38888" lon="1.48118">
        <ele>269.98351423861</ele>
        <time>2018-03-29T12:08:59Z</time>
      </trkpt>
      <trkpt lat="44.38885" lon="1.48111">
        <ele>269.84617339269</ele>
        <time>2018-03-29T12:09:03Z</time>
      </trkpt>
      <trkpt lat="44.38883" lon="1.48106">
        <ele>269.41915454648</ele>
        <time>2018-03-29T12:09:08Z</time>
      </trkpt>
      <trkpt lat="44.38882" lon="1.48099">
        <ele>268.79704636046</ele>
        <time>2018-03-29T12:09:13Z</time>
      </trkpt>
      <trkpt lat="44.38879" lon="1.48095">
        <ele>268.3876596038</ele>
        <time>2018-03-29T12:09:18Z</time>
      </trkpt>
      <trkpt lat="44.38876" lon="1.48087">
        <ele>268.21832818825</ele>
        <time>2018-03-29T12:09:23Z</time>
      </trkpt>
      <trkpt lat="44.38872" lon="1.4808">
        <ele>267.97592324965</ele>
        <time>2018-03-29T12:09:28Z</time>
      </trkpt>
      <trkpt lat="44.38869" lon="1.48075">
        <ele>267.91447096839</ele>
        <time>2018-03-29T12:09:32Z</time>
      </trkpt>
      <trkpt lat="44.38866" lon="1.48068">
        <ele>267.82521984685</ele>
        <time>2018-03-29T12:09:37Z</time>
      </trkpt>
      <trkpt lat="44.38864" lon="1.48063">
        <ele>267.75787461021</ele>
        <time>2018-03-29T12:09:43Z</time>
      </trkpt>
      <trkpt lat="44.38862" lon="1.48058">
        <ele>267.81327463695</ele>
        <time>2018-03-29T12:09:48Z</time>
      </trkpt>
      <trkpt lat="44.38859" lon="1.48054">
        <ele>268.22560314943</ele>
        <time>2018-03-29T12:09:59Z</time>
      </trkpt>
      <trkpt lat="44.38857" lon="1.48049">
        <ele>267.99521227625</ele>
        <time>2018-03-29T12:10:03Z</time>
      </trkpt>
      <trkpt lat="44.38854" lon="1.48046">
        <ele>267.38234026123</ele>
        <time>2018-03-29T12:10:07Z</time>
      </trkpt>
      <trkpt lat="44.38855" lon="1.4804">
        <ele>266.83620302062</ele>
        <time>2018-03-29T12:10:12Z</time>
      </trkpt>
      <trkpt lat="44.38855" lon="1.48034">
        <ele>266.54353404418</ele>
        <time>2018-03-29T12:10:17Z</time>
      </trkpt>
      <trkpt lat="44.38854" lon="1.48027">
        <ele>266.26581638032</ele>
        <time>2018-03-29T12:10:21Z</time>
      </trkpt>
      <trkpt lat="44.38853" lon="1.48019">
        <ele>265.76954147707</ele>
        <time>2018-03-29T12:10:25Z</time>
      </trkpt>
      <trkpt lat="44.3885" lon="1.48014">
        <ele>265.45955274753</ele>
        <time>2018-03-29T12:10:29Z</time>
      </trkpt>
      <trkpt lat="44.38847" lon="1.48008">
        <ele>265.26100839746</ele>
        <time>2018-03-29T12:10:33Z</time>
      </trkpt>
      <trkpt lat="44.38843" lon="1.47999">
        <ele>265.42078169897</ele>
        <time>2018-03-29T12:10:38Z</time>
      </trkpt>
      <trkpt lat="44.38841" lon="1.47991">
        <ele>265.30675975648</ele>
        <time>2018-03-29T12:10:42Z</time>
      </trkpt>
      <trkpt lat="44.38839" lon="1.47986">
        <ele>265.16638632634</ele>
        <time>2018-03-29T12:10:46Z</time>
      </trkpt>
      <trkpt lat="44.38835" lon="1.47979">
        <ele>264.82636644601</ele>
        <time>2018-03-29T12:10:51Z</time>
      </trkpt>
      <trkpt lat="44.38833" lon="1.47972">
        <ele>264.35869533311</ele>
        <time>2018-03-29T12:10:56Z</time>
      </trkpt>
      <trkpt lat="44.3883" lon="1.47966">
        <ele>263.63498190654</ele>
        <time>2018-03-29T12:11:01Z</time>
      </trkpt>
      <trkpt lat="44.38828" lon="1.47959">
        <ele>263.45861767026</ele>
        <time>2018-03-29T12:11:05Z</time>
      </trkpt>
      <trkpt lat="44.38826" lon="1.47952">
        <ele>263.25682952041</ele>
        <time>2018-03-29T12:11:09Z</time>
      </trkpt>
      <trkpt lat="44.38823" lon="1.47946">
        <ele>263.05766400116</ele>
        <time>2018-03-29T12:11:14Z</time>
      </trkpt>
      <trkpt lat="44.38819" lon="1.47942">
        <ele>261.60743595648</ele>
        <time>2018-03-29T12:11:28Z</time>
      </trkpt>
      <trkpt lat="44.38819" lon="1.47936">
        <ele>260.18404207043</ele>
        <time>2018-03-29T12:11:38Z</time>
      </trkpt>
      <trkpt lat="44.38815" lon="1.47931">
        <ele>258.83422376233</ele>
        <time>2018-03-29T12:11:42Z</time>
      </trkpt>
      <trkpt lat="44.38808" lon="1.47927">
        <ele>258.12185664417</ele>
        <time>2018-03-29T12:11:47Z</time>
      </trkpt>
      <trkpt lat="44.38802" lon="1.47922">
        <ele>257.91787257039</ele>
        <time>2018-03-29T12:11:52Z</time>
      </trkpt>
      <trkpt lat="44.38797" lon="1.47917">
        <ele>258.00949611517</ele>
        <time>2018-03-29T12:11:56Z</time>
      </trkpt>
      <trkpt lat="44.38793" lon="1.47912">
        <ele>257.89841916504</ele>
        <time>2018-03-29T12:12:01Z</time>
      </trkpt>
      <trkpt lat="44.38787" lon="1.47903">
        <ele>257.76240178423</ele>
        <time>2018-03-29T12:12:06Z</time>
      </trkpt>
      <trkpt lat="44.38784" lon="1.47897">
        <ele>257.63700817784</ele>
        <time>2018-03-29T12:12:10Z</time>
      </trkpt>
      <trkpt lat="44.3878" lon="1.4789">
        <ele>257.50126107842</ele>
        <time>2018-03-29T12:12:14Z</time>
      </trkpt>
      <trkpt lat="44.38775" lon="1.47881">
        <ele>257.14129446439</ele>
        <time>2018-03-29T12:12:18Z</time>
      </trkpt>
      <trkpt lat="44.38768" lon="1.47875">
        <ele>256.64224676884</ele>
        <time>2018-03-29T12:12:23Z</time>
      </trkpt>
      <trkpt lat="44.38763" lon="1.47872">
        <ele>256.13691623612</ele>
        <time>2018-03-29T12:12:27Z</time>
      </trkpt>
      <trkpt lat="44.38758" lon="1.47869">
        <ele>255.85416070559</ele>
        <time>2018-03-29T12:12:31Z</time>
      </trkpt>
      <trkpt lat="44.38755" lon="1.47866">
        <ele>255.77122443508</ele>
        <time>2018-03-29T12:12:35Z</time>
      </trkpt>
      <trkpt lat="44.38748" lon="1.47861">
        <ele>255.43521326515</ele>
        <time>2018-03-29T12:12:40Z</time>
      </trkpt>
      <trkpt lat="44.38743" lon="1.47856">
        <ele>255.23656859833</ele>
        <time>2018-03-29T12:12:45Z</time>
      </trkpt>
      <trkpt lat="44.38736" lon="1.47851">
        <ele>254.55170707539</ele>
        <time>2018-03-29T12:12:50Z</time>
      </trkpt>
      <trkpt lat="44.38731" lon="1.47845">
        <ele>254.17742482275</ele>
        <time>2018-03-29T12:12:55Z</time>
      </trkpt>
      <trkpt lat="44.38728" lon="1.47839">
        <ele>253.89320597289</ele>
        <time>2018-03-29T12:12:59Z</time>
      </trkpt>
      <trkpt lat="44.38723" lon="1.47834">
        <ele>253.91153147503</ele>
        <time>2018-03-29T12:13:04Z</time>
      </trkpt>
      <trkpt lat="44.38718" lon="1.47833">
        <ele>253.82566839844</ele>
        <time>2018-03-29T12:13:09Z</time>
      </trkpt>
      <trkpt lat="44.38713" lon="1.4783">
        <ele>253.694720741</ele>
        <time>2018-03-29T12:13:14Z</time>
      </trkpt>
      <trkpt lat="44.3871" lon="1.47826">
        <ele>253.56206160377</ele>
        <time>2018-03-29T12:13:18Z</time>
      </trkpt>
      <trkpt lat="44.38705" lon="1.47821">
        <ele>253.70684762532</ele>
        <time>2018-03-29T12:13:23Z</time>
      </trkpt>
      <trkpt lat="44.387" lon="1.47816">
        <ele>253.67022336597</ele>
        <time>2018-03-29T12:13:27Z</time>
      </trkpt>
      <trkpt lat="44.38697" lon="1.47813">
        <ele>253.96350384112</ele>
        <time>2018-03-29T12:13:31Z</time>
      </trkpt>
      <trkpt lat="44.38694" lon="1.47807">
        <ele>254.15716175033</ele>
        <time>2018-03-29T12:13:35Z</time>
      </trkpt>
      <trkpt lat="44.38693" lon="1.47798">
        <ele>254.1950610906</ele>
        <time>2018-03-29T12:13:40Z</time>
      </trkpt>
      <trkpt lat="44.38693" lon="1.47792">
        <ele>254.1937557301</ele>
        <time>2018-03-29T12:13:45Z</time>
      </trkpt>
      <trkpt lat="44.38693" lon="1.47785">
        <ele>254.32692304638</ele>
        <time>2018-03-29T12:13:50Z</time>
      </trkpt>
      <trkpt lat="44.38693" lon="1.47779">
        <ele>254.41127704884</ele>
        <time>2018-03-29T12:13:55Z</time>
      </trkpt>
      <trkpt lat="44.38693" lon="1.47774">
        <ele>254.7477332676</ele>
        <time>2018-03-29T12:13:59Z</time>
      </trkpt>
      <trkpt lat="44.38692" lon="1.47767">
        <ele>255.0775385888</ele>
        <time>2018-03-29T12:14:04Z</time>
      </trkpt>
      <trkpt lat="44.38693" lon="1.47761">
        <ele>255.44307851548</ele>
        <time>2018-03-29T12:14:08Z</time>
      </trkpt>
      <trkpt lat="44.38693" lon="1.47752">
        <ele>255.61177821666</ele>
        <time>2018-03-29T12:14:13Z</time>
      </trkpt>
      <trkpt lat="44.38694" lon="1.47745">
        <ele>256.00326535041</ele>
        <time>2018-03-29T12:14:18Z</time>
      </trkpt>
      <trkpt lat="44.38695" lon="1.47739">
        <ele>256.45720006979</ele>
        <time>2018-03-29T12:14:23Z</time>
      </trkpt>
      <trkpt lat="44.38695" lon="1.47733">
        <ele>256.7875658108</ele>
        <time>2018-03-29T12:14:27Z</time>
      </trkpt>
      <trkpt lat="44.38695" lon="1.47725">
        <ele>257.10372303057</ele>
        <time>2018-03-29T12:14:32Z</time>
      </trkpt>
      <trkpt lat="44.38695" lon="1.4772">
        <ele>257.16623987069</ele>
        <time>2018-03-29T12:14:36Z</time>
      </trkpt>
      <trkpt lat="44.38693" lon="1.47714">
        <ele>257.18995592701</ele>
        <time>2018-03-29T12:14:40Z</time>
      </trkpt>
      <trkpt lat="44.38693" lon="1.47708">
        <ele>257.22852125261</ele>
        <time>2018-03-29T12:14:45Z</time>
      </trkpt>
      <trkpt lat="44.38694" lon="1.47702">
        <ele>257.06448737356</ele>
        <time>2018-03-29T12:14:50Z</time>
      </trkpt>
      <trkpt lat="44.38696" lon="1.47696">
        <ele>257.06097139706</ele>
        <time>2018-03-29T12:14:55Z</time>
      </trkpt>
      <trkpt lat="44.38698" lon="1.47691">
        <ele>257.4781115069</ele>
        <time>2018-03-29T12:14:59Z</time>
      </trkpt>
      <trkpt lat="44.38699" lon="1.47686">
        <ele>257.83559641755</ele>
        <time>2018-03-29T12:15:04Z</time>
      </trkpt>
      <trkpt lat="44.387" lon="1.4768">
        <ele>258.11543728791</ele>
        <time>2018-03-29T12:15:09Z</time>
      </trkpt>
      <trkpt lat="44.38701" lon="1.47673">
        <ele>258.2963906389</ele>
        <time>2018-03-29T12:15:14Z</time>
      </trkpt>
      <trkpt lat="44.38701" lon="1.47666">
        <ele>258.50738507558</ele>
        <time>2018-03-29T12:15:18Z</time>
      </trkpt>
      <trkpt lat="44.38702" lon="1.47657">
        <ele>258.54000027813</ele>
        <time>2018-03-29T12:15:23Z</time>
      </trkpt>
      <trkpt lat="44.38703" lon="1.47652">
        <ele>258.60021143201</ele>
        <time>2018-03-29T12:15:27Z</time>
      </trkpt>
      <trkpt lat="44.38704" lon="1.47646">
        <ele>258.72506700929</ele>
        <time>2018-03-29T12:15:31Z</time>
      </trkpt>
      <trkpt lat="44.38706" lon="1.47641">
        <ele>258.91010974384</ele>
        <time>2018-03-29T12:15:35Z</time>
      </trkpt>
      <trkpt lat="44.38706" lon="1.47633">
        <ele>259.06194425669</ele>
        <time>2018-03-29T12:15:40Z</time>
      </trkpt>
      <trkpt lat="44.38707" lon="1.47626">
        <ele>259.11212364198</ele>
        <time>2018-03-29T12:15:44Z</time>
      </trkpt>
      <trkpt lat="44.38708" lon="1.47621">
        <ele>259.34113597306</ele>
        <time>2018-03-29T12:15:48Z</time>
      </trkpt>
      <trkpt lat="44.38708" lon="1.47613">
        <ele>259.46259978257</ele>
        <time>2018-03-29T12:15:52Z</time>
      </trkpt>
      <trkpt lat="44.38706" lon="1.47607">
        <ele>259.61719035981</ele>
        <time>2018-03-29T12:15:57Z</time>
      </trkpt>
      <trkpt lat="44.38702" lon="1.47604">
        <ele>259.78634771825</ele>
        <time>2018-03-29T12:16:01Z</time>
      </trkpt>
      <trkpt lat="44.387" lon="1.47598">
        <ele>260.29063092901</ele>
        <time>2018-03-29T12:16:06Z</time>
      </trkpt>
      <trkpt lat="44.38698" lon="1.47591">
        <ele>260.50429453721</ele>
        <time>2018-03-29T12:16:10Z</time>
      </trkpt>
      <trkpt lat="44.38694" lon="1.47589">
        <ele>260.67754857554</ele>
        <time>2018-03-29T12:16:14Z</time>
      </trkpt>
      <trkpt lat="44.38689" lon="1.47589">
        <ele>260.79147792124</ele>
        <time>2018-03-29T12:16:18Z</time>
      </trkpt>
      <trkpt lat="44.38684" lon="1.47587">
        <ele>261.00451162098</ele>
        <time>2018-03-29T12:16:23Z</time>
      </trkpt>
      <trkpt lat="44.38679" lon="1.47587">
        <ele>261.49245838867</ele>
        <time>2018-03-29T12:16:28Z</time>
      </trkpt>
      <trkpt lat="44.38676" lon="1.4759">
        <ele>261.63986960742</ele>
        <time>2018-03-29T12:16:34Z</time>
      </trkpt>
      <trkpt lat="44.38672" lon="1.4759">
        <ele>262.11236785439</ele>
        <time>2018-03-29T12:16:41Z</time>
      </trkpt>
      <trkpt lat="44.38668" lon="1.47589">
        <ele>262.29201645992</ele>
        <time>2018-03-29T12:16:45Z</time>
      </trkpt>
      <trkpt lat="44.38665" lon="1.47586">
        <ele>262.47049687004</ele>
        <time>2018-03-29T12:16:49Z</time>
      </trkpt>
      <trkpt lat="44.3866" lon="1.47585">
        <ele>262.63298719017</ele>
        <time>2018-03-29T12:16:56Z</time>
      </trkpt>
      <trkpt lat="44.38657" lon="1.47583">
        <ele>262.72706608595</ele>
        <time>2018-03-29T12:17:01Z</time>
      </trkpt>
      <trkpt lat="44.38653" lon="1.47581">
        <ele>262.79317783484</ele>
        <time>2018-03-29T12:17:05Z</time>
      </trkpt>
      <trkpt lat="44.38649" lon="1.4758">
        <ele>262.82314139546</ele>
        <time>2018-03-29T12:17:09Z</time>
      </trkpt>
      <trkpt lat="44.38645" lon="1.47579">
        <ele>262.87114438825</ele>
        <time>2018-03-29T12:17:15Z</time>
      </trkpt>
      <trkpt lat="44.38641" lon="1.47579">
        <ele>262.61969899621</ele>
        <time>2018-03-29T12:17:20Z</time>
      </trkpt>
      <trkpt lat="44.38636" lon="1.47581">
        <ele>262.05521239443</ele>
        <time>2018-03-29T12:17:25Z</time>
      </trkpt>
      <trkpt lat="44.38631" lon="1.4758">
        <ele>262.39961002638</ele>
        <time>2018-03-29T12:17:30Z</time>
      </trkpt>
      <trkpt lat="44.38627" lon="1.47578">
        <ele>262.73738659224</ele>
        <time>2018-03-29T12:17:36Z</time>
      </trkpt>
      <trkpt lat="44.38625" lon="1.47572">
        <ele>263.2722444986</ele>
        <time>2018-03-29T12:17:43Z</time>
      </trkpt>
      <trkpt lat="44.38621" lon="1.47571">
        <ele>263.73668278871</ele>
        <time>2018-03-29T12:17:48Z</time>
      </trkpt>
      <trkpt lat="44.38615" lon="1.47573">
        <ele>263.99114207951</ele>
        <time>2018-03-29T12:17:52Z</time>
      </trkpt>
      <trkpt lat="44.38609" lon="1.47576">
        <ele>263.88126455661</ele>
        <time>2018-03-29T12:17:57Z</time>
      </trkpt>
      <trkpt lat="44.38603" lon="1.47578">
        <ele>263.54402491385</ele>
        <time>2018-03-29T12:18:02Z</time>
      </trkpt>
      <trkpt lat="44.38598" lon="1.47579">
        <ele>263.25804250062</ele>
        <time>2018-03-29T12:18:06Z</time>
      </trkpt>
      <trkpt lat="44.38592" lon="1.47578">
        <ele>263.19903451288</ele>
        <time>2018-03-29T12:18:10Z</time>
      </trkpt>
      <trkpt lat="44.38587" lon="1.4758">
        <ele>263.01784839984</ele>
        <time>2018-03-29T12:18:14Z</time>
      </trkpt>
      <trkpt lat="44.38582" lon="1.47583">
        <ele>262.78343478218</ele>
        <time>2018-03-29T12:18:18Z</time>
      </trkpt>
      <trkpt lat="44.38577" lon="1.47587">
        <ele>262.47610666286</ele>
        <time>2018-03-29T12:18:22Z</time>
      </trkpt>
      <trkpt lat="44.38571" lon="1.4759">
        <ele>262.53645902539</ele>
        <time>2018-03-29T12:18:27Z</time>
      </trkpt>
      <trkpt lat="44.38566" lon="1.47592">
        <ele>262.67377597853</ele>
        <time>2018-03-29T12:18:31Z</time>
      </trkpt>
      <trkpt lat="44.3856" lon="1.47596">
        <ele>262.72160438616</ele>
        <time>2018-03-29T12:18:36Z</time>
      </trkpt>
      <trkpt lat="44.38554" lon="1.47598">
        <ele>262.85479063921</ele>
        <time>2018-03-29T12:18:40Z</time>
      </trkpt>
      <trkpt lat="44.38546" lon="1.47601">
        <ele>263.1768654488</ele>
        <time>2018-03-29T12:18:45Z</time>
      </trkpt>
      <trkpt lat="44.38542" lon="1.47599">
        <ele>262.98759338702</ele>
        <time>2018-03-29T12:18:50Z</time>
      </trkpt>
      <trkpt lat="44.38538" lon="1.476">
        <ele>262.97836712794</ele>
        <time>2018-03-29T12:18:55Z</time>
      </trkpt>
      <trkpt lat="44.3853" lon="1.476">
        <ele>263.42040670882</ele>
        <time>2018-03-29T12:19:00Z</time>
      </trkpt>
      <trkpt lat="44.38525" lon="1.47602">
        <ele>263.70663659336</ele>
        <time>2018-03-29T12:19:04Z</time>
      </trkpt>
      <trkpt lat="44.38522" lon="1.47604">
        <ele>264.03902155907</ele>
        <time>2018-03-29T12:19:08Z</time>
      </trkpt>
      <trkpt lat="44.38515" lon="1.47607">
        <ele>264.42042866544</ele>
        <time>2018-03-29T12:19:13Z</time>
      </trkpt>
      <trkpt lat="44.38508" lon="1.47609">
        <ele>264.85737394958</ele>
        <time>2018-03-29T12:19:18Z</time>
      </trkpt>
      <trkpt lat="44.38505" lon="1.47611">
        <ele>265.83829470919</ele>
        <time>2018-03-29T12:19:22Z</time>
      </trkpt>
      <trkpt lat="44.38495" lon="1.47615">
        <ele>266.9469949522</ele>
        <time>2018-03-29T12:19:27Z</time>
      </trkpt>
      <trkpt lat="44.38492" lon="1.47616">
        <ele>267.89854200939</ele>
        <time>2018-03-29T12:19:32Z</time>
      </trkpt>
      <trkpt lat="44.38487" lon="1.47611">
        <ele>268.33039144288</ele>
        <time>2018-03-29T12:19:37Z</time>
      </trkpt>
      <trkpt lat="44.38484" lon="1.47606">
        <ele>268.4522617578</ele>
        <time>2018-03-29T12:19:41Z</time>
      </trkpt>
      <trkpt lat="44.38483" lon="1.476">
        <ele>268.83592391239</ele>
        <time>2018-03-29T12:19:48Z</time>
      </trkpt>
      <trkpt lat="44.38482" lon="1.47595">
        <ele>269.95118294896</ele>
        <time>2018-03-29T12:20:47Z</time>
      </trkpt>
      <trkpt lat="44.3848" lon="1.47591">
        <ele>269.71806211848</ele>
        <time>2018-03-29T12:20:51Z</time>
      </trkpt>
      <trkpt lat="44.38476" lon="1.47586">
        <ele>269.49539664725</ele>
        <time>2018-03-29T12:20:55Z</time>
      </trkpt>
      <trkpt lat="44.38471" lon="1.47582">
        <ele>269.23526042719</ele>
        <time>2018-03-29T12:20:59Z</time>
      </trkpt>
      <trkpt lat="44.38468" lon="1.47581">
        <ele>269.02625265451</ele>
        <time>2018-03-29T12:21:04Z</time>
      </trkpt>
      <trkpt lat="44.38465" lon="1.47579">
        <ele>268.85101865057</ele>
        <time>2018-03-29T12:21:08Z</time>
      </trkpt>
      <trkpt lat="44.38458" lon="1.47573">
        <ele>268.83301488645</ele>
        <time>2018-03-29T12:21:13Z</time>
      </trkpt>
      <trkpt lat="44.38454" lon="1.47569">
        <ele>268.47555318317</ele>
        <time>2018-03-29T12:21:18Z</time>
      </trkpt>
      <trkpt lat="44.38449" lon="1.47566">
        <ele>268.29519252036</ele>
        <time>2018-03-29T12:21:22Z</time>
      </trkpt>
      <trkpt lat="44.38444" lon="1.47565">
        <ele>267.86268151601</ele>
        <time>2018-03-29T12:21:27Z</time>
      </trkpt>
      <trkpt lat="44.38441" lon="1.47562">
        <ele>267.50230462993</ele>
        <time>2018-03-29T12:21:31Z</time>
      </trkpt>
      <trkpt lat="44.38438" lon="1.47559">
        <ele>267.11716067939</ele>
        <time>2018-03-29T12:21:36Z</time>
      </trkpt>
      <trkpt lat="44.38434" lon="1.47556">
        <ele>267.11676654426</ele>
        <time>2018-03-29T12:21:40Z</time>
      </trkpt>
      <trkpt lat="44.3843" lon="1.47552">
        <ele>267.41119483972</ele>
        <time>2018-03-29T12:21:45Z</time>
      </trkpt>
      <trkpt lat="44.38425" lon="1.47549">
        <ele>267.35322434216</ele>
        <time>2018-03-29T12:21:50Z</time>
      </trkpt>
      <trkpt lat="44.38418" lon="1.47543">
        <ele>266.90457421632</ele>
        <time>2018-03-29T12:21:55Z</time>
      </trkpt>
      <trkpt lat="44.38415" lon="1.47539">
        <ele>266.49534964316</ele>
        <time>2018-03-29T12:21:59Z</time>
      </trkpt>
      <trkpt lat="44.38411" lon="1.47532">
        <ele>266.03311445336</ele>
        <time>2018-03-29T12:22:04Z</time>
      </trkpt>
      <trkpt lat="44.38407" lon="1.47528">
        <ele>265.63556643833</ele>
        <time>2018-03-29T12:22:08Z</time>
      </trkpt>
      <trkpt lat="44.38404" lon="1.47523">
        <ele>265.42351217049</ele>
        <time>2018-03-29T12:22:12Z</time>
      </trkpt>
      <trkpt lat="44.384" lon="1.47519">
        <ele>265.05568065109</ele>
        <time>2018-03-29T12:22:16Z</time>
      </trkpt>
      <trkpt lat="44.38396" lon="1.47512">
        <ele>264.46095279806</ele>
        <time>2018-03-29T12:22:21Z</time>
      </trkpt>
      <trkpt lat="44.38393" lon="1.47504">
        <ele>264.19335858589</ele>
        <time>2018-03-29T12:22:26Z</time>
      </trkpt>
      <trkpt lat="44.38393" lon="1.47497">
        <ele>264.1796275102</ele>
        <time>2018-03-29T12:22:30Z</time>
      </trkpt>
      <trkpt lat="44.38392" lon="1.47487">
        <ele>264.21596351221</ele>
        <time>2018-03-29T12:22:34Z</time>
      </trkpt>
      <trkpt lat="44.3839" lon="1.47483">
        <ele>263.98359928424</ele>
        <time>2018-03-29T12:22:38Z</time>
      </trkpt>
      <trkpt lat="44.38386" lon="1.47476">
        <ele>263.77266322564</ele>
        <time>2018-03-29T12:22:42Z</time>
      </trkpt>
      <trkpt lat="44.38381" lon="1.4747">
        <ele>263.40076635795</ele>
        <time>2018-03-29T12:22:47Z</time>
      </trkpt>
      <trkpt lat="44.38379" lon="1.47466">
        <ele>263.25513297529</ele>
        <time>2018-03-29T12:22:51Z</time>
      </trkpt>
      <trkpt lat="44.38375" lon="1.47462">
        <ele>263.00048226822</ele>
        <time>2018-03-29T12:22:56Z</time>
      </trkpt>
      <trkpt lat="44.38371" lon="1.47461">
        <ele>262.66662521895</ele>
        <time>2018-03-29T12:23:01Z</time>
      </trkpt>
      <trkpt lat="44.38365" lon="1.47458">
        <ele>262.46011784598</ele>
        <time>2018-03-29T12:23:05Z</time>
      </trkpt>
      <trkpt lat="44.38361" lon="1.47454">
        <ele>262.08346220054</ele>
        <time>2018-03-29T12:23:12Z</time>
      </trkpt>
      <trkpt lat="44.38358" lon="1.47452">
        <ele>261.65322937711</ele>
        <time>2018-03-29T12:23:16Z</time>
      </trkpt>
      <trkpt lat="44.38352" lon="1.47449">
        <ele>261.11386374608</ele>
        <time>2018-03-29T12:23:21Z</time>
      </trkpt>
      <trkpt lat="44.38348" lon="1.47447">
        <ele>260.54737285337</ele>
        <time>2018-03-29T12:23:27Z</time>
      </trkpt>
      <trkpt lat="44.38345" lon="1.47443">
        <ele>259.99028798719</ele>
        <time>2018-03-29T12:23:32Z</time>
      </trkpt>
      <trkpt lat="44.38341" lon="1.47442">
        <ele>259.05583505597</ele>
        <time>2018-03-29T12:23:37Z</time>
      </trkpt>
      <trkpt lat="44.38334" lon="1.4744">
        <ele>258.35983241234</ele>
        <time>2018-03-29T12:23:41Z</time>
      </trkpt>
      <trkpt lat="44.38329" lon="1.47438">
        <ele>257.93797629745</ele>
        <time>2018-03-29T12:23:46Z</time>
      </trkpt>
      <trkpt lat="44.38319" lon="1.47436">
        <ele>257.28001054087</ele>
        <time>2018-03-29T12:23:51Z</time>
      </trkpt>
      <trkpt lat="44.38314" lon="1.47433">
        <ele>256.92975451766</ele>
        <time>2018-03-29T12:23:55Z</time>
      </trkpt>
      <trkpt lat="44.38308" lon="1.47429">
        <ele>256.94316456151</ele>
        <time>2018-03-29T12:24:00Z</time>
      </trkpt>
      <trkpt lat="44.38305" lon="1.47426">
        <ele>256.96608668018</ele>
        <time>2018-03-29T12:24:05Z</time>
      </trkpt>
      <trkpt lat="44.38301" lon="1.47424">
        <ele>257.13705110818</ele>
        <time>2018-03-29T12:24:09Z</time>
      </trkpt>
      <trkpt lat="44.38298" lon="1.4742">
        <ele>257.09748312232</ele>
        <time>2018-03-29T12:24:13Z</time>
      </trkpt>
      <trkpt lat="44.38291" lon="1.47418">
        <ele>256.95005074458</ele>
        <time>2018-03-29T12:24:18Z</time>
      </trkpt>
      <trkpt lat="44.38288" lon="1.47413">
        <ele>256.60441461825</ele>
        <time>2018-03-29T12:24:23Z</time>
      </trkpt>
      <trkpt lat="44.38284" lon="1.47411">
        <ele>256.07643555644</ele>
        <time>2018-03-29T12:24:28Z</time>
      </trkpt>
      <trkpt lat="44.3828" lon="1.47405">
        <ele>255.84842598547</ele>
        <time>2018-03-29T12:24:33Z</time>
      </trkpt>
      <trkpt lat="44.38278" lon="1.47401">
        <ele>255.61636180457</ele>
        <time>2018-03-29T12:24:37Z</time>
      </trkpt>
      <trkpt lat="44.38274" lon="1.47398">
        <ele>255.52600885267</ele>
        <time>2018-03-29T12:24:41Z</time>
      </trkpt>
      <trkpt lat="44.3827" lon="1.47396">
        <ele>255.45604994348</ele>
        <time>2018-03-29T12:24:45Z</time>
      </trkpt>
      <trkpt lat="44.38264" lon="1.47392">
        <ele>255.32488111817</ele>
        <time>2018-03-29T12:24:50Z</time>
      </trkpt>
      <trkpt lat="44.38262" lon="1.47387">
        <ele>254.76223697586</ele>
        <time>2018-03-29T12:24:54Z</time>
      </trkpt>
      <trkpt lat="44.3826" lon="1.47383">
        <ele>254.45525915889</ele>
        <time>2018-03-29T12:24:59Z</time>
      </trkpt>
      <trkpt lat="44.38261" lon="1.47376">
        <ele>254.4467052989</ele>
        <time>2018-03-29T12:25:04Z</time>
      </trkpt>
      <trkpt lat="44.38262" lon="1.47369">
        <ele>254.29696207553</ele>
        <time>2018-03-29T12:25:08Z</time>
      </trkpt>
      <trkpt lat="44.38263" lon="1.47363">
        <ele>254.05773377566</ele>
        <time>2018-03-29T12:25:12Z</time>
      </trkpt>
      <trkpt lat="44.38267" lon="1.47355">
        <ele>254.03915282502</ele>
        <time>2018-03-29T12:25:16Z</time>
      </trkpt>
      <trkpt lat="44.38271" lon="1.47348">
        <ele>254.40993803421</ele>
        <time>2018-03-29T12:25:21Z</time>
      </trkpt>
      <trkpt lat="44.38273" lon="1.47343">
        <ele>254.4594203462</ele>
        <time>2018-03-29T12:25:26Z</time>
      </trkpt>
      <trkpt lat="44.38276" lon="1.47337">
        <ele>254.35223387501</ele>
        <time>2018-03-29T12:25:30Z</time>
      </trkpt>
      <trkpt lat="44.38279" lon="1.4733">
        <ele>254.29412716781</ele>
        <time>2018-03-29T12:25:34Z</time>
      </trkpt>
      <trkpt lat="44.3828" lon="1.47324">
        <ele>254.37134258562</ele>
        <time>2018-03-29T12:25:39Z</time>
      </trkpt>
      <trkpt lat="44.38283" lon="1.47317">
        <ele>254.27192268912</ele>
        <time>2018-03-29T12:25:43Z</time>
      </trkpt>
      <trkpt lat="44.38285" lon="1.47307">
        <ele>253.63440515145</ele>
        <time>2018-03-29T12:25:48Z</time>
      </trkpt>
      <trkpt lat="44.38287" lon="1.47301">
        <ele>253.10475103774</ele>
        <time>2018-03-29T12:25:52Z</time>
      </trkpt>
      <trkpt lat="44.38289" lon="1.47296">
        <ele>252.86723616547</ele>
        <time>2018-03-29T12:25:57Z</time>
      </trkpt>
      <trkpt lat="44.38291" lon="1.47289">
        <ele>253.07791596254</ele>
        <time>2018-03-29T12:26:01Z</time>
      </trkpt>
      <trkpt lat="44.38293" lon="1.47281">
        <ele>252.84225437818</ele>
        <time>2018-03-29T12:26:06Z</time>
      </trkpt>
      <trkpt lat="44.38295" lon="1.47276">
        <ele>252.37331775525</ele>
        <time>2018-03-29T12:26:11Z</time>
      </trkpt>
      <trkpt lat="44.38297" lon="1.47268">
        <ele>252.14620094337</ele>
        <time>2018-03-29T12:26:16Z</time>
      </trkpt>
      <trkpt lat="44.383" lon="1.47259">
        <ele>252.60284969158</ele>
        <time>2018-03-29T12:26:21Z</time>
      </trkpt>
      <trkpt lat="44.38302" lon="1.47254">
        <ele>252.69777115839</ele>
        <time>2018-03-29T12:26:25Z</time>
      </trkpt>
      <trkpt lat="44.38304" lon="1.47246">
        <ele>252.60562522037</ele>
        <time>2018-03-29T12:26:29Z</time>
      </trkpt>
      <trkpt lat="44.38307" lon="1.47237">
        <ele>252.46577722439</ele>
        <time>2018-03-29T12:26:34Z</time>
      </trkpt>
      <trkpt lat="44.3831" lon="1.47231">
        <ele>252.44208532027</ele>
        <time>2018-03-29T12:26:39Z</time>
      </trkpt>
      <trkpt lat="44.38314" lon="1.47224">
        <ele>252.24381655425</ele>
        <time>2018-03-29T12:26:43Z</time>
      </trkpt>
      <trkpt lat="44.38315" lon="1.47217">
        <ele>252.19007787051</ele>
        <time>2018-03-29T12:26:48Z</time>
      </trkpt>
      <trkpt lat="44.38317" lon="1.47208">
        <ele>251.93017247553</ele>
        <time>2018-03-29T12:26:53Z</time>
      </trkpt>
      <trkpt lat="44.38319" lon="1.47203">
        <ele>251.8119416785</ele>
        <time>2018-03-29T12:26:57Z</time>
      </trkpt>
      <trkpt lat="44.38322" lon="1.47194">
        <ele>251.72583116363</ele>
        <time>2018-03-29T12:27:01Z</time>
      </trkpt>
      <trkpt lat="44.38325" lon="1.47187">
        <ele>251.3050236895</ele>
        <time>2018-03-29T12:27:06Z</time>
      </trkpt>
      <trkpt lat="44.38326" lon="1.4718">
        <ele>250.99834309081</ele>
        <time>2018-03-29T12:27:10Z</time>
      </trkpt>
      <trkpt lat="44.38328" lon="1.47175">
        <ele>251.03349220712</ele>
        <time>2018-03-29T12:27:15Z</time>
      </trkpt>
      <trkpt lat="44.38328" lon="1.47169">
        <ele>250.96944321505</ele>
        <time>2018-03-29T12:27:22Z</time>
      </trkpt>
      <trkpt lat="44.38327" lon="1.47163">
        <ele>250.70601191878</ele>
        <time>2018-03-29T12:27:26Z</time>
      </trkpt>
      <trkpt lat="44.38327" lon="1.47157">
        <ele>250.2821430854</ele>
        <time>2018-03-29T12:27:30Z</time>
      </trkpt>
      <trkpt lat="44.38327" lon="1.47147">
        <ele>249.84040058935</ele>
        <time>2018-03-29T12:27:35Z</time>
      </trkpt>
      <trkpt lat="44.38328" lon="1.47141">
        <ele>249.51689306008</ele>
        <time>2018-03-29T12:27:39Z</time>
      </trkpt>
      <trkpt lat="44.38328" lon="1.47135">
        <ele>248.96469816919</ele>
        <time>2018-03-29T12:27:44Z</time>
      </trkpt>
      <trkpt lat="44.38328" lon="1.47129">
        <ele>248.76001240875</ele>
        <time>2018-03-29T12:27:49Z</time>
      </trkpt>
      <trkpt lat="44.3833" lon="1.47122">
        <ele>248.79002574449</ele>
        <time>2018-03-29T12:27:53Z</time>
      </trkpt>
      <trkpt lat="44.38332" lon="1.47118">
        <ele>249.19048405237</ele>
        <time>2018-03-29T12:27:57Z</time>
      </trkpt>
      <trkpt lat="44.38336" lon="1.47114">
        <ele>249.86048383947</ele>
        <time>2018-03-29T12:28:02Z</time>
      </trkpt>
      <trkpt lat="44.38339" lon="1.47112">
        <ele>250.59587186522</ele>
        <time>2018-03-29T12:28:07Z</time>
      </trkpt>
      <trkpt lat="44.38343" lon="1.47103">
        <ele>251.36499289113</ele>
        <time>2018-03-29T12:28:12Z</time>
      </trkpt>
      <trkpt lat="44.38346" lon="1.471">
        <ele>252.0375570834</ele>
        <time>2018-03-29T12:28:17Z</time>
      </trkpt>
      <trkpt lat="44.38349" lon="1.47097">
        <ele>251.61970648604</ele>
        <time>2018-03-29T12:28:24Z</time>
      </trkpt>
      <trkpt lat="44.38353" lon="1.47093">
        <ele>250.73680651155</ele>
        <time>2018-03-29T12:28:31Z</time>
      </trkpt>
      <trkpt lat="44.38357" lon="1.47092">
        <ele>254.56325766721</ele>
        <time>2018-03-29T12:30:39Z</time>
      </trkpt>
      <trkpt lat="44.38359" lon="1.47087">
        <ele>254.52152892799</ele>
        <time>2018-03-29T12:30:46Z</time>
      </trkpt>
      <trkpt lat="44.38363" lon="1.47085">
        <ele>254.49774828968</ele>
        <time>2018-03-29T12:30:54Z</time>
      </trkpt>
      <trkpt lat="44.38369" lon="1.47078">
        <ele>254.21904242229</ele>
        <time>2018-03-29T12:30:59Z</time>
      </trkpt>
      <trkpt lat="44.38372" lon="1.47074">
        <ele>253.89947256077</ele>
        <time>2018-03-29T12:31:03Z</time>
      </trkpt>
      <trkpt lat="44.38374" lon="1.47078">
        <ele>252.60660376679</ele>
        <time>2018-03-29T12:31:15Z</time>
      </trkpt>
      <trkpt lat="44.38374" lon="1.47084">
        <ele>252.72124292611</ele>
        <time>2018-03-29T12:31:27Z</time>
      </trkpt>
      <trkpt lat="44.38377" lon="1.47088">
        <ele>252.64288995786</ele>
        <time>2018-03-29T12:31:39Z</time>
      </trkpt>
      <trkpt lat="44.38381" lon="1.47091">
        <ele>251.58919034593</ele>
        <time>2018-03-29T12:31:45Z</time>
      </trkpt>
      <trkpt lat="44.38384" lon="1.47095">
        <ele>250.91005509797</ele>
        <time>2018-03-29T12:31:50Z</time>
      </trkpt>
      <trkpt lat="44.3839" lon="1.47098">
        <ele>250.06755145878</ele>
        <time>2018-03-29T12:31:55Z</time>
      </trkpt>
      <trkpt lat="44.38394" lon="1.47096">
        <ele>249.31133722279</ele>
        <time>2018-03-29T12:31:59Z</time>
      </trkpt>
      <trkpt lat="44.38399" lon="1.47094">
        <ele>248.91034770296</ele>
        <time>2018-03-29T12:32:04Z</time>
      </trkpt>
      <trkpt lat="44.38403" lon="1.47094">
        <ele>248.528889339</ele>
        <time>2018-03-29T12:32:09Z</time>
      </trkpt>
      <trkpt lat="44.38407" lon="1.47093">
        <ele>247.92197822658</ele>
        <time>2018-03-29T12:32:14Z</time>
      </trkpt>
      <trkpt lat="44.38412" lon="1.47091">
        <ele>247.36052544956</ele>
        <time>2018-03-29T12:32:18Z</time>
      </trkpt>
      <trkpt lat="44.38416" lon="1.47088">
        <ele>246.51161303877</ele>
        <time>2018-03-29T12:32:22Z</time>
      </trkpt>
      <trkpt lat="44.3842" lon="1.47086">
        <ele>245.69560031833</ele>
        <time>2018-03-29T12:32:26Z</time>
      </trkpt>
      <trkpt lat="44.38426" lon="1.47083">
        <ele>244.74576397661</ele>
        <time>2018-03-29T12:32:31Z</time>
      </trkpt>
      <trkpt lat="44.3843" lon="1.47081">
        <ele>243.99699070242</ele>
        <time>2018-03-29T12:32:38Z</time>
      </trkpt>
      <trkpt lat="44.38434" lon="1.47078">
        <ele>243.86492447311</ele>
        <time>2018-03-29T12:32:43Z</time>
      </trkpt>
      <trkpt lat="44.38437" lon="1.47078">
        <ele>243.81017091561</ele>
        <time>2018-03-29T12:32:47Z</time>
      </trkpt>
      <trkpt lat="44.38441" lon="1.47076">
        <ele>243.80774658015</ele>
        <time>2018-03-29T12:32:51Z</time>
      </trkpt>
      <trkpt lat="44.38445" lon="1.47074">
        <ele>243.96411184683</ele>
        <time>2018-03-29T12:32:56Z</time>
      </trkpt>
      <trkpt lat="44.38448" lon="1.47071">
        <ele>243.87933085332</ele>
        <time>2018-03-29T12:33:00Z</time>
      </trkpt>
      <trkpt lat="44.38451" lon="1.47069">
        <ele>243.66327917022</ele>
        <time>2018-03-29T12:33:04Z</time>
      </trkpt>
      <trkpt lat="44.38455" lon="1.47067">
        <ele>243.29048325485</ele>
        <time>2018-03-29T12:33:09Z</time>
      </trkpt>
      <trkpt lat="44.38459" lon="1.47065">
        <ele>242.37030290267</ele>
        <time>2018-03-29T12:33:14Z</time>
      </trkpt>
      <trkpt lat="44.38465" lon="1.47065">
        <ele>241.76376523091</ele>
        <time>2018-03-29T12:33:18Z</time>
      </trkpt>
      <trkpt lat="44.38471" lon="1.47063">
        <ele>241.46523623021</ele>
        <time>2018-03-29T12:33:22Z</time>
      </trkpt>
      <trkpt lat="44.38476" lon="1.47061">
        <ele>240.83577459893</ele>
        <time>2018-03-29T12:33:26Z</time>
      </trkpt>
      <trkpt lat="44.38482" lon="1.47056">
        <ele>240.27778003027</ele>
        <time>2018-03-29T12:33:31Z</time>
      </trkpt>
      <trkpt lat="44.38486" lon="1.47055">
        <ele>239.92435291783</ele>
        <time>2018-03-29T12:33:35Z</time>
      </trkpt>
      <trkpt lat="44.38489" lon="1.47054">
        <ele>239.60372653162</ele>
        <time>2018-03-29T12:33:39Z</time>
      </trkpt>
      <trkpt lat="44.38494" lon="1.4705">
        <ele>239.25685659389</ele>
        <time>2018-03-29T12:33:43Z</time>
      </trkpt>
      <trkpt lat="44.38498" lon="1.47047">
        <ele>238.9497167884</ele>
        <time>2018-03-29T12:33:47Z</time>
      </trkpt>
      <trkpt lat="44.38501" lon="1.47045">
        <ele>238.11885510692</ele>
        <time>2018-03-29T12:33:52Z</time>
      </trkpt>
      <trkpt lat="44.38506" lon="1.47042">
        <ele>237.63481979984</ele>
        <time>2018-03-29T12:33:56Z</time>
      </trkpt>
      <trkpt lat="44.38509" lon="1.47036">
        <ele>236.83485176984</ele>
        <time>2018-03-29T12:34:01Z</time>
      </trkpt>
      <trkpt lat="44.38511" lon="1.47031">
        <ele>236.21450169348</ele>
        <time>2018-03-29T12:34:06Z</time>
      </trkpt>
      <trkpt lat="44.38514" lon="1.47026">
        <ele>236.03003565903</ele>
        <time>2018-03-29T12:34:10Z</time>
      </trkpt>
      <trkpt lat="44.38519" lon="1.4702">
        <ele>235.89902138654</ele>
        <time>2018-03-29T12:34:14Z</time>
      </trkpt>
      <trkpt lat="44.38523" lon="1.47014">
        <ele>235.83766187314</ele>
        <time>2018-03-29T12:34:18Z</time>
      </trkpt>
      <trkpt lat="44.38526" lon="1.47009">
        <ele>235.52938722995</ele>
        <time>2018-03-29T12:34:23Z</time>
      </trkpt>
      <trkpt lat="44.38528" lon="1.47005">
        <ele>234.88510419641</ele>
        <time>2018-03-29T12:34:30Z</time>
      </trkpt>
      <trkpt lat="44.3853" lon="1.47">
        <ele>234.40920258615</ele>
        <time>2018-03-29T12:34:35Z</time>
      </trkpt>
      <trkpt lat="44.38533" lon="1.46997">
        <ele>234.21282028205</ele>
        <time>2018-03-29T12:34:40Z</time>
      </trkpt>
      <trkpt lat="44.38536" lon="1.46991">
        <ele>234.2950853691</ele>
        <time>2018-03-29T12:34:45Z</time>
      </trkpt>
      <trkpt lat="44.38539" lon="1.46987">
        <ele>234.43100763952</ele>
        <time>2018-03-29T12:34:49Z</time>
      </trkpt>
      <trkpt lat="44.38541" lon="1.46983">
        <ele>234.33977360691</ele>
        <time>2018-03-29T12:34:55Z</time>
      </trkpt>
      <trkpt lat="44.38545" lon="1.46975">
        <ele>234.01467651341</ele>
        <time>2018-03-29T12:34:59Z</time>
      </trkpt>
      <trkpt lat="44.38548" lon="1.46969">
        <ele>233.40208306201</ele>
        <time>2018-03-29T12:35:04Z</time>
      </trkpt>
      <trkpt lat="44.3855" lon="1.46964">
        <ele>233.08287644796</ele>
        <time>2018-03-29T12:35:10Z</time>
      </trkpt>
      <trkpt lat="44.38552" lon="1.46961">
        <ele>232.67498772065</ele>
        <time>2018-03-29T12:35:14Z</time>
      </trkpt>
      <trkpt lat="44.38558" lon="1.46954">
        <ele>232.3269765521</ele>
        <time>2018-03-29T12:35:18Z</time>
      </trkpt>
      <trkpt lat="44.38562" lon="1.46951">
        <ele>232.12022256915</ele>
        <time>2018-03-29T12:35:23Z</time>
      </trkpt>
      <trkpt lat="44.38567" lon="1.46949">
        <ele>232.0428289695</ele>
        <time>2018-03-29T12:35:28Z</time>
      </trkpt>
      <trkpt lat="44.38572" lon="1.46945">
        <ele>231.96672081232</ele>
        <time>2018-03-29T12:35:33Z</time>
      </trkpt>
      <trkpt lat="44.38576" lon="1.46942">
        <ele>231.67264017297</ele>
        <time>2018-03-29T12:35:37Z</time>
      </trkpt>
      <trkpt lat="44.38581" lon="1.46937">
        <ele>231.30267673014</ele>
        <time>2018-03-29T12:35:41Z</time>
      </trkpt>
      <trkpt lat="44.38586" lon="1.46936">
        <ele>230.52121821659</ele>
        <time>2018-03-29T12:35:46Z</time>
      </trkpt>
      <trkpt lat="44.38593" lon="1.46934">
        <ele>229.92963204469</ele>
        <time>2018-03-29T12:35:51Z</time>
      </trkpt>
      <trkpt lat="44.38597" lon="1.46932">
        <ele>229.50483084588</ele>
        <time>2018-03-29T12:35:55Z</time>
      </trkpt>
      <trkpt lat="44.38602" lon="1.46932">
        <ele>228.57116526277</ele>
        <time>2018-03-29T12:36:00Z</time>
      </trkpt>
      <trkpt lat="44.38609" lon="1.46932">
        <ele>227.31426034009</ele>
        <time>2018-03-29T12:36:05Z</time>
      </trkpt>
      <trkpt lat="44.38613" lon="1.46929">
        <ele>226.60084827967</ele>
        <time>2018-03-29T12:36:11Z</time>
      </trkpt>
      <trkpt lat="44.38617" lon="1.46928">
        <ele>226.16239670804</ele>
        <time>2018-03-29T12:36:16Z</time>
      </trkpt>
      <trkpt lat="44.38621" lon="1.46927">
        <ele>226.02006634606</ele>
        <time>2018-03-29T12:36:23Z</time>
      </trkpt>
      <trkpt lat="44.38627" lon="1.46927">
        <ele>226.15211231328</ele>
        <time>2018-03-29T12:36:27Z</time>
      </trkpt>
      <trkpt lat="44.3863" lon="1.46925">
        <ele>226.70302935871</ele>
        <time>2018-03-29T12:36:38Z</time>
      </trkpt>
      <trkpt lat="44.38634" lon="1.46924">
        <ele>228.658646287</ele>
        <time>2018-03-29T12:36:48Z</time>
      </trkpt>
      <trkpt lat="44.38645" lon="1.46916">
        <ele>229.24910677614</ele>
        <time>2018-03-29T12:36:53Z</time>
      </trkpt>
      <trkpt lat="44.38648" lon="1.46913">
        <ele>228.99551907965</ele>
        <time>2018-03-29T12:37:07Z</time>
      </trkpt>
      <trkpt lat="44.38653" lon="1.46907">
        <ele>229.15984236286</ele>
        <time>2018-03-29T12:37:11Z</time>
      </trkpt>
      <trkpt lat="44.3866" lon="1.46895">
        <ele>229.42110928966</ele>
        <time>2018-03-29T12:37:16Z</time>
      </trkpt>
      <trkpt lat="44.38663" lon="1.46892">
        <ele>229.84435292952</ele>
        <time>2018-03-29T12:37:26Z</time>
      </trkpt>
      <trkpt lat="44.38666" lon="1.46888">
        <ele>229.88664736954</ele>
        <time>2018-03-29T12:37:30Z</time>
      </trkpt>
      <trkpt lat="44.38675" lon="1.46878">
        <ele>230.23402115224</ele>
        <time>2018-03-29T12:37:34Z</time>
      </trkpt>
      <trkpt lat="44.38678" lon="1.46876">
        <ele>231.36234415074</ele>
        <time>2018-03-29T12:37:41Z</time>
      </trkpt>
      <trkpt lat="44.3868" lon="1.46871">
        <ele>232.36674740772</ele>
        <time>2018-03-29T12:37:47Z</time>
      </trkpt>
      <trkpt lat="44.38686" lon="1.46869">
        <ele>233.06720039508</ele>
        <time>2018-03-29T12:37:51Z</time>
      </trkpt>
      <trkpt lat="44.38691" lon="1.46858">
        <ele>233.63454453728</ele>
        <time>2018-03-29T12:37:56Z</time>
      </trkpt>
      <trkpt lat="44.38695" lon="1.4685">
        <ele>233.85440469704</ele>
        <time>2018-03-29T12:38:00Z</time>
      </trkpt>
      <trkpt lat="44.38699" lon="1.46844">
        <ele>233.75007468532</ele>
        <time>2018-03-29T12:38:04Z</time>
      </trkpt>
      <trkpt lat="44.38708" lon="1.46848">
        <ele>233.73489175424</ele>
        <time>2018-03-29T12:38:08Z</time>
      </trkpt>
      <trkpt lat="44.38712" lon="1.46845">
        <ele>234.05025123196</ele>
        <time>2018-03-29T12:38:15Z</time>
      </trkpt>
      <trkpt lat="44.3872" lon="1.46839">
        <ele>233.22274434649</ele>
        <time>2018-03-29T12:38:19Z</time>
      </trkpt>
      <trkpt lat="44.38724" lon="1.46836">
        <ele>232.5467646651</ele>
        <time>2018-03-29T12:38:23Z</time>
      </trkpt>
      <trkpt lat="44.38729" lon="1.46835">
        <ele>231.23668530254</ele>
        <time>2018-03-29T12:38:29Z</time>
      </trkpt>
      <trkpt lat="44.38732" lon="1.46828">
        <ele>231.01821226046</ele>
        <time>2018-03-29T12:38:33Z</time>
      </trkpt>
      <trkpt lat="44.38737" lon="1.4682">
        <ele>230.6948922286</ele>
        <time>2018-03-29T12:38:38Z</time>
      </trkpt>
      <trkpt lat="44.38741" lon="1.46817">
        <ele>230.41419296628</ele>
        <time>2018-03-29T12:38:43Z</time>
      </trkpt>
      <trkpt lat="44.38745" lon="1.46813">
        <ele>230.14272400272</ele>
        <time>2018-03-29T12:38:48Z</time>
      </trkpt>
      <trkpt lat="44.38747" lon="1.46805">
        <ele>229.85475085194</ele>
        <time>2018-03-29T12:38:53Z</time>
      </trkpt>
      <trkpt lat="44.38752" lon="1.468">
        <ele>229.79492431678</ele>
        <time>2018-03-29T12:38:57Z</time>
      </trkpt>
      <trkpt lat="44.38755" lon="1.46794">
        <ele>229.57872111174</ele>
        <time>2018-03-29T12:39:02Z</time>
      </trkpt>
      <trkpt lat="44.38757" lon="1.4679">
        <ele>229.71150908469</ele>
        <time>2018-03-29T12:39:06Z</time>
      </trkpt>
      <trkpt lat="44.38759" lon="1.46784">
        <ele>230.44405969784</ele>
        <time>2018-03-29T12:39:10Z</time>
      </trkpt>
      <trkpt lat="44.38757" lon="1.46779">
        <ele>232.02026181192</ele>
        <time>2018-03-29T12:39:18Z</time>
      </trkpt>
      <trkpt lat="44.38756" lon="1.46769">
        <ele>232.42860791159</ele>
        <time>2018-03-29T12:39:22Z</time>
      </trkpt>
      <trkpt lat="44.38757" lon="1.46765">
        <ele>232.46318570628</ele>
        <time>2018-03-29T12:39:26Z</time>
      </trkpt>
      <trkpt lat="44.38762" lon="1.46743">
        <ele>232.29628614438</ele>
        <time>2018-03-29T12:39:31Z</time>
      </trkpt>
      <trkpt lat="44.38763" lon="1.46739">
        <ele>231.76301997564</ele>
        <time>2018-03-29T12:39:37Z</time>
      </trkpt>
      <trkpt lat="44.38766" lon="1.46726">
        <ele>231.33706296366</ele>
        <time>2018-03-29T12:39:41Z</time>
      </trkpt>
      <trkpt lat="44.38765" lon="1.4672">
        <ele>230.7222388114</ele>
        <time>2018-03-29T12:39:46Z</time>
      </trkpt>
      <trkpt lat="44.3877" lon="1.46704">
        <ele>230.05802426333</ele>
        <time>2018-03-29T12:39:51Z</time>
      </trkpt>
      <trkpt lat="44.38769" lon="1.46699">
        <ele>229.60115062526</ele>
        <time>2018-03-29T12:39:57Z</time>
      </trkpt>
      <trkpt lat="44.38769" lon="1.4669">
        <ele>229.40966218774</ele>
        <time>2018-03-29T12:40:01Z</time>
      </trkpt>
      <trkpt lat="44.38769" lon="1.46684">
        <ele>229.99612921091</ele>
        <time>2018-03-29T12:40:10Z</time>
      </trkpt>
      <trkpt lat="44.38767" lon="1.46674">
        <ele>230.27885885728</ele>
        <time>2018-03-29T12:40:14Z</time>
      </trkpt>
      <trkpt lat="44.38764" lon="1.46668">
        <ele>230.70464657586</ele>
        <time>2018-03-29T12:40:18Z</time>
      </trkpt>
      <trkpt lat="44.38765" lon="1.46664">
        <ele>231.49100416574</ele>
        <time>2018-03-29T12:40:25Z</time>
      </trkpt>
      <trkpt lat="44.38769" lon="1.46641">
        <ele>231.16981646184</ele>
        <time>2018-03-29T12:40:30Z</time>
      </trkpt>
      <trkpt lat="44.3877" lon="1.46637">
        <ele>231.30316489431</ele>
        <time>2018-03-29T12:40:37Z</time>
      </trkpt>
      <trkpt lat="44.38772" lon="1.46632">
        <ele>231.65195719135</ele>
        <time>2018-03-29T12:40:42Z</time>
      </trkpt>
      <trkpt lat="44.38773" lon="1.46625">
        <ele>231.04974418774</ele>
        <time>2018-03-29T12:40:47Z</time>
      </trkpt>
      <trkpt lat="44.38775" lon="1.46619">
        <ele>230.20015452009</ele>
        <time>2018-03-29T12:40:52Z</time>
      </trkpt>
      <trkpt lat="44.38778" lon="1.46613">
        <ele>229.98631098797</ele>
        <time>2018-03-29T12:40:56Z</time>
      </trkpt>
      <trkpt lat="44.3878" lon="1.46605">
        <ele>230.1642302947</ele>
        <time>2018-03-29T12:41:01Z</time>
      </trkpt>
      <trkpt lat="44.3878" lon="1.46601">
        <ele>230.88503130187</ele>
        <time>2018-03-29T12:41:06Z</time>
      </trkpt>
      <trkpt lat="44.38782" lon="1.46594">
        <ele>231.43631948392</ele>
        <time>2018-03-29T12:41:10Z</time>
      </trkpt>
      <trkpt lat="44.38783" lon="1.46588">
        <ele>231.42032149729</ele>
        <time>2018-03-29T12:41:23Z</time>
      </trkpt>
      <trkpt lat="44.38781" lon="1.46575">
        <ele>231.00701745746</ele>
        <time>2018-03-29T12:41:28Z</time>
      </trkpt>
      <trkpt lat="44.38787" lon="1.46564">
        <ele>230.85927804177</ele>
        <time>2018-03-29T12:41:32Z</time>
      </trkpt>
      <trkpt lat="44.38789" lon="1.4656">
        <ele>230.74310130008</ele>
        <time>2018-03-29T12:41:39Z</time>
      </trkpt>
      <trkpt lat="44.38796" lon="1.46551">
        <ele>230.08479928115</ele>
        <time>2018-03-29T12:41:44Z</time>
      </trkpt>
      <trkpt lat="44.38797" lon="1.46548">
        <ele>229.89439093844</ele>
        <time>2018-03-29T12:41:48Z</time>
      </trkpt>
      <trkpt lat="44.38798" lon="1.46531">
        <ele>229.62304447196</ele>
        <time>2018-03-29T12:41:52Z</time>
      </trkpt>
      <trkpt lat="44.38798" lon="1.46527">
        <ele>229.29091880356</ele>
        <time>2018-03-29T12:41:59Z</time>
      </trkpt>
      <trkpt lat="44.388" lon="1.46521">
        <ele>229.26500840187</ele>
        <time>2018-03-29T12:42:04Z</time>
      </trkpt>
      <trkpt lat="44.38801" lon="1.46516">
        <ele>229.0479343806</ele>
        <time>2018-03-29T12:42:12Z</time>
      </trkpt>
      <trkpt lat="44.38805" lon="1.46498">
        <ele>229.01656879392</ele>
        <time>2018-03-29T12:42:16Z</time>
      </trkpt>
      <trkpt lat="44.38809" lon="1.4649">
        <ele>228.60004383315</ele>
        <time>2018-03-29T12:42:21Z</time>
      </trkpt>
      <trkpt lat="44.3881" lon="1.4648">
        <ele>228.93671446294</ele>
        <time>2018-03-29T12:42:26Z</time>
      </trkpt>
      <trkpt lat="44.38812" lon="1.46475">
        <ele>229.69120156892</ele>
        <time>2018-03-29T12:42:34Z</time>
      </trkpt>
      <trkpt lat="44.38814" lon="1.46459">
        <ele>230.08222733166</ele>
        <time>2018-03-29T12:42:38Z</time>
      </trkpt>
      <trkpt lat="44.38815" lon="1.46454">
        <ele>230.26238580415</ele>
        <time>2018-03-29T12:42:43Z</time>
      </trkpt>
      <trkpt lat="44.38816" lon="1.46449">
        <ele>230.63102440825</ele>
        <time>2018-03-29T12:42:48Z</time>
      </trkpt>
      <trkpt lat="44.38817" lon="1.46445">
        <ele>230.75416695597</ele>
        <time>2018-03-29T12:42:53Z</time>
      </trkpt>
      <trkpt lat="44.3882" lon="1.46441">
        <ele>230.22272787367</ele>
        <time>2018-03-29T12:42:59Z</time>
      </trkpt>
      <trkpt lat="44.38822" lon="1.46435">
        <ele>230.37227053792</ele>
        <time>2018-03-29T12:43:03Z</time>
      </trkpt>
      <trkpt lat="44.38824" lon="1.46422">
        <ele>230.28220499733</ele>
        <time>2018-03-29T12:43:07Z</time>
      </trkpt>
      <trkpt lat="44.38827" lon="1.46414">
        <ele>230.09917002104</ele>
        <time>2018-03-29T12:43:12Z</time>
      </trkpt>
      <trkpt lat="44.38829" lon="1.46408">
        <ele>229.95050608078</ele>
        <time>2018-03-29T12:43:17Z</time>
      </trkpt>
      <trkpt lat="44.38832" lon="1.46397">
        <ele>230.04623452284</ele>
        <time>2018-03-29T12:43:21Z</time>
      </trkpt>
      <trkpt lat="44.38834" lon="1.46393">
        <ele>230.04032365551</ele>
        <time>2018-03-29T12:43:26Z</time>
      </trkpt>
      <trkpt lat="44.38838" lon="1.46383">
        <ele>230.27314405136</ele>
        <time>2018-03-29T12:43:31Z</time>
      </trkpt>
      <trkpt lat="44.38841" lon="1.46375">
        <ele>230.04673226461</ele>
        <time>2018-03-29T12:43:36Z</time>
      </trkpt>
      <trkpt lat="44.38843" lon="1.4637">
        <ele>230.0730776204</ele>
        <time>2018-03-29T12:43:45Z</time>
      </trkpt>
      <trkpt lat="44.38848" lon="1.46364">
        <ele>230.13113566542</ele>
        <time>2018-03-29T12:43:50Z</time>
      </trkpt>
      <trkpt lat="44.38851" lon="1.46345">
        <ele>230.38452363563</ele>
        <time>2018-03-29T12:43:54Z</time>
      </trkpt>
      <trkpt lat="44.38853" lon="1.46344">
        <ele>221.33714012952</ele>
        <time>2018-03-29T12:44:37Z</time>
      </trkpt>
      <trkpt lat="44.38858" lon="1.46339">
        <ele>219.31439644326</ele>
        <time>2018-03-29T12:44:41Z</time>
      </trkpt>
      <trkpt lat="44.38861" lon="1.46337">
        <ele>214.23983340723</ele>
        <time>2018-03-29T12:45:58Z</time>
      </trkpt>
      <trkpt lat="44.38865" lon="1.46333">
        <ele>213.09688664398</ele>
        <time>2018-03-29T12:46:04Z</time>
      </trkpt>
      <trkpt lat="44.38864" lon="1.46327">
        <ele>214.1912679409</ele>
        <time>2018-03-29T12:46:26Z</time>
      </trkpt>
      <trkpt lat="44.38864" lon="1.46322">
        <ele>216.27103345084</ele>
        <time>2018-03-29T12:46:46Z</time>
      </trkpt>
      <trkpt lat="44.38864" lon="1.46315">
        <ele>216.6358983707</ele>
        <time>2018-03-29T12:46:51Z</time>
      </trkpt>
      <trkpt lat="44.38866" lon="1.4631">
        <ele>216.81791864715</ele>
        <time>2018-03-29T12:47:06Z</time>
      </trkpt>
      <trkpt lat="44.38867" lon="1.46304">
        <ele>216.62983002129</ele>
        <time>2018-03-29T12:47:27Z</time>
      </trkpt>
      <trkpt lat="44.38863" lon="1.46286">
        <ele>216.70201461704</ele>
        <time>2018-03-29T12:47:32Z</time>
      </trkpt>
      <trkpt lat="44.38862" lon="1.46281">
        <ele>216.36699981165</ele>
        <time>2018-03-29T12:47:36Z</time>
      </trkpt>
      <trkpt lat="44.38861" lon="1.4627">
        <ele>216.28570562675</ele>
        <time>2018-03-29T12:47:41Z</time>
      </trkpt>
      <trkpt lat="44.38862" lon="1.46267">
        <ele>216.07515650594</ele>
        <time>2018-03-29T12:47:47Z</time>
      </trkpt>
      <trkpt lat="44.38871" lon="1.46254">
        <ele>215.59409155988</ele>
        <time>2018-03-29T12:47:51Z</time>
      </trkpt>
      <trkpt lat="44.38871" lon="1.46249">
        <ele>214.99940400603</ele>
        <time>2018-03-29T12:47:55Z</time>
      </trkpt>
      <trkpt lat="44.38874" lon="1.46238">
        <ele>214.18970414379</ele>
        <time>2018-03-29T12:47:59Z</time>
      </trkpt>
      <trkpt lat="44.38873" lon="1.4623">
        <ele>213.66338654472</ele>
        <time>2018-03-29T12:48:03Z</time>
      </trkpt>
      <trkpt lat="44.38873" lon="1.4622">
        <ele>213.11326714907</ele>
        <time>2018-03-29T12:48:08Z</time>
      </trkpt>
      <trkpt lat="44.38875" lon="1.46211">
        <ele>212.60685194877</ele>
        <time>2018-03-29T12:48:13Z</time>
      </trkpt>
      <trkpt lat="44.38879" lon="1.46192">
        <ele>212.13437876677</ele>
        <time>2018-03-29T12:48:17Z</time>
      </trkpt>
      <trkpt lat="44.38883" lon="1.46185">
        <ele>211.8968263392</ele>
        <time>2018-03-29T12:48:22Z</time>
      </trkpt>
      <trkpt lat="44.38886" lon="1.46178">
        <ele>211.91595970346</ele>
        <time>2018-03-29T12:48:27Z</time>
      </trkpt>
      <trkpt lat="44.38884" lon="1.4617">
        <ele>211.74529321911</ele>
        <time>2018-03-29T12:48:32Z</time>
      </trkpt>
      <trkpt lat="44.38884" lon="1.46164">
        <ele>211.74189883127</ele>
        <time>2018-03-29T12:48:36Z</time>
      </trkpt>
      <trkpt lat="44.38883" lon="1.46158">
        <ele>211.730589842</ele>
        <time>2018-03-29T12:48:40Z</time>
      </trkpt>
      <trkpt lat="44.38882" lon="1.46148">
        <ele>211.59516629156</ele>
        <time>2018-03-29T12:48:44Z</time>
      </trkpt>
      <trkpt lat="44.38881" lon="1.46137">
        <ele>211.28193498935</ele>
        <time>2018-03-29T12:48:49Z</time>
      </trkpt>
      <trkpt lat="44.3888" lon="1.4613">
        <ele>210.82417376473</ele>
        <time>2018-03-29T12:48:53Z</time>
      </trkpt>
      <trkpt lat="44.38881" lon="1.46122">
        <ele>210.45908649681</ele>
        <time>2018-03-29T12:48:58Z</time>
      </trkpt>
      <trkpt lat="44.38879" lon="1.46118">
        <ele>209.60095605016</ele>
        <time>2018-03-29T12:49:03Z</time>
      </trkpt>
      <trkpt lat="44.3888" lon="1.46109">
        <ele>208.51488247293</ele>
        <time>2018-03-29T12:49:08Z</time>
      </trkpt>
      <trkpt lat="44.3888" lon="1.46102">
        <ele>207.74932727201</ele>
        <time>2018-03-29T12:49:12Z</time>
      </trkpt>
      <trkpt lat="44.38881" lon="1.46094">
        <ele>207.41091852438</ele>
        <time>2018-03-29T12:49:17Z</time>
      </trkpt>
      <trkpt lat="44.38881" lon="1.46088">
        <ele>207.13526355122</ele>
        <time>2018-03-29T12:49:21Z</time>
      </trkpt>
      <trkpt lat="44.38883" lon="1.46084">
        <ele>206.82941404118</ele>
        <time>2018-03-29T12:49:26Z</time>
      </trkpt>
      <trkpt lat="44.38885" lon="1.4608">
        <ele>206.07624749977</ele>
        <time>2018-03-29T12:49:32Z</time>
      </trkpt>
      <trkpt lat="44.38888" lon="1.46076">
        <ele>205.78649011066</ele>
        <time>2018-03-29T12:49:37Z</time>
      </trkpt>
      <trkpt lat="44.38892" lon="1.46069">
        <ele>205.64424573796</ele>
        <time>2018-03-29T12:49:42Z</time>
      </trkpt>
      <trkpt lat="44.38896" lon="1.46061">
        <ele>205.33665162166</ele>
        <time>2018-03-29T12:49:46Z</time>
      </trkpt>
      <trkpt lat="44.389" lon="1.46053">
        <ele>204.66661934269</ele>
        <time>2018-03-29T12:49:51Z</time>
      </trkpt>
      <trkpt lat="44.38903" lon="1.46048">
        <ele>204.76131686139</ele>
        <time>2018-03-29T12:49:56Z</time>
      </trkpt>
      <trkpt lat="44.38906" lon="1.46044">
        <ele>203.22808956565</ele>
        <time>2018-03-29T12:50:06Z</time>
      </trkpt>
      <trkpt lat="44.3891" lon="1.46044">
        <ele>202.97372227767</ele>
        <time>2018-03-29T12:50:18Z</time>
      </trkpt>
      <trkpt lat="44.38914" lon="1.46043">
        <ele>203.48692519977</ele>
        <time>2018-03-29T12:50:26Z</time>
      </trkpt>
      <trkpt lat="44.38918" lon="1.4604">
        <ele>205.81699707152</ele>
        <time>2018-03-29T12:50:35Z</time>
      </trkpt>
      <trkpt lat="44.38922" lon="1.46039">
        <ele>209.74246434799</ele>
        <time>2018-03-29T12:50:52Z</time>
      </trkpt>
      <trkpt lat="44.38925" lon="1.46038">
        <ele>210.42675878587</ele>
        <time>2018-03-29T12:50:56Z</time>
      </trkpt>
      <trkpt lat="44.38935" lon="1.46029">
        <ele>211.37707825336</ele>
        <time>2018-03-29T12:51:01Z</time>
      </trkpt>
      <trkpt lat="44.38939" lon="1.46026">
        <ele>212.36395474273</ele>
        <time>2018-03-29T12:51:08Z</time>
      </trkpt>
      <trkpt lat="44.38942" lon="1.46023">
        <ele>212.47213757772</ele>
        <time>2018-03-29T12:51:12Z</time>
      </trkpt>
      <trkpt lat="44.38945" lon="1.4602">
        <ele>212.62801320357</ele>
        <time>2018-03-29T12:51:16Z</time>
      </trkpt>
      <trkpt lat="44.38948" lon="1.46015">
        <ele>213.38248975845</ele>
        <time>2018-03-29T12:51:23Z</time>
      </trkpt>
      <trkpt lat="44.38951" lon="1.46012">
        <ele>214.67729301271</ele>
        <time>2018-03-29T12:51:35Z</time>
      </trkpt>
      <trkpt lat="44.38954" lon="1.46004">
        <ele>215.74083222224</ele>
        <time>2018-03-29T12:51:39Z</time>
      </trkpt>
      <trkpt lat="44.38956" lon="1.46">
        <ele>218.60535079357</ele>
        <time>2018-03-29T12:51:49Z</time>
      </trkpt>
      <trkpt lat="44.38959" lon="1.45996">
        <ele>219.8007432243</ele>
        <time>2018-03-29T12:51:58Z</time>
      </trkpt>
      <trkpt lat="44.38963" lon="1.45993">
        <ele>221.10125058821</ele>
        <time>2018-03-29T12:52:05Z</time>
      </trkpt>
      <trkpt lat="44.38968" lon="1.45988">
        <ele>221.97644432251</ele>
        <time>2018-03-29T12:52:09Z</time>
      </trkpt>
      <trkpt lat="44.38971" lon="1.45984">
        <ele>223.56274549516</ele>
        <time>2018-03-29T12:52:16Z</time>
      </trkpt>
      <trkpt lat="44.38974" lon="1.4598">
        <ele>224.69131756438</ele>
        <time>2018-03-29T12:52:21Z</time>
      </trkpt>
      <trkpt lat="44.38978" lon="1.45976">
        <ele>225.54037455626</ele>
        <time>2018-03-29T12:52:26Z</time>
      </trkpt>
      <trkpt lat="44.38983" lon="1.45972">
        <ele>226.03494122345</ele>
        <time>2018-03-29T12:52:30Z</time>
      </trkpt>
      <trkpt lat="44.38987" lon="1.45971">
        <ele>227.31628070351</ele>
        <time>2018-03-29T12:52:41Z</time>
      </trkpt>
      <trkpt lat="44.38992" lon="1.45967">
        <ele>227.62927207498</ele>
        <time>2018-03-29T12:52:45Z</time>
      </trkpt>
      <trkpt lat="44.38996" lon="1.45966">
        <ele>227.27801110551</ele>
        <time>2018-03-29T12:53:01Z</time>
      </trkpt>
      <trkpt lat="44.39" lon="1.45963">
        <ele>226.74252992099</ele>
        <time>2018-03-29T12:53:06Z</time>
      </trkpt>
      <trkpt lat="44.39004" lon="1.45964">
        <ele>226.32065774268</ele>
        <time>2018-03-29T12:53:13Z</time>
      </trkpt>
      <trkpt lat="44.39008" lon="1.45966">
        <ele>226.84037813841</ele>
        <time>2018-03-29T12:53:26Z</time>
      </trkpt>
      <trkpt lat="44.39012" lon="1.45967">
        <ele>227.03212707389</ele>
        <time>2018-03-29T12:53:30Z</time>
      </trkpt>
      <trkpt lat="44.39019" lon="1.45963">
        <ele>226.9822353778</ele>
        <time>2018-03-29T12:53:35Z</time>
      </trkpt>
      <trkpt lat="44.39023" lon="1.45966">
        <ele>227.27878159402</ele>
        <time>2018-03-29T12:53:39Z</time>
      </trkpt>
      <trkpt lat="44.39029" lon="1.45965">
        <ele>227.67724382367</ele>
        <time>2018-03-29T12:53:44Z</time>
      </trkpt>
      <trkpt lat="44.39032" lon="1.45964">
        <ele>228.23516727302</ele>
        <time>2018-03-29T12:53:50Z</time>
      </trkpt>
      <trkpt lat="44.39036" lon="1.45965">
        <ele>228.44041193704</ele>
        <time>2018-03-29T12:54:12Z</time>
      </trkpt>
      <trkpt lat="44.39039" lon="1.45966">
        <ele>228.53398155618</ele>
        <time>2018-03-29T12:54:18Z</time>
      </trkpt>
      <trkpt lat="44.39042" lon="1.45969">
        <ele>228.67070002188</ele>
        <time>2018-03-29T12:54:25Z</time>
      </trkpt>
      <trkpt lat="44.39045" lon="1.45974">
        <ele>228.86410044339</ele>
        <time>2018-03-29T12:54:31Z</time>
      </trkpt>
      <trkpt lat="44.39046" lon="1.4598">
        <ele>229.84999607537</ele>
        <time>2018-03-29T12:54:51Z</time>
      </trkpt>
      <trkpt lat="44.39049" lon="1.45983">
        <ele>231.13870867086</ele>
        <time>2018-03-29T12:54:59Z</time>
      </trkpt>
      <trkpt lat="44.39055" lon="1.45993">
        <ele>231.75142483068</ele>
        <time>2018-03-29T12:55:04Z</time>
      </trkpt>
      <trkpt lat="44.39058" lon="1.45997">
        <ele>232.45617602472</ele>
        <time>2018-03-29T12:55:08Z</time>
      </trkpt>
      <trkpt lat="44.39062" lon="1.45999">
        <ele>233.3104759727</ele>
        <time>2018-03-29T12:55:13Z</time>
      </trkpt>
      <trkpt lat="44.39067" lon="1.46001">
        <ele>234.58871579652</ele>
        <time>2018-03-29T12:55:18Z</time>
      </trkpt>
      <trkpt lat="44.39074" lon="1.46004">
        <ele>235.58809554091</ele>
        <time>2018-03-29T12:55:23Z</time>
      </trkpt>
      <trkpt lat="44.39079" lon="1.46008">
        <ele>236.22230024713</ele>
        <time>2018-03-29T12:55:28Z</time>
      </trkpt>
      <trkpt lat="44.39083" lon="1.46012">
        <ele>236.67060434291</ele>
        <time>2018-03-29T12:55:32Z</time>
      </trkpt>
      <trkpt lat="44.39088" lon="1.46014">
        <ele>237.18201470268</ele>
        <time>2018-03-29T12:55:36Z</time>
      </trkpt>
      <trkpt lat="44.39092" lon="1.46016">
        <ele>237.55651243262</ele>
        <time>2018-03-29T12:55:41Z</time>
      </trkpt>
      <trkpt lat="44.39096" lon="1.46021">
        <ele>238.00635350293</ele>
        <time>2018-03-29T12:55:46Z</time>
      </trkpt>
      <trkpt lat="44.39099" lon="1.46024">
        <ele>238.43851906444</ele>
        <time>2018-03-29T12:55:50Z</time>
      </trkpt>
      <trkpt lat="44.39104" lon="1.4603">
        <ele>239.06480930198</ele>
        <time>2018-03-29T12:55:55Z</time>
      </trkpt>
      <trkpt lat="44.39107" lon="1.46034">
        <ele>239.14699391687</ele>
        <time>2018-03-29T12:56:01Z</time>
      </trkpt>
      <trkpt lat="44.3911" lon="1.46037">
        <ele>239.42121545227</ele>
        <time>2018-03-29T12:56:08Z</time>
      </trkpt>
      <trkpt lat="44.39113" lon="1.4604">
        <ele>239.86813958922</ele>
        <time>2018-03-29T12:56:13Z</time>
      </trkpt>
      <trkpt lat="44.39118" lon="1.46042">
        <ele>240.33665330077</ele>
        <time>2018-03-29T12:56:18Z</time>
      </trkpt>
      <trkpt lat="44.39122" lon="1.46043">
        <ele>240.98520930168</ele>
        <time>2018-03-29T12:56:25Z</time>
      </trkpt>
      <trkpt lat="44.39125" lon="1.46038">
        <ele>242.8072759197</ele>
        <time>2018-03-29T12:56:36Z</time>
      </trkpt>
      <trkpt lat="44.39129" lon="1.4604">
        <ele>244.82393099314</ele>
        <time>2018-03-29T12:56:44Z</time>
      </trkpt>
      <trkpt lat="44.39133" lon="1.4604">
        <ele>245.72197097911</ele>
        <time>2018-03-29T12:56:50Z</time>
      </trkpt>
      <trkpt lat="44.39137" lon="1.46043">
        <ele>247.14003059551</ele>
        <time>2018-03-29T12:56:59Z</time>
      </trkpt>
      <trkpt lat="44.39141" lon="1.46042">
        <ele>248.92317839745</ele>
        <time>2018-03-29T12:57:18Z</time>
      </trkpt>
      <trkpt lat="44.39141" lon="1.46036">
        <ele>248.18219990244</ele>
        <time>2018-03-29T12:58:04Z</time>
      </trkpt>
      <trkpt lat="44.39144" lon="1.46037">
        <ele>249.09799547204</ele>
        <time>2018-03-29T12:59:11Z</time>
      </trkpt>
      <trkpt lat="44.39148" lon="1.46038">
        <ele>250.86427165309</ele>
        <time>2018-03-29T13:03:06Z</time>
      </trkpt>
      <trkpt lat="44.3915" lon="1.46042">
        <ele>250.21780057191</ele>
        <time>2018-03-29T13:03:45Z</time>
      </trkpt>
      <trkpt lat="44.39154" lon="1.46043">
        <ele>250.49116855436</ele>
        <time>2018-03-29T13:03:50Z</time>
      </trkpt>
      <trkpt lat="44.39158" lon="1.46042">
        <ele>250.78254648277</ele>
        <time>2018-03-29T13:03:57Z</time>
      </trkpt>
      <trkpt lat="44.39161" lon="1.4604">
        <ele>251.39503152139</ele>
        <time>2018-03-29T13:04:02Z</time>
      </trkpt>
      <trkpt lat="44.39164" lon="1.46037">
        <ele>252.57529936537</ele>
        <time>2018-03-29T13:04:08Z</time>
      </trkpt>
      <trkpt lat="44.39167" lon="1.46032">
        <ele>252.99327878794</ele>
        <time>2018-03-29T13:04:13Z</time>
      </trkpt>
      <trkpt lat="44.39171" lon="1.46024">
        <ele>253.16081147106</ele>
        <time>2018-03-29T13:04:18Z</time>
      </trkpt>
      <trkpt lat="44.39175" lon="1.46019">
        <ele>253.01368681081</ele>
        <time>2018-03-29T13:04:22Z</time>
      </trkpt>
      <trkpt lat="44.3918" lon="1.46014">
        <ele>253.14453474302</ele>
        <time>2018-03-29T13:04:27Z</time>
      </trkpt>
      <trkpt lat="44.39183" lon="1.46009">
        <ele>253.57326399424</ele>
        <time>2018-03-29T13:04:31Z</time>
      </trkpt>
      <trkpt lat="44.39188" lon="1.46002">
        <ele>253.98925655454</ele>
        <time>2018-03-29T13:04:36Z</time>
      </trkpt>
      <trkpt lat="44.3919" lon="1.45999">
        <ele>254.02832964019</ele>
        <time>2018-03-29T13:04:40Z</time>
      </trkpt>
      <trkpt lat="44.39195" lon="1.45992">
        <ele>253.79564456751</ele>
        <time>2018-03-29T13:04:45Z</time>
      </trkpt>
      <trkpt lat="44.39198" lon="1.45987">
        <ele>253.74666953508</ele>
        <time>2018-03-29T13:04:49Z</time>
      </trkpt>
      <trkpt lat="44.39203" lon="1.45983">
        <ele>253.69259128426</ele>
        <time>2018-03-29T13:04:54Z</time>
      </trkpt>
      <trkpt lat="44.3921" lon="1.45977">
        <ele>253.7209595654</ele>
        <time>2018-03-29T13:04:59Z</time>
      </trkpt>
      <trkpt lat="44.39213" lon="1.45972">
        <ele>253.47688331027</ele>
        <time>2018-03-29T13:05:04Z</time>
      </trkpt>
      <trkpt lat="44.39215" lon="1.45967">
        <ele>253.71100749491</ele>
        <time>2018-03-29T13:05:08Z</time>
      </trkpt>
      <trkpt lat="44.39219" lon="1.45963">
        <ele>253.99491529591</ele>
        <time>2018-03-29T13:05:13Z</time>
      </trkpt>
      <trkpt lat="44.39223" lon="1.4596">
        <ele>254.40307402883</ele>
        <time>2018-03-29T13:05:18Z</time>
      </trkpt>
      <trkpt lat="44.39226" lon="1.45956">
        <ele>254.70268793157</ele>
        <time>2018-03-29T13:05:25Z</time>
      </trkpt>
      <trkpt lat="44.39226" lon="1.45951">
        <ele>254.55269201516</ele>
        <time>2018-03-29T13:05:29Z</time>
      </trkpt>
      <trkpt lat="44.39227" lon="1.45944">
        <ele>254.27123791976</ele>
        <time>2018-03-29T13:05:33Z</time>
      </trkpt>
      <trkpt lat="44.39232" lon="1.4594">
        <ele>253.82828933197</ele>
        <time>2018-03-29T13:05:37Z</time>
      </trkpt>
      <trkpt lat="44.39237" lon="1.45935">
        <ele>253.28534523989</ele>
        <time>2018-03-29T13:05:42Z</time>
      </trkpt>
      <trkpt lat="44.3924" lon="1.45931">
        <ele>252.72164677464</ele>
        <time>2018-03-29T13:05:48Z</time>
      </trkpt>
      <trkpt lat="44.39243" lon="1.45927">
        <ele>252.46938298464</ele>
        <time>2018-03-29T13:05:52Z</time>
      </trkpt>
      <trkpt lat="44.39246" lon="1.45923">
        <ele>251.81309214345</ele>
        <time>2018-03-29T13:05:59Z</time>
      </trkpt>
      <trkpt lat="44.39248" lon="1.45919">
        <ele>251.29063342973</ele>
        <time>2018-03-29T13:06:04Z</time>
      </trkpt>
      <trkpt lat="44.39254" lon="1.45913">
        <ele>251.00412937329</ele>
        <time>2018-03-29T13:06:09Z</time>
      </trkpt>
      <trkpt lat="44.39259" lon="1.45905">
        <ele>251.11445507044</ele>
        <time>2018-03-29T13:06:13Z</time>
      </trkpt>
      <trkpt lat="44.39263" lon="1.45901">
        <ele>251.08633019716</ele>
        <time>2018-03-29T13:06:17Z</time>
      </trkpt>
      <trkpt lat="44.39265" lon="1.45895">
        <ele>250.67010059095</ele>
        <time>2018-03-29T13:06:22Z</time>
      </trkpt>
      <trkpt lat="44.39268" lon="1.45892">
        <ele>249.24354877002</ele>
        <time>2018-03-29T13:06:28Z</time>
      </trkpt>
      <trkpt lat="44.39271" lon="1.45888">
        <ele>249.16350303871</ele>
        <time>2018-03-29T13:06:33Z</time>
      </trkpt>
      <trkpt lat="44.39275" lon="1.45886">
        <ele>249.1492815146</ele>
        <time>2018-03-29T13:06:39Z</time>
      </trkpt>
      <trkpt lat="44.39278" lon="1.45882">
        <ele>249.00613940965</ele>
        <time>2018-03-29T13:06:44Z</time>
      </trkpt>
      <trkpt lat="44.3928" lon="1.45878">
        <ele>248.68673161346</ele>
        <time>2018-03-29T13:06:48Z</time>
      </trkpt>
      <trkpt lat="44.39282" lon="1.45873">
        <ele>248.20059280056</ele>
        <time>2018-03-29T13:06:54Z</time>
      </trkpt>
      <trkpt lat="44.39285" lon="1.45871">
        <ele>247.74621636129</ele>
        <time>2018-03-29T13:06:59Z</time>
      </trkpt>
      <trkpt lat="44.39289" lon="1.45868">
        <ele>247.28826291481</ele>
        <time>2018-03-29T13:07:03Z</time>
      </trkpt>
      <trkpt lat="44.39293" lon="1.45865">
        <ele>247.05880616354</ele>
        <time>2018-03-29T13:07:07Z</time>
      </trkpt>
      <trkpt lat="44.39296" lon="1.45861">
        <ele>246.50237580972</ele>
        <time>2018-03-29T13:07:12Z</time>
      </trkpt>
      <trkpt lat="44.39298" lon="1.45856">
        <ele>246.49165871177</ele>
        <time>2018-03-29T13:07:16Z</time>
      </trkpt>
      <trkpt lat="44.39302" lon="1.45852">
        <ele>246.16620065472</ele>
        <time>2018-03-29T13:07:22Z</time>
      </trkpt>
      <trkpt lat="44.39302" lon="1.45848">
        <ele>246.31602619733</ele>
        <time>2018-03-29T13:07:30Z</time>
      </trkpt>
      <trkpt lat="44.39306" lon="1.45844">
        <ele>246.16529449274</ele>
        <time>2018-03-29T13:07:34Z</time>
      </trkpt>
      <trkpt lat="44.39309" lon="1.45838">
        <ele>245.89899627202</ele>
        <time>2018-03-29T13:07:39Z</time>
      </trkpt>
      <trkpt lat="44.39311" lon="1.45833">
        <ele>245.61332243398</ele>
        <time>2018-03-29T13:07:44Z</time>
      </trkpt>
      <trkpt lat="44.39314" lon="1.45829">
        <ele>245.55756798844</ele>
        <time>2018-03-29T13:07:48Z</time>
      </trkpt>
      <trkpt lat="44.39317" lon="1.45825">
        <ele>245.63864007625</ele>
        <time>2018-03-29T13:07:53Z</time>
      </trkpt>
      <trkpt lat="44.39318" lon="1.45819">
        <ele>245.66802084347</ele>
        <time>2018-03-29T13:08:00Z</time>
      </trkpt>
      <trkpt lat="44.3932" lon="1.45814">
        <ele>245.63511001475</ele>
        <time>2018-03-29T13:08:05Z</time>
      </trkpt>
      <trkpt lat="44.39324" lon="1.45805">
        <ele>245.93778911846</ele>
        <time>2018-03-29T13:08:10Z</time>
      </trkpt>
      <trkpt lat="44.39328" lon="1.45803">
        <ele>245.97162134342</ele>
        <time>2018-03-29T13:08:14Z</time>
      </trkpt>
      <trkpt lat="44.39331" lon="1.45793">
        <ele>245.9478230253</ele>
        <time>2018-03-29T13:08:19Z</time>
      </trkpt>
      <trkpt lat="44.39333" lon="1.45788">
        <ele>245.36833577018</ele>
        <time>2018-03-29T13:08:27Z</time>
      </trkpt>
      <trkpt lat="44.39336" lon="1.45783">
        <ele>245.80125513597</ele>
        <time>2018-03-29T13:08:34Z</time>
      </trkpt>
      <trkpt lat="44.39339" lon="1.45779">
        <ele>246.01586482576</ele>
        <time>2018-03-29T13:08:40Z</time>
      </trkpt>
      <trkpt lat="44.39342" lon="1.45769">
        <ele>246.18814288668</ele>
        <time>2018-03-29T13:08:45Z</time>
      </trkpt>
      <trkpt lat="44.39346" lon="1.45767">
        <ele>246.18646759957</ele>
        <time>2018-03-29T13:08:49Z</time>
      </trkpt>
      <trkpt lat="44.39347" lon="1.4576">
        <ele>246.12822666683</ele>
        <time>2018-03-29T13:08:54Z</time>
      </trkpt>
      <trkpt lat="44.39351" lon="1.45751">
        <ele>246.36661260838</ele>
        <time>2018-03-29T13:08:58Z</time>
      </trkpt>
      <trkpt lat="44.39353" lon="1.45744">
        <ele>246.49744228846</ele>
        <time>2018-03-29T13:09:02Z</time>
      </trkpt>
      <trkpt lat="44.39355" lon="1.45738">
        <ele>246.41348909058</ele>
        <time>2018-03-29T13:09:07Z</time>
      </trkpt>
      <trkpt lat="44.39358" lon="1.45731">
        <ele>246.18415014018</ele>
        <time>2018-03-29T13:09:12Z</time>
      </trkpt>
      <trkpt lat="44.3936" lon="1.45725">
        <ele>246.09564665079</ele>
        <time>2018-03-29T13:09:16Z</time>
      </trkpt>
      <trkpt lat="44.39362" lon="1.4572">
        <ele>245.88499900457</ele>
        <time>2018-03-29T13:09:22Z</time>
      </trkpt>
      <trkpt lat="44.39364" lon="1.45716">
        <ele>244.53251273922</ele>
        <time>2018-03-29T13:09:26Z</time>
      </trkpt>
      <trkpt lat="44.39367" lon="1.45713">
        <ele>242.43973133319</ele>
        <time>2018-03-29T13:09:31Z</time>
      </trkpt>
      <trkpt lat="44.39371" lon="1.4571">
        <ele>240.82773745514</ele>
        <time>2018-03-29T13:09:36Z</time>
      </trkpt>
      <trkpt lat="44.39372" lon="1.45705">
        <ele>239.55798221157</ele>
        <time>2018-03-29T13:09:43Z</time>
      </trkpt>
      <trkpt lat="44.39371" lon="1.45699">
        <ele>238.46386606196</ele>
        <time>2018-03-29T13:09:51Z</time>
      </trkpt>
      <trkpt lat="44.39376" lon="1.45687">
        <ele>238.35564618218</ele>
        <time>2018-03-29T13:09:56Z</time>
      </trkpt>
      <trkpt lat="44.39377" lon="1.45675">
        <ele>238.2976437826</ele>
        <time>2018-03-29T13:10:01Z</time>
      </trkpt>
      <trkpt lat="44.3938" lon="1.4567">
        <ele>238.20619361489</ele>
        <time>2018-03-29T13:10:05Z</time>
      </trkpt>
      <trkpt lat="44.3938" lon="1.45663">
        <ele>238.67378409564</ele>
        <time>2018-03-29T13:10:13Z</time>
      </trkpt>
      <trkpt lat="44.39381" lon="1.45658">
        <ele>239.06446317043</ele>
        <time>2018-03-29T13:10:17Z</time>
      </trkpt>
      <trkpt lat="44.39381" lon="1.45652">
        <ele>239.53405486116</ele>
        <time>2018-03-29T13:10:21Z</time>
      </trkpt>
      <trkpt lat="44.3938" lon="1.45647">
        <ele>239.76044837753</ele>
        <time>2018-03-29T13:10:25Z</time>
      </trkpt>
      <trkpt lat="44.39381" lon="1.45641">
        <ele>239.81211813749</ele>
        <time>2018-03-29T13:10:29Z</time>
      </trkpt>
      <trkpt lat="44.39381" lon="1.45635">
        <ele>239.85442296822</ele>
        <time>2018-03-29T13:10:33Z</time>
      </trkpt>
      <trkpt lat="44.39381" lon="1.45628">
        <ele>239.70639946189</ele>
        <time>2018-03-29T13:10:38Z</time>
      </trkpt>
      <trkpt lat="44.39384" lon="1.45618">
        <ele>239.36931053744</ele>
        <time>2018-03-29T13:10:43Z</time>
      </trkpt>
      <trkpt lat="44.3939" lon="1.45607">
        <ele>239.03192665785</ele>
        <time>2018-03-29T13:10:47Z</time>
      </trkpt>
      <trkpt lat="44.39392" lon="1.45592">
        <ele>238.638135633</ele>
        <time>2018-03-29T13:10:52Z</time>
      </trkpt>
      <trkpt lat="44.39393" lon="1.45586">
        <ele>238.16744394878</ele>
        <time>2018-03-29T13:10:58Z</time>
      </trkpt>
      <trkpt lat="44.39394" lon="1.4558">
        <ele>237.0233229057</ele>
        <time>2018-03-29T13:11:08Z</time>
      </trkpt>
      <trkpt lat="44.39396" lon="1.45571">
        <ele>235.53254811605</ele>
        <time>2018-03-29T13:11:13Z</time>
      </trkpt>
      <trkpt lat="44.39395" lon="1.45565">
        <ele>234.4567106149</ele>
        <time>2018-03-29T13:11:20Z</time>
      </trkpt>
      <trkpt lat="44.39396" lon="1.45559">
        <ele>234.39731753752</ele>
        <time>2018-03-29T13:11:25Z</time>
      </trkpt>
      <trkpt lat="44.39397" lon="1.45554">
        <ele>234.00777637615</ele>
        <time>2018-03-29T13:11:31Z</time>
      </trkpt>
      <trkpt lat="44.39403" lon="1.45547">
        <ele>233.95579330657</ele>
        <time>2018-03-29T13:11:36Z</time>
      </trkpt>
      <trkpt lat="44.39404" lon="1.45542">
        <ele>234.05852087478</ele>
        <time>2018-03-29T13:11:42Z</time>
      </trkpt>
      <trkpt lat="44.39404" lon="1.45534">
        <ele>233.11147891087</ele>
        <time>2018-03-29T13:11:47Z</time>
      </trkpt>
      <trkpt lat="44.39406" lon="1.45529">
        <ele>232.19501315321</ele>
        <time>2018-03-29T13:11:54Z</time>
      </trkpt>
      <trkpt lat="44.39407" lon="1.4552">
        <ele>231.80948893391</ele>
        <time>2018-03-29T13:11:58Z</time>
      </trkpt>
      <trkpt lat="44.39407" lon="1.45511">
        <ele>231.58340251338</ele>
        <time>2018-03-29T13:12:02Z</time>
      </trkpt>
      <trkpt lat="44.39405" lon="1.45504">
        <ele>231.00825944319</ele>
        <time>2018-03-29T13:12:07Z</time>
      </trkpt>
      <trkpt lat="44.39403" lon="1.45498">
        <ele>230.43915094101</ele>
        <time>2018-03-29T13:12:12Z</time>
      </trkpt>
      <trkpt lat="44.39403" lon="1.45493">
        <ele>229.76232367545</ele>
        <time>2018-03-29T13:12:18Z</time>
      </trkpt>
      <trkpt lat="44.39406" lon="1.45488">
        <ele>228.88547959684</ele>
        <time>2018-03-29T13:12:25Z</time>
      </trkpt>
      <trkpt lat="44.39407" lon="1.45482">
        <ele>228.99918305168</ele>
        <time>2018-03-29T13:12:32Z</time>
      </trkpt>
      <trkpt lat="44.39406" lon="1.45475">
        <ele>228.19688221828</ele>
        <time>2018-03-29T13:12:36Z</time>
      </trkpt>
      <trkpt lat="44.3941" lon="1.45468">
        <ele>227.65764969817</ele>
        <time>2018-03-29T13:12:40Z</time>
      </trkpt>
      <trkpt lat="44.39413" lon="1.4546">
        <ele>227.33099070534</ele>
        <time>2018-03-29T13:12:45Z</time>
      </trkpt>
      <trkpt lat="44.39413" lon="1.4545">
        <ele>227.09591677028</ele>
        <time>2018-03-29T13:12:50Z</time>
      </trkpt>
      <trkpt lat="44.39413" lon="1.45445">
        <ele>226.9158423046</ele>
        <time>2018-03-29T13:12:54Z</time>
      </trkpt>
      <trkpt lat="44.39412" lon="1.45439">
        <ele>226.72773255654</ele>
        <time>2018-03-29T13:12:58Z</time>
      </trkpt>
      <trkpt lat="44.39413" lon="1.45433">
        <ele>226.40322253384</ele>
        <time>2018-03-29T13:13:02Z</time>
      </trkpt>
      <trkpt lat="44.39415" lon="1.45427">
        <ele>226.22564795982</ele>
        <time>2018-03-29T13:13:06Z</time>
      </trkpt>
      <trkpt lat="44.39416" lon="1.4542">
        <ele>226.35529084838</ele>
        <time>2018-03-29T13:13:10Z</time>
      </trkpt>
      <trkpt lat="44.39419" lon="1.45414">
        <ele>226.58728054003</ele>
        <time>2018-03-29T13:13:16Z</time>
      </trkpt>
      <trkpt lat="44.39418" lon="1.45408">
        <ele>226.13616440689</ele>
        <time>2018-03-29T13:13:21Z</time>
      </trkpt>
      <trkpt lat="44.39417" lon="1.45403">
        <ele>225.42720141072</ele>
        <time>2018-03-29T13:13:27Z</time>
      </trkpt>
      <trkpt lat="44.39416" lon="1.45397">
        <ele>225.00381435754</ele>
        <time>2018-03-29T13:13:32Z</time>
      </trkpt>
      <trkpt lat="44.39416" lon="1.45391">
        <ele>224.63235784786</ele>
        <time>2018-03-29T13:13:36Z</time>
      </trkpt>
      <trkpt lat="44.39416" lon="1.45385">
        <ele>224.25323953284</ele>
        <time>2018-03-29T13:13:41Z</time>
      </trkpt>
      <trkpt lat="44.39415" lon="1.45379">
        <ele>223.26446749906</ele>
        <time>2018-03-29T13:13:49Z</time>
      </trkpt>
      <trkpt lat="44.39414" lon="1.45374">
        <ele>222.20305408771</ele>
        <time>2018-03-29T13:13:54Z</time>
      </trkpt>
      <trkpt lat="44.39412" lon="1.45359">
        <ele>221.4083001627</ele>
        <time>2018-03-29T13:13:59Z</time>
      </trkpt>
      <trkpt lat="44.39414" lon="1.45353">
        <ele>220.97357393714</ele>
        <time>2018-03-29T13:14:03Z</time>
      </trkpt>
      <trkpt lat="44.39417" lon="1.45349">
        <ele>219.17198875908</ele>
        <time>2018-03-29T13:14:11Z</time>
      </trkpt>
      <trkpt lat="44.39419" lon="1.45344">
        <ele>217.43879526649</ele>
        <time>2018-03-29T13:14:16Z</time>
      </trkpt>
      <trkpt lat="44.39422" lon="1.45337">
        <ele>216.23603395872</ele>
        <time>2018-03-29T13:14:21Z</time>
      </trkpt>
      <trkpt lat="44.39422" lon="1.45331">
        <ele>215.50868182798</ele>
        <time>2018-03-29T13:14:28Z</time>
      </trkpt>
      <trkpt lat="44.39423" lon="1.45325">
        <ele>214.56305941708</ele>
        <time>2018-03-29T13:14:36Z</time>
      </trkpt>
      <trkpt lat="44.39425" lon="1.45319">
        <ele>213.599793076</ele>
        <time>2018-03-29T13:14:44Z</time>
      </trkpt>
      <trkpt lat="44.39426" lon="1.45313">
        <ele>213.17719393443</ele>
        <time>2018-03-29T13:14:49Z</time>
      </trkpt>
      <trkpt lat="44.39428" lon="1.45308">
        <ele>212.54562742723</ele>
        <time>2018-03-29T13:14:58Z</time>
      </trkpt>
      <trkpt lat="44.39429" lon="1.45303">
        <ele>211.2536594698</ele>
        <time>2018-03-29T13:15:05Z</time>
      </trkpt>
      <trkpt lat="44.39432" lon="1.45298">
        <ele>209.40908320073</ele>
        <time>2018-03-29T13:15:17Z</time>
      </trkpt>
      <trkpt lat="44.39435" lon="1.45294">
        <ele>208.40437124471</ele>
        <time>2018-03-29T13:15:25Z</time>
      </trkpt>
      <trkpt lat="44.3944" lon="1.45295">
        <ele>207.58203728565</ele>
        <time>2018-03-29T13:15:29Z</time>
      </trkpt>
      <trkpt lat="44.39448" lon="1.45298">
        <ele>205.89720589599</ele>
        <time>2018-03-29T13:15:33Z</time>
      </trkpt>
      <trkpt lat="44.39453" lon="1.45297">
        <ele>201.96157774681</ele>
        <time>2018-03-29T13:15:43Z</time>
      </trkpt>
      <trkpt lat="44.39456" lon="1.45294">
        <ele>201.63941660326</ele>
        <time>2018-03-29T13:15:48Z</time>
      </trkpt>
      <trkpt lat="44.3946" lon="1.45295">
        <ele>200.56697492867</ele>
        <time>2018-03-29T13:15:55Z</time>
      </trkpt>
      <trkpt lat="44.39465" lon="1.45295">
        <ele>199.91938001135</ele>
        <time>2018-03-29T13:15:59Z</time>
      </trkpt>
      <trkpt lat="44.3947" lon="1.45296">
        <ele>198.92927377045</ele>
        <time>2018-03-29T13:16:03Z</time>
      </trkpt>
      <trkpt lat="44.39474" lon="1.45296">
        <ele>198.17954390955</ele>
        <time>2018-03-29T13:16:09Z</time>
      </trkpt>
      <trkpt lat="44.39479" lon="1.45295">
        <ele>197.28930062162</ele>
        <time>2018-03-29T13:16:14Z</time>
      </trkpt>
      <trkpt lat="44.39483" lon="1.45297">
        <ele>196.89704107691</ele>
        <time>2018-03-29T13:16:20Z</time>
      </trkpt>
      <trkpt lat="44.39488" lon="1.45299">
        <ele>196.24203035116</ele>
        <time>2018-03-29T13:16:24Z</time>
      </trkpt>
      <trkpt lat="44.39492" lon="1.453">
        <ele>194.87018626504</ele>
        <time>2018-03-29T13:16:31Z</time>
      </trkpt>
      <trkpt lat="44.39495" lon="1.45302">
        <ele>194.53176474719</ele>
        <time>2018-03-29T13:16:35Z</time>
      </trkpt>
      <trkpt lat="44.39498" lon="1.45303">
        <ele>193.41016420918</ele>
        <time>2018-03-29T13:16:40Z</time>
      </trkpt>
      <trkpt lat="44.39503" lon="1.45304">
        <ele>193.13524756612</ele>
        <time>2018-03-29T13:16:45Z</time>
      </trkpt>
      <trkpt lat="44.39506" lon="1.45307">
        <ele>192.53884490491</ele>
        <time>2018-03-29T13:16:53Z</time>
      </trkpt>
      <trkpt lat="44.39513" lon="1.45313">
        <ele>191.42875487043</ele>
        <time>2018-03-29T13:16:57Z</time>
      </trkpt>
      <trkpt lat="44.39521" lon="1.4532">
        <ele>190.69517044532</ele>
        <time>2018-03-29T13:17:02Z</time>
      </trkpt>
      <trkpt lat="44.39525" lon="1.45321">
        <ele>189.07252954626</ele>
        <time>2018-03-29T13:17:11Z</time>
      </trkpt>
      <trkpt lat="44.39529" lon="1.45321">
        <ele>189.15514406753</ele>
        <time>2018-03-29T13:17:18Z</time>
      </trkpt>
      <trkpt lat="44.39534" lon="1.45322">
        <ele>188.85333421065</ele>
        <time>2018-03-29T13:17:23Z</time>
      </trkpt>
      <trkpt lat="44.39538" lon="1.45323">
        <ele>188.71499078343</ele>
        <time>2018-03-29T13:17:29Z</time>
      </trkpt>
      <trkpt lat="44.39542" lon="1.45323">
        <ele>188.40096456523</ele>
        <time>2018-03-29T13:17:34Z</time>
      </trkpt>
      <trkpt lat="44.39548" lon="1.45325">
        <ele>189.35169079208</ele>
        <time>2018-03-29T13:17:39Z</time>
      </trkpt>
      <trkpt lat="44.39558" lon="1.45328">
        <ele>189.77243645889</ele>
        <time>2018-03-29T13:17:44Z</time>
      </trkpt>
      <trkpt lat="44.39562" lon="1.4533">
        <ele>190.80850534557</ele>
        <time>2018-03-29T13:17:51Z</time>
      </trkpt>
      <trkpt lat="44.39566" lon="1.45331">
        <ele>191.5184993405</ele>
        <time>2018-03-29T13:17:55Z</time>
      </trkpt>
      <trkpt lat="44.39574" lon="1.45336">
        <ele>192.02576099517</ele>
        <time>2018-03-29T13:18:00Z</time>
      </trkpt>
      <trkpt lat="44.39582" lon="1.45342">
        <ele>191.70048369367</ele>
        <time>2018-03-29T13:18:05Z</time>
      </trkpt>
      <trkpt lat="44.39587" lon="1.45345">
        <ele>191.60497388223</ele>
        <time>2018-03-29T13:18:09Z</time>
      </trkpt>
      <trkpt lat="44.39593" lon="1.45351">
        <ele>191.7319073551</ele>
        <time>2018-03-29T13:18:14Z</time>
      </trkpt>
      <trkpt lat="44.39596" lon="1.45352">
        <ele>192.46486660964</ele>
        <time>2018-03-29T13:18:32Z</time>
      </trkpt>
      <trkpt lat="44.396" lon="1.45351">
        <ele>192.74131060547</ele>
        <time>2018-03-29T13:18:40Z</time>
      </trkpt>
      <trkpt lat="44.39606" lon="1.45352">
        <ele>192.18664970493</ele>
        <time>2018-03-29T13:18:44Z</time>
      </trkpt>
      <trkpt lat="44.3961" lon="1.45356">
        <ele>191.60623387682</ele>
        <time>2018-03-29T13:18:48Z</time>
      </trkpt>
      <trkpt lat="44.39619" lon="1.45362">
        <ele>191.49799399638</ele>
        <time>2018-03-29T13:18:53Z</time>
      </trkpt>
      <trkpt lat="44.39622" lon="1.45364">
        <ele>191.39220213126</ele>
        <time>2018-03-29T13:19:00Z</time>
      </trkpt>
      <trkpt lat="44.39626" lon="1.45366">
        <ele>190.28508671202</ele>
        <time>2018-03-29T13:19:15Z</time>
      </trkpt>
      <trkpt lat="44.3963" lon="1.45366">
        <ele>189.75900434112</ele>
        <time>2018-03-29T13:19:20Z</time>
      </trkpt>
      <trkpt lat="44.39634" lon="1.45368">
        <ele>189.19535053442</ele>
        <time>2018-03-29T13:19:25Z</time>
      </trkpt>
      <trkpt lat="44.3964" lon="1.4537">
        <ele>188.21675192281</ele>
        <time>2018-03-29T13:19:30Z</time>
      </trkpt>
      <trkpt lat="44.39644" lon="1.45371">
        <ele>186.82811768508</ele>
        <time>2018-03-29T13:19:37Z</time>
      </trkpt>
      <trkpt lat="44.39649" lon="1.45374">
        <ele>185.99547221184</ele>
        <time>2018-03-29T13:19:42Z</time>
      </trkpt>
      <trkpt lat="44.39652" lon="1.45378">
        <ele>184.30235867882</ele>
        <time>2018-03-29T13:19:53Z</time>
      </trkpt>
      <trkpt lat="44.39655" lon="1.45382">
        <ele>183.43805483263</ele>
        <time>2018-03-29T13:20:08Z</time>
      </trkpt>
      <trkpt lat="44.3966" lon="1.45383">
        <ele>183.46869897219</ele>
        <time>2018-03-29T13:20:12Z</time>
      </trkpt>
      <trkpt lat="44.39668" lon="1.45384">
        <ele>183.13739342284</ele>
        <time>2018-03-29T13:20:16Z</time>
      </trkpt>
      <trkpt lat="44.39673" lon="1.45384">
        <ele>182.98082358508</ele>
        <time>2018-03-29T13:20:32Z</time>
      </trkpt>
      <trkpt lat="44.39676" lon="1.45383">
        <ele>183.94732437805</ele>
        <time>2018-03-29T13:21:36Z</time>
      </trkpt>
      <trkpt lat="44.39682" lon="1.45381">
        <ele>183.85485680751</ele>
        <time>2018-03-29T13:21:40Z</time>
      </trkpt>
      <trkpt lat="44.39685" lon="1.45381">
        <ele>181.08057120323</ele>
        <time>2018-03-29T13:24:45Z</time>
      </trkpt>
      <trkpt lat="44.39687" lon="1.4538">
        <ele>181.48765946678</ele>
        <time>2018-03-29T13:24:49Z</time>
      </trkpt>
      <trkpt lat="44.3969" lon="1.45378">
        <ele>181.49699116441</ele>
        <time>2018-03-29T13:25:13Z</time>
      </trkpt>
      <trkpt lat="44.39694" lon="1.45362">
        <ele>181.24845398875</ele>
        <time>2018-03-29T13:25:17Z</time>
      </trkpt>
      <trkpt lat="44.39697" lon="1.45358">
        <ele>180.77743347475</ele>
        <time>2018-03-29T13:25:23Z</time>
      </trkpt>
      <trkpt lat="44.39702" lon="1.45351">
        <ele>179.92440853571</ele>
        <time>2018-03-29T13:25:28Z</time>
      </trkpt>
      <trkpt lat="44.39706" lon="1.45345">
        <ele>179.26500270655</ele>
        <time>2018-03-29T13:25:32Z</time>
      </trkpt>
      <trkpt lat="44.39709" lon="1.45339">
        <ele>179.06377294917</ele>
        <time>2018-03-29T13:25:37Z</time>
      </trkpt>
      <trkpt lat="44.39713" lon="1.45328">
        <ele>178.75167781748</ele>
        <time>2018-03-29T13:25:41Z</time>
      </trkpt>
      <trkpt lat="44.39717" lon="1.45316">
        <ele>178.40982301201</ele>
        <time>2018-03-29T13:25:46Z</time>
      </trkpt>
      <trkpt lat="44.39723" lon="1.45304">
        <ele>178.21399513027</ele>
        <time>2018-03-29T13:25:51Z</time>
      </trkpt>
      <trkpt lat="44.39726" lon="1.453">
        <ele>178.02932135097</ele>
        <time>2018-03-29T13:25:55Z</time>
      </trkpt>
      <trkpt lat="44.39729" lon="1.45297">
        <ele>178.24419472485</ele>
        <time>2018-03-29T13:26:01Z</time>
      </trkpt>
      <trkpt lat="44.39733" lon="1.45293">
        <ele>178.30822792216</ele>
        <time>2018-03-29T13:26:05Z</time>
      </trkpt>
      <trkpt lat="44.39738" lon="1.45288">
        <ele>178.56874572402</ele>
        <time>2018-03-29T13:26:10Z</time>
      </trkpt>
      <trkpt lat="44.39742" lon="1.45287">
        <ele>179.02365972032</ele>
        <time>2018-03-29T13:26:16Z</time>
      </trkpt>
      <trkpt lat="44.39746" lon="1.45283">
        <ele>179.26109873937</ele>
        <time>2018-03-29T13:26:22Z</time>
      </trkpt>
      <trkpt lat="44.39753" lon="1.45278">
        <ele>179.32919837666</ele>
        <time>2018-03-29T13:26:27Z</time>
      </trkpt>
      <trkpt lat="44.39755" lon="1.45274">
        <ele>179.1121604035</ele>
        <time>2018-03-29T13:26:34Z</time>
      </trkpt>
      <trkpt lat="44.39759" lon="1.45273">
        <ele>178.59295329808</ele>
        <time>2018-03-29T13:26:38Z</time>
      </trkpt>
      <trkpt lat="44.39764" lon="1.45272">
        <ele>178.33772104725</ele>
        <time>2018-03-29T13:26:43Z</time>
      </trkpt>
      <trkpt lat="44.39769" lon="1.45274">
        <ele>178.10235081421</ele>
        <time>2018-03-29T13:26:47Z</time>
      </trkpt>
      <trkpt lat="44.39773" lon="1.45272">
        <ele>177.51931179542</ele>
        <time>2018-03-29T13:26:53Z</time>
      </trkpt>
      <trkpt lat="44.39776" lon="1.45274">
        <ele>176.99537355446</ele>
        <time>2018-03-29T13:26:57Z</time>
      </trkpt>
      <trkpt lat="44.39784" lon="1.45274">
        <ele>176.7018256809</ele>
        <time>2018-03-29T13:27:01Z</time>
      </trkpt>
      <trkpt lat="44.3979" lon="1.45273">
        <ele>176.1439628663</ele>
        <time>2018-03-29T13:27:05Z</time>
      </trkpt>
      <trkpt lat="44.398" lon="1.45272">
        <ele>175.63812267448</ele>
        <time>2018-03-29T13:27:10Z</time>
      </trkpt>
      <trkpt lat="44.39805" lon="1.45274">
        <ele>175.74290383518</ele>
        <time>2018-03-29T13:27:14Z</time>
      </trkpt>
      <trkpt lat="44.3981" lon="1.45275">
        <ele>175.33841652084</ele>
        <time>2018-03-29T13:27:19Z</time>
      </trkpt>
      <trkpt lat="44.39815" lon="1.45274">
        <ele>174.76899155836</ele>
        <time>2018-03-29T13:27:23Z</time>
      </trkpt>
      <trkpt lat="44.39819" lon="1.45273">
        <ele>174.51083595863</ele>
        <time>2018-03-29T13:27:27Z</time>
      </trkpt>
      <trkpt lat="44.39828" lon="1.45274">
        <ele>173.81945038329</ele>
        <time>2018-03-29T13:27:32Z</time>
      </trkpt>
      <trkpt lat="44.39832" lon="1.45276">
        <ele>173.0052415158</ele>
        <time>2018-03-29T13:27:36Z</time>
      </trkpt>
      <trkpt lat="44.39836" lon="1.45276">
        <ele>172.1967219716</ele>
        <time>2018-03-29T13:27:41Z</time>
      </trkpt>
      <trkpt lat="44.39842" lon="1.45276">
        <ele>171.44999587097</ele>
        <time>2018-03-29T13:27:46Z</time>
      </trkpt>
      <trkpt lat="44.39846" lon="1.45275">
        <ele>170.95401644363</ele>
        <time>2018-03-29T13:27:50Z</time>
      </trkpt>
      <trkpt lat="44.39853" lon="1.45273">
        <ele>170.49125269089</ele>
        <time>2018-03-29T13:27:55Z</time>
      </trkpt>
      <trkpt lat="44.39857" lon="1.45272">
        <ele>170.49577665433</ele>
        <time>2018-03-29T13:27:59Z</time>
      </trkpt>
      <trkpt lat="44.39861" lon="1.45271">
        <ele>170.44874159628</ele>
        <time>2018-03-29T13:28:04Z</time>
      </trkpt>
      <trkpt lat="44.39866" lon="1.45268">
        <ele>170.29395418245</ele>
        <time>2018-03-29T13:28:09Z</time>
      </trkpt>
      <trkpt lat="44.39871" lon="1.45265">
        <ele>169.96594973997</ele>
        <time>2018-03-29T13:28:13Z</time>
      </trkpt>
      <trkpt lat="44.39875" lon="1.45265">
        <ele>169.47201291239</ele>
        <time>2018-03-29T13:28:18Z</time>
      </trkpt>
      <trkpt lat="44.39881" lon="1.45261">
        <ele>169.37380070092</ele>
        <time>2018-03-29T13:28:23Z</time>
      </trkpt>
      <trkpt lat="44.39883" lon="1.4526">
        <ele>169.55559984423</ele>
        <time>2018-03-29T13:28:28Z</time>
      </trkpt>
      <trkpt lat="44.39891" lon="1.45256">
        <ele>169.99420246663</ele>
        <time>2018-03-29T13:28:33Z</time>
      </trkpt>
      <trkpt lat="44.39896" lon="1.45253">
        <ele>171.65992146635</ele>
        <time>2018-03-29T13:28:38Z</time>
      </trkpt>
      <trkpt lat="44.39902" lon="1.45249">
        <ele>173.22341360886</ele>
        <time>2018-03-29T13:28:42Z</time>
      </trkpt>
      <trkpt lat="44.39908" lon="1.45246">
        <ele>174.28052627685</ele>
        <time>2018-03-29T13:28:47Z</time>
      </trkpt>
      <trkpt lat="44.39914" lon="1.45242">
        <ele>174.57681588888</ele>
        <time>2018-03-29T13:28:51Z</time>
      </trkpt>
      <trkpt lat="44.39923" lon="1.45238">
        <ele>174.23892176339</ele>
        <time>2018-03-29T13:28:55Z</time>
      </trkpt>
      <trkpt lat="44.39927" lon="1.45236">
        <ele>173.89786703933</ele>
        <time>2018-03-29T13:29:00Z</time>
      </trkpt>
      <trkpt lat="44.39931" lon="1.45236">
        <ele>173.82344591165</ele>
        <time>2018-03-29T13:29:06Z</time>
      </trkpt>
      <trkpt lat="44.39935" lon="1.45234">
        <ele>173.51422397839</ele>
        <time>2018-03-29T13:29:12Z</time>
      </trkpt>
      <trkpt lat="44.39938" lon="1.4523">
        <ele>173.69930241874</ele>
        <time>2018-03-29T13:29:20Z</time>
      </trkpt>
      <trkpt lat="44.39942" lon="1.45229">
        <ele>174.19930941979</ele>
        <time>2018-03-29T13:29:27Z</time>
      </trkpt>
      <trkpt lat="44.39946" lon="1.45227">
        <ele>174.95430181558</ele>
        <time>2018-03-29T13:29:33Z</time>
      </trkpt>
      <trkpt lat="44.39952" lon="1.45222">
        <ele>176.04397738708</ele>
        <time>2018-03-29T13:29:38Z</time>
      </trkpt>
      <trkpt lat="44.39956" lon="1.4522">
        <ele>176.2790612681</ele>
        <time>2018-03-29T13:29:42Z</time>
      </trkpt>
      <trkpt lat="44.39962" lon="1.45217">
        <ele>176.27926493768</ele>
        <time>2018-03-29T13:29:47Z</time>
      </trkpt>
      <trkpt lat="44.39966" lon="1.45215">
        <ele>176.49467167367</ele>
        <time>2018-03-29T13:29:53Z</time>
      </trkpt>
      <trkpt lat="44.39971" lon="1.4521">
        <ele>176.79511191935</ele>
        <time>2018-03-29T13:29:57Z</time>
      </trkpt>
      <trkpt lat="44.39978" lon="1.45208">
        <ele>177.14481367738</ele>
        <time>2018-03-29T13:30:02Z</time>
      </trkpt>
      <trkpt lat="44.39981" lon="1.45206">
        <ele>177.99381607077</ele>
        <time>2018-03-29T13:30:06Z</time>
      </trkpt>
      <trkpt lat="44.39984" lon="1.45204">
        <ele>178.58432423314</ele>
        <time>2018-03-29T13:30:12Z</time>
      </trkpt>
      <trkpt lat="44.39991" lon="1.45197">
        <ele>179.04252751047</ele>
        <time>2018-03-29T13:30:17Z</time>
      </trkpt>
      <trkpt lat="44.39996" lon="1.45191">
        <ele>179.77890812661</ele>
        <time>2018-03-29T13:30:21Z</time>
      </trkpt>
      <trkpt lat="44.40004" lon="1.45183">
        <ele>180.35544464917</ele>
        <time>2018-03-29T13:30:26Z</time>
      </trkpt>
      <trkpt lat="44.40008" lon="1.4518">
        <ele>180.22445666404</ele>
        <time>2018-03-29T13:30:33Z</time>
      </trkpt>
      <trkpt lat="44.40017" lon="1.45173">
        <ele>179.83519576345</ele>
        <time>2018-03-29T13:30:38Z</time>
      </trkpt>
      <trkpt lat="44.40021" lon="1.45169">
        <ele>179.88008280712</ele>
        <time>2018-03-29T13:30:43Z</time>
      </trkpt>
      <trkpt lat="44.40029" lon="1.45165">
        <ele>179.66144116</ele>
        <time>2018-03-29T13:30:47Z</time>
      </trkpt>
      <trkpt lat="44.40035" lon="1.45162">
        <ele>178.89046181509</ele>
        <time>2018-03-29T13:30:52Z</time>
      </trkpt>
      <trkpt lat="44.40037" lon="1.45157">
        <ele>178.24637201489</ele>
        <time>2018-03-29T13:30:59Z</time>
      </trkpt>
      <trkpt lat="44.40046" lon="1.45153">
        <ele>178.04366764376</ele>
        <time>2018-03-29T13:31:04Z</time>
      </trkpt>
      <trkpt lat="44.4005" lon="1.45149">
        <ele>177.92671754646</ele>
        <time>2018-03-29T13:31:08Z</time>
      </trkpt>
      <trkpt lat="44.40053" lon="1.45146">
        <ele>177.85423020281</ele>
        <time>2018-03-29T13:31:13Z</time>
      </trkpt>
      <trkpt lat="44.40057" lon="1.45144">
        <ele>177.77788890698</ele>
        <time>2018-03-29T13:31:18Z</time>
      </trkpt>
      <trkpt lat="44.4006" lon="1.45141">
        <ele>177.45975223944</ele>
        <time>2018-03-29T13:31:25Z</time>
      </trkpt>
      <trkpt lat="44.4007" lon="1.45137">
        <ele>177.37444516003</ele>
        <time>2018-03-29T13:31:30Z</time>
      </trkpt>
      <trkpt lat="44.40078" lon="1.45136">
        <ele>177.99111193282</ele>
        <time>2018-03-29T13:31:35Z</time>
      </trkpt>
      <trkpt lat="44.40081" lon="1.45134">
        <ele>178.12163940557</ele>
        <time>2018-03-29T13:31:39Z</time>
      </trkpt>
      <trkpt lat="44.40085" lon="1.45131">
        <ele>178.26683176907</ele>
        <time>2018-03-29T13:31:43Z</time>
      </trkpt>
      <trkpt lat="44.4009" lon="1.45127">
        <ele>178.55328058929</ele>
        <time>2018-03-29T13:31:47Z</time>
      </trkpt>
      <trkpt lat="44.40095" lon="1.45116">
        <ele>178.6077322907</ele>
        <time>2018-03-29T13:31:51Z</time>
      </trkpt>
      <trkpt lat="44.40098" lon="1.45112">
        <ele>179.18299436409</ele>
        <time>2018-03-29T13:32:00Z</time>
      </trkpt>
      <trkpt lat="44.40103" lon="1.45112">
        <ele>179.51297239933</ele>
        <time>2018-03-29T13:32:05Z</time>
      </trkpt>
      <trkpt lat="44.40104" lon="1.45108">
        <ele>180.11118639891</ele>
        <time>2018-03-29T13:32:10Z</time>
      </trkpt>
      <trkpt lat="44.40111" lon="1.45098">
        <ele>180.45530287435</ele>
        <time>2018-03-29T13:32:15Z</time>
      </trkpt>
      <trkpt lat="44.40113" lon="1.45093">
        <ele>179.70936369904</ele>
        <time>2018-03-29T13:32:23Z</time>
      </trkpt>
      <trkpt lat="44.40117" lon="1.4509">
        <ele>179.11345570465</ele>
        <time>2018-03-29T13:32:29Z</time>
      </trkpt>
      <trkpt lat="44.40122" lon="1.45086">
        <ele>178.7416501241</ele>
        <time>2018-03-29T13:32:33Z</time>
      </trkpt>
      <trkpt lat="44.40126" lon="1.45079">
        <ele>178.55656401252</ele>
        <time>2018-03-29T13:32:37Z</time>
      </trkpt>
      <trkpt lat="44.4013" lon="1.45076">
        <ele>178.24571751472</ele>
        <time>2018-03-29T13:32:42Z</time>
      </trkpt>
      <trkpt lat="44.40132" lon="1.45072">
        <ele>177.66975984277</ele>
        <time>2018-03-29T13:32:47Z</time>
      </trkpt>
      <trkpt lat="44.40141" lon="1.45063">
        <ele>177.31985816146</ele>
        <time>2018-03-29T13:32:52Z</time>
      </trkpt>
      <trkpt lat="44.40144" lon="1.45058">
        <ele>176.61338198002</ele>
        <time>2018-03-29T13:32:56Z</time>
      </trkpt>
      <trkpt lat="44.40146" lon="1.45054">
        <ele>176.04024717679</ele>
        <time>2018-03-29T13:33:01Z</time>
      </trkpt>
      <trkpt lat="44.40149" lon="1.45049">
        <ele>175.65386793746</ele>
        <time>2018-03-29T13:33:06Z</time>
      </trkpt>
      <trkpt lat="44.40154" lon="1.45043">
        <ele>175.19848350427</ele>
        <time>2018-03-29T13:33:11Z</time>
      </trkpt>
      <trkpt lat="44.40156" lon="1.45039">
        <ele>174.68416269655</ele>
        <time>2018-03-29T13:33:15Z</time>
      </trkpt>
      <trkpt lat="44.40156" lon="1.45032">
        <ele>173.9021740886</ele>
        <time>2018-03-29T13:33:19Z</time>
      </trkpt>
      <trkpt lat="44.40161" lon="1.45026">
        <ele>172.87419577572</ele>
        <time>2018-03-29T13:33:24Z</time>
      </trkpt>
      <trkpt lat="44.40164" lon="1.45023">
        <ele>171.66779587876</ele>
        <time>2018-03-29T13:33:29Z</time>
      </trkpt>
      <trkpt lat="44.40169" lon="1.45022">
        <ele>170.60244131736</ele>
        <time>2018-03-29T13:33:33Z</time>
      </trkpt>
      <trkpt lat="44.40172" lon="1.45016">
        <ele>169.67751574081</ele>
        <time>2018-03-29T13:33:38Z</time>
      </trkpt>
      <trkpt lat="44.40175" lon="1.45013">
        <ele>169.12723596578</ele>
        <time>2018-03-29T13:33:44Z</time>
      </trkpt>
      <trkpt lat="44.40179" lon="1.45008">
        <ele>169.19613745758</ele>
        <time>2018-03-29T13:33:49Z</time>
      </trkpt>
      <trkpt lat="44.40182" lon="1.45005">
        <ele>170.03422128946</ele>
        <time>2018-03-29T13:33:54Z</time>
      </trkpt>
      <trkpt lat="44.40185" lon="1.45001">
        <ele>170.75829971502</ele>
        <time>2018-03-29T13:33:58Z</time>
      </trkpt>
      <trkpt lat="44.4019" lon="1.44992">
        <ele>170.92199144629</ele>
        <time>2018-03-29T13:34:03Z</time>
      </trkpt>
      <trkpt lat="44.402" lon="1.44986">
        <ele>171.02555765969</ele>
        <time>2018-03-29T13:34:07Z</time>
      </trkpt>
      <trkpt lat="44.40204" lon="1.44982">
        <ele>170.85360776853</ele>
        <time>2018-03-29T13:34:12Z</time>
      </trkpt>
      <trkpt lat="44.40207" lon="1.44973">
        <ele>170.77998880809</ele>
        <time>2018-03-29T13:34:16Z</time>
      </trkpt>
      <trkpt lat="44.4021" lon="1.44969">
        <ele>169.99714621236</ele>
        <time>2018-03-29T13:34:21Z</time>
      </trkpt>
      <trkpt lat="44.40214" lon="1.44961">
        <ele>169.10221987704</ele>
        <time>2018-03-29T13:34:25Z</time>
      </trkpt>
      <trkpt lat="44.40217" lon="1.44956">
        <ele>168.16968538653</ele>
        <time>2018-03-29T13:34:30Z</time>
      </trkpt>
      <trkpt lat="44.40219" lon="1.44952">
        <ele>167.29849491537</ele>
        <time>2018-03-29T13:34:35Z</time>
      </trkpt>
      <trkpt lat="44.40221" lon="1.44942">
        <ele>166.06291877095</ele>
        <time>2018-03-29T13:34:39Z</time>
      </trkpt>
      <trkpt lat="44.40225" lon="1.44939">
        <ele>164.63999993772</ele>
        <time>2018-03-29T13:34:45Z</time>
      </trkpt>
      <trkpt lat="44.40228" lon="1.44934">
        <ele>163.59886554163</ele>
        <time>2018-03-29T13:34:50Z</time>
      </trkpt>
      <trkpt lat="44.40233" lon="1.44929">
        <ele>162.44607233051</ele>
        <time>2018-03-29T13:34:55Z</time>
      </trkpt>
      <trkpt lat="44.40236" lon="1.44922">
        <ele>161.44867273987</ele>
        <time>2018-03-29T13:34:59Z</time>
      </trkpt>
      <trkpt lat="44.40239" lon="1.44916">
        <ele>160.97176116684</ele>
        <time>2018-03-29T13:35:03Z</time>
      </trkpt>
      <trkpt lat="44.40242" lon="1.44905">
        <ele>160.06840400334</ele>
        <time>2018-03-29T13:35:08Z</time>
      </trkpt>
      <trkpt lat="44.40244" lon="1.44898">
        <ele>159.25884321233</ele>
        <time>2018-03-29T13:35:12Z</time>
      </trkpt>
      <trkpt lat="44.40244" lon="1.44892">
        <ele>158.94317363647</ele>
        <time>2018-03-29T13:35:18Z</time>
      </trkpt>
      <trkpt lat="44.40248" lon="1.44888">
        <ele>158.5527207038</ele>
        <time>2018-03-29T13:35:22Z</time>
      </trkpt>
      <trkpt lat="44.40251" lon="1.44884">
        <ele>157.82074760504</ele>
        <time>2018-03-29T13:35:27Z</time>
      </trkpt>
      <trkpt lat="44.40253" lon="1.44879">
        <ele>156.85142343921</ele>
        <time>2018-03-29T13:35:32Z</time>
      </trkpt>
      <trkpt lat="44.40258" lon="1.44874">
        <ele>156.4782266199</ele>
        <time>2018-03-29T13:35:37Z</time>
      </trkpt>
      <trkpt lat="44.40259" lon="1.44868">
        <ele>156.16683489776</ele>
        <time>2018-03-29T13:35:42Z</time>
      </trkpt>
      <trkpt lat="44.40266" lon="1.44861">
        <ele>156.31041712529</ele>
        <time>2018-03-29T13:35:46Z</time>
      </trkpt>
      <trkpt lat="44.40271" lon="1.44851">
        <ele>156.34632064602</ele>
        <time>2018-03-29T13:35:50Z</time>
      </trkpt>
      <trkpt lat="44.40273" lon="1.44846">
        <ele>156.28670947401</ele>
        <time>2018-03-29T13:35:55Z</time>
      </trkpt>
      <trkpt lat="44.40276" lon="1.44842">
        <ele>156.06734272954</ele>
        <time>2018-03-29T13:36:00Z</time>
      </trkpt>
      <trkpt lat="44.40279" lon="1.44836">
        <ele>156.12189963471</ele>
        <time>2018-03-29T13:36:05Z</time>
      </trkpt>
      <trkpt lat="44.40281" lon="1.44832">
        <ele>156.71004889797</ele>
        <time>2018-03-29T13:36:11Z</time>
      </trkpt>
      <trkpt lat="44.40288" lon="1.4482">
        <ele>157.31333013832</ele>
        <time>2018-03-29T13:36:16Z</time>
      </trkpt>
      <trkpt lat="44.40289" lon="1.44813">
        <ele>158.13741649267</ele>
        <time>2018-03-29T13:36:20Z</time>
      </trkpt>
      <trkpt lat="44.40291" lon="1.44805">
        <ele>158.73076261226</ele>
        <time>2018-03-29T13:36:24Z</time>
      </trkpt>
      <trkpt lat="44.40292" lon="1.44796">
        <ele>159.13468608196</ele>
        <time>2018-03-29T13:36:28Z</time>
      </trkpt>
      <trkpt lat="44.40294" lon="1.44793">
        <ele>159.25170597423</ele>
        <time>2018-03-29T13:36:33Z</time>
      </trkpt>
      <trkpt lat="44.40295" lon="1.44788">
        <ele>159.43559434779</ele>
        <time>2018-03-29T13:36:37Z</time>
      </trkpt>
      <trkpt lat="44.40298" lon="1.44783">
        <ele>159.77474205303</ele>
        <time>2018-03-29T13:36:41Z</time>
      </trkpt>
      <trkpt lat="44.403" lon="1.44777">
        <ele>160.56659082091</ele>
        <time>2018-03-29T13:36:45Z</time>
      </trkpt>
      <trkpt lat="44.40307" lon="1.44765">
        <ele>161.39755865362</ele>
        <time>2018-03-29T13:36:49Z</time>
      </trkpt>
      <trkpt lat="44.40312" lon="1.44756">
        <ele>161.73847887139</ele>
        <time>2018-03-29T13:36:54Z</time>
      </trkpt>
      <trkpt lat="44.40313" lon="1.4475">
        <ele>161.67215645188</ele>
        <time>2018-03-29T13:36:59Z</time>
      </trkpt>
      <trkpt lat="44.40317" lon="1.44739">
        <ele>161.46048603038</ele>
        <time>2018-03-29T13:37:03Z</time>
      </trkpt>
      <trkpt lat="44.40319" lon="1.44735">
        <ele>161.29250161281</ele>
        <time>2018-03-29T13:37:09Z</time>
      </trkpt>
      <trkpt lat="44.40325" lon="1.44724">
        <ele>160.66415750272</ele>
        <time>2018-03-29T13:37:14Z</time>
      </trkpt>
      <trkpt lat="44.40326" lon="1.44718">
        <ele>160.08938404535</ele>
        <time>2018-03-29T13:37:19Z</time>
      </trkpt>
      <trkpt lat="44.40329" lon="1.44715">
        <ele>159.73134167993</ele>
        <time>2018-03-29T13:37:25Z</time>
      </trkpt>
      <trkpt lat="44.40332" lon="1.44711">
        <ele>159.93210579593</ele>
        <time>2018-03-29T13:37:29Z</time>
      </trkpt>
      <trkpt lat="44.40335" lon="1.44699">
        <ele>160.03873000314</ele>
        <time>2018-03-29T13:37:34Z</time>
      </trkpt>
      <trkpt lat="44.40336" lon="1.44689">
        <ele>160.66565802058</ele>
        <time>2018-03-29T13:37:39Z</time>
      </trkpt>
      <trkpt lat="44.40339" lon="1.44685">
        <ele>160.87444242597</ele>
        <time>2018-03-29T13:37:43Z</time>
      </trkpt>
      <trkpt lat="44.40344" lon="1.44679">
        <ele>161.27013175684</ele>
        <time>2018-03-29T13:37:48Z</time>
      </trkpt>
      <trkpt lat="44.40346" lon="1.44673">
        <ele>161.42685050099</ele>
        <time>2018-03-29T13:37:52Z</time>
      </trkpt>
      <trkpt lat="44.40348" lon="1.44667">
        <ele>161.52853850898</ele>
        <time>2018-03-29T13:37:57Z</time>
      </trkpt>
      <trkpt lat="44.40351" lon="1.44663">
        <ele>160.80253527264</ele>
        <time>2018-03-29T13:38:03Z</time>
      </trkpt>
      <trkpt lat="44.40354" lon="1.44658">
        <ele>160.64129369407</ele>
        <time>2018-03-29T13:38:07Z</time>
      </trkpt>
      <trkpt lat="44.4036" lon="1.44648">
        <ele>160.49121146431</ele>
        <time>2018-03-29T13:38:12Z</time>
      </trkpt>
      <trkpt lat="44.40363" lon="1.44645">
        <ele>160.33761230463</ele>
        <time>2018-03-29T13:38:18Z</time>
      </trkpt>
      <trkpt lat="44.40367" lon="1.44645">
        <ele>160.09167615275</ele>
        <time>2018-03-29T13:38:23Z</time>
      </trkpt>
      <trkpt lat="44.40372" lon="1.44646">
        <ele>159.62079785232</ele>
        <time>2018-03-29T13:38:28Z</time>
      </trkpt>
      <trkpt lat="44.40377" lon="1.44642">
        <ele>159.65207145227</ele>
        <time>2018-03-29T13:38:32Z</time>
      </trkpt>
      <trkpt lat="44.40383" lon="1.44641">
        <ele>159.70032684491</ele>
        <time>2018-03-29T13:38:37Z</time>
      </trkpt>
      <trkpt lat="44.40388" lon="1.44641">
        <ele>160.07680539293</ele>
        <time>2018-03-29T13:38:42Z</time>
      </trkpt>
      <trkpt lat="44.40392" lon="1.44642">
        <ele>160.93546605703</ele>
        <time>2018-03-29T13:38:48Z</time>
      </trkpt>
      <trkpt lat="44.40396" lon="1.44644">
        <ele>161.70746521183</ele>
        <time>2018-03-29T13:38:53Z</time>
      </trkpt>
      <trkpt lat="44.40399" lon="1.44646">
        <ele>162.30017228829</ele>
        <time>2018-03-29T13:38:58Z</time>
      </trkpt>
      <trkpt lat="44.40404" lon="1.4465">
        <ele>162.9678932312</ele>
        <time>2018-03-29T13:39:03Z</time>
      </trkpt>
      <trkpt lat="44.40408" lon="1.44651">
        <ele>163.41121626372</ele>
        <time>2018-03-29T13:39:07Z</time>
      </trkpt>
      <trkpt lat="44.40413" lon="1.44656">
        <ele>163.91669980634</ele>
        <time>2018-03-29T13:39:11Z</time>
      </trkpt>
      <trkpt lat="44.40416" lon="1.44662">
        <ele>164.14258067474</ele>
        <time>2018-03-29T13:39:15Z</time>
      </trkpt>
      <trkpt lat="44.40419" lon="1.44666">
        <ele>164.1422192843</ele>
        <time>2018-03-29T13:39:19Z</time>
      </trkpt>
      <trkpt lat="44.40423" lon="1.44673">
        <ele>163.8820481547</ele>
        <time>2018-03-29T13:39:24Z</time>
      </trkpt>
      <trkpt lat="44.40426" lon="1.44676">
        <ele>164.51089554321</ele>
        <time>2018-03-29T13:39:29Z</time>
      </trkpt>
      <trkpt lat="44.4043" lon="1.44679">
        <ele>165.3649227515</ele>
        <time>2018-03-29T13:39:35Z</time>
      </trkpt>
      <trkpt lat="44.40433" lon="1.44681">
        <ele>165.63352778649</ele>
        <time>2018-03-29T13:39:39Z</time>
      </trkpt>
      <trkpt lat="44.40438" lon="1.44684">
        <ele>165.75082782758</ele>
        <time>2018-03-29T13:39:43Z</time>
      </trkpt>
      <trkpt lat="44.40439" lon="1.4469">
        <ele>165.64870156809</ele>
        <time>2018-03-29T13:43:21Z</time>
      </trkpt>
      <trkpt lat="44.40441" lon="1.44694">
        <ele>165.17320740717</ele>
        <time>2018-03-29T13:43:58Z</time>
      </trkpt>
      <trkpt lat="44.40442" lon="1.447">
        <ele>163.83406496158</ele>
        <time>2018-03-29T13:44:03Z</time>
      </trkpt>
      <trkpt lat="44.40441" lon="1.44705">
        <ele>162.43582817677</ele>
        <time>2018-03-29T13:44:15Z</time>
      </trkpt>
      <trkpt lat="44.40439" lon="1.44711">
        <ele>164.44310920861</ele>
        <time>2018-03-29T13:44:23Z</time>
      </trkpt>
      <trkpt lat="44.40442" lon="1.44716">
        <ele>166.25139673846</ele>
        <time>2018-03-29T13:44:30Z</time>
      </trkpt>
      <trkpt lat="44.40443" lon="1.4472">
        <ele>167.06859588394</ele>
        <time>2018-03-29T13:44:35Z</time>
      </trkpt>
      <trkpt lat="44.40446" lon="1.44724">
        <ele>167.28416484062</ele>
        <time>2018-03-29T13:44:39Z</time>
      </trkpt>
      <trkpt lat="44.40448" lon="1.4473">
        <ele>167.73977933483</ele>
        <time>2018-03-29T13:44:43Z</time>
      </trkpt>
      <trkpt lat="44.40448" lon="1.44735">
        <ele>168.20953596265</ele>
        <time>2018-03-29T13:44:48Z</time>
      </trkpt>
      <trkpt lat="44.40449" lon="1.44741">
        <ele>169.19123257808</ele>
        <time>2018-03-29T13:44:54Z</time>
      </trkpt>
      <trkpt lat="44.4045" lon="1.44748">
        <ele>170.14094993918</ele>
        <time>2018-03-29T13:44:59Z</time>
      </trkpt>
      <trkpt lat="44.40451" lon="1.44755">
        <ele>171.02511717731</ele>
        <time>2018-03-29T13:45:04Z</time>
      </trkpt>
      <trkpt lat="44.40452" lon="1.44762">
        <ele>171.9849905958</ele>
        <time>2018-03-29T13:45:09Z</time>
      </trkpt>
      <trkpt lat="44.40452" lon="1.44768">
        <ele>172.49050046401</ele>
        <time>2018-03-29T13:45:13Z</time>
      </trkpt>
      <trkpt lat="44.40452" lon="1.44775">
        <ele>172.56352165989</ele>
        <time>2018-03-29T13:45:17Z</time>
      </trkpt>
      <trkpt lat="44.40454" lon="1.44781">
        <ele>172.73016939965</ele>
        <time>2018-03-29T13:45:21Z</time>
      </trkpt>
      <trkpt lat="44.40454" lon="1.44793">
        <ele>173.03201958404</ele>
        <time>2018-03-29T13:45:26Z</time>
      </trkpt>
      <trkpt lat="44.40453" lon="1.44799">
        <ele>173.10102245936</ele>
        <time>2018-03-29T13:45:31Z</time>
      </trkpt>
      <trkpt lat="44.40454" lon="1.44805">
        <ele>172.93137463724</ele>
        <time>2018-03-29T13:45:35Z</time>
      </trkpt>
      <trkpt lat="44.40455" lon="1.4481">
        <ele>173.01876624375</ele>
        <time>2018-03-29T13:45:39Z</time>
      </trkpt>
      <trkpt lat="44.40455" lon="1.44816">
        <ele>173.4446177718</ele>
        <time>2018-03-29T13:45:44Z</time>
      </trkpt>
      <trkpt lat="44.40458" lon="1.44821">
        <ele>173.58735152511</ele>
        <time>2018-03-29T13:45:49Z</time>
      </trkpt>
      <trkpt lat="44.4046" lon="1.44824">
        <ele>173.88316974669</ele>
        <time>2018-03-29T13:45:53Z</time>
      </trkpt>
      <trkpt lat="44.40462" lon="1.44831">
        <ele>174.95139974984</ele>
        <time>2018-03-29T13:45:58Z</time>
      </trkpt>
      <trkpt lat="44.40465" lon="1.44836">
        <ele>175.8501247629</ele>
        <time>2018-03-29T13:46:02Z</time>
      </trkpt>
      <trkpt lat="44.40467" lon="1.44843">
        <ele>176.71370081932</ele>
        <time>2018-03-29T13:46:06Z</time>
      </trkpt>
      <trkpt lat="44.40468" lon="1.44849">
        <ele>177.42145582996</ele>
        <time>2018-03-29T13:46:10Z</time>
      </trkpt>
      <trkpt lat="44.40472" lon="1.44855">
        <ele>178.01022362416</ele>
        <time>2018-03-29T13:46:15Z</time>
      </trkpt>
      <trkpt lat="44.40472" lon="1.4486">
        <ele>178.64590024953</ele>
        <time>2018-03-29T13:46:20Z</time>
      </trkpt>
      <trkpt lat="44.40473" lon="1.44868">
        <ele>178.94561032524</ele>
        <time>2018-03-29T13:46:25Z</time>
      </trkpt>
      <trkpt lat="44.40476" lon="1.44876">
        <ele>179.76610362258</ele>
        <time>2018-03-29T13:46:30Z</time>
      </trkpt>
      <trkpt lat="44.40476" lon="1.44882">
        <ele>180.95442409753</ele>
        <time>2018-03-29T13:46:38Z</time>
      </trkpt>
      <trkpt lat="44.40476" lon="1.44888">
        <ele>181.18473323442</ele>
        <time>2018-03-29T13:46:43Z</time>
      </trkpt>
      <trkpt lat="44.40479" lon="1.44897">
        <ele>181.1696087358</ele>
        <time>2018-03-29T13:46:47Z</time>
      </trkpt>
      <trkpt lat="44.4048" lon="1.44902">
        <ele>181.79791399916</ele>
        <time>2018-03-29T13:46:53Z</time>
      </trkpt>
      <trkpt lat="44.4048" lon="1.44908">
        <ele>182.38320738814</ele>
        <time>2018-03-29T13:46:57Z</time>
      </trkpt>
      <trkpt lat="44.40481" lon="1.44915">
        <ele>182.66172748034</ele>
        <time>2018-03-29T13:47:01Z</time>
      </trkpt>
      <trkpt lat="44.40483" lon="1.4492">
        <ele>183.19599941808</ele>
        <time>2018-03-29T13:47:06Z</time>
      </trkpt>
      <trkpt lat="44.40487" lon="1.44926">
        <ele>184.12006469572</ele>
        <time>2018-03-29T13:47:11Z</time>
      </trkpt>
      <trkpt lat="44.40488" lon="1.44932">
        <ele>185.70556921285</ele>
        <time>2018-03-29T13:47:17Z</time>
      </trkpt>
      <trkpt lat="44.40491" lon="1.44936">
        <ele>187.00194546517</ele>
        <time>2018-03-29T13:47:22Z</time>
      </trkpt>
      <trkpt lat="44.40494" lon="1.44944">
        <ele>188.3269261829</ele>
        <time>2018-03-29T13:47:27Z</time>
      </trkpt>
      <trkpt lat="44.40497" lon="1.4495">
        <ele>189.36262489067</ele>
        <time>2018-03-29T13:47:31Z</time>
      </trkpt>
      <trkpt lat="44.40494" lon="1.44961">
        <ele>190.90383442251</ele>
        <time>2018-03-29T13:47:36Z</time>
      </trkpt>
      <trkpt lat="44.40493" lon="1.44967">
        <ele>191.81854538331</ele>
        <time>2018-03-29T13:47:41Z</time>
      </trkpt>
      <trkpt lat="44.40492" lon="1.44973">
        <ele>192.3408091407</ele>
        <time>2018-03-29T13:47:47Z</time>
      </trkpt>
      <trkpt lat="44.40493" lon="1.4498">
        <ele>192.89119763603</ele>
        <time>2018-03-29T13:47:52Z</time>
      </trkpt>
      <trkpt lat="44.40493" lon="1.44988">
        <ele>193.33718234082</ele>
        <time>2018-03-29T13:47:57Z</time>
      </trkpt>
      <trkpt lat="44.40495" lon="1.44994">
        <ele>193.28972610274</ele>
        <time>2018-03-29T13:48:02Z</time>
      </trkpt>
      <trkpt lat="44.40496" lon="1.45001">
        <ele>193.44975127595</ele>
        <time>2018-03-29T13:48:07Z</time>
      </trkpt>
      <trkpt lat="44.40495" lon="1.45007">
        <ele>194.19238711234</ele>
        <time>2018-03-29T13:48:12Z</time>
      </trkpt>
      <trkpt lat="44.40495" lon="1.45015">
        <ele>194.49463000453</ele>
        <time>2018-03-29T13:48:17Z</time>
      </trkpt>
      <trkpt lat="44.40496" lon="1.4502">
        <ele>194.79395212959</ele>
        <time>2018-03-29T13:48:21Z</time>
      </trkpt>
      <trkpt lat="44.40498" lon="1.45026">
        <ele>195.16849105102</ele>
        <time>2018-03-29T13:48:25Z</time>
      </trkpt>
      <trkpt lat="44.40499" lon="1.45031">
        <ele>195.62199624261</ele>
        <time>2018-03-29T13:48:31Z</time>
      </trkpt>
      <trkpt lat="44.40497" lon="1.45039">
        <ele>195.8646234315</ele>
        <time>2018-03-29T13:48:35Z</time>
      </trkpt>
      <trkpt lat="44.40499" lon="1.45043">
        <ele>196.06949468343</ele>
        <time>2018-03-29T13:48:39Z</time>
      </trkpt>
      <trkpt lat="44.40501" lon="1.45048">
        <ele>196.28327939795</ele>
        <time>2018-03-29T13:48:43Z</time>
      </trkpt>
      <trkpt lat="44.40503" lon="1.45056">
        <ele>196.60412610969</ele>
        <time>2018-03-29T13:48:48Z</time>
      </trkpt>
      <trkpt lat="44.40505" lon="1.45061">
        <ele>196.41703608508</ele>
        <time>2018-03-29T13:48:53Z</time>
      </trkpt>
      <trkpt lat="44.40507" lon="1.45067">
        <ele>196.34885421971</ele>
        <time>2018-03-29T13:48:57Z</time>
      </trkpt>
      <trkpt lat="44.40508" lon="1.45073">
        <ele>196.22677214721</ele>
        <time>2018-03-29T13:49:01Z</time>
      </trkpt>
      <trkpt lat="44.40509" lon="1.45078">
        <ele>196.44574828112</ele>
        <time>2018-03-29T13:49:05Z</time>
      </trkpt>
      <trkpt lat="44.40511" lon="1.45082">
        <ele>196.40557395355</ele>
        <time>2018-03-29T13:49:09Z</time>
      </trkpt>
      <trkpt lat="44.40515" lon="1.45088">
        <ele>196.40801997416</ele>
        <time>2018-03-29T13:49:13Z</time>
      </trkpt>
      <trkpt lat="44.40516" lon="1.45092">
        <ele>196.52800316193</ele>
        <time>2018-03-29T13:49:19Z</time>
      </trkpt>
      <trkpt lat="44.40519" lon="1.45097">
        <ele>196.89462586196</ele>
        <time>2018-03-29T13:49:24Z</time>
      </trkpt>
      <trkpt lat="44.40519" lon="1.45104">
        <ele>197.23245500011</ele>
        <time>2018-03-29T13:49:29Z</time>
      </trkpt>
      <trkpt lat="44.40519" lon="1.4511">
        <ele>197.36415848941</ele>
        <time>2018-03-29T13:49:34Z</time>
      </trkpt>
      <trkpt lat="44.40522" lon="1.45114">
        <ele>197.40391540426</ele>
        <time>2018-03-29T13:49:38Z</time>
      </trkpt>
      <trkpt lat="44.40525" lon="1.45119">
        <ele>197.88210789232</ele>
        <time>2018-03-29T13:49:43Z</time>
      </trkpt>
      <trkpt lat="44.40527" lon="1.45124">
        <ele>197.88455727992</ele>
        <time>2018-03-29T13:49:51Z</time>
      </trkpt>
      <trkpt lat="44.40529" lon="1.4513">
        <ele>197.99677209631</ele>
        <time>2018-03-29T13:49:55Z</time>
      </trkpt>
      <trkpt lat="44.40529" lon="1.45136">
        <ele>198.52450314293</ele>
        <time>2018-03-29T13:50:00Z</time>
      </trkpt>
      <trkpt lat="44.40531" lon="1.45146">
        <ele>198.99321400328</ele>
        <time>2018-03-29T13:50:05Z</time>
      </trkpt>
      <trkpt lat="44.40534" lon="1.45151">
        <ele>198.95798600473</ele>
        <time>2018-03-29T13:50:10Z</time>
      </trkpt>
      <trkpt lat="44.40534" lon="1.45157">
        <ele>199.2602574674</ele>
        <time>2018-03-29T13:50:15Z</time>
      </trkpt>
      <trkpt lat="44.40534" lon="1.45163">
        <ele>199.44788179824</ele>
        <time>2018-03-29T13:50:20Z</time>
      </trkpt>
      <trkpt lat="44.40534" lon="1.45169">
        <ele>199.85873465149</ele>
        <time>2018-03-29T13:50:24Z</time>
      </trkpt>
      <trkpt lat="44.40537" lon="1.45173">
        <ele>200.47068051509</ele>
        <time>2018-03-29T13:50:30Z</time>
      </trkpt>
      <trkpt lat="44.40538" lon="1.45177">
        <ele>201.65334142931</ele>
        <time>2018-03-29T13:50:36Z</time>
      </trkpt>
      <trkpt lat="44.4054" lon="1.45183">
        <ele>202.78389782659</ele>
        <time>2018-03-29T13:50:41Z</time>
      </trkpt>
      <trkpt lat="44.40541" lon="1.45191">
        <ele>203.62498146651</ele>
        <time>2018-03-29T13:50:45Z</time>
      </trkpt>
      <trkpt lat="44.40541" lon="1.45195">
        <ele>204.67351465971</ele>
        <time>2018-03-29T13:50:51Z</time>
      </trkpt>
      <trkpt lat="44.40543" lon="1.45201">
        <ele>205.29498181026</ele>
        <time>2018-03-29T13:50:56Z</time>
      </trkpt>
      <trkpt lat="44.40543" lon="1.45207">
        <ele>206.09309126346</ele>
        <time>2018-03-29T13:51:02Z</time>
      </trkpt>
      <trkpt lat="44.40545" lon="1.45212">
        <ele>206.78361693724</ele>
        <time>2018-03-29T13:51:06Z</time>
      </trkpt>
      <trkpt lat="44.40547" lon="1.45219">
        <ele>207.37854043391</ele>
        <time>2018-03-29T13:51:11Z</time>
      </trkpt>
      <trkpt lat="44.40546" lon="1.45224">
        <ele>207.46630524848</ele>
        <time>2018-03-29T13:51:15Z</time>
      </trkpt>
      <trkpt lat="44.40547" lon="1.4523">
        <ele>207.41989639185</ele>
        <time>2018-03-29T13:51:19Z</time>
      </trkpt>
      <trkpt lat="44.40548" lon="1.45235">
        <ele>208.33486878682</ele>
        <time>2018-03-29T13:51:25Z</time>
      </trkpt>
      <trkpt lat="44.40551" lon="1.45238">
        <ele>208.83075894812</ele>
        <time>2018-03-29T13:51:29Z</time>
      </trkpt>
      <trkpt lat="44.40554" lon="1.45242">
        <ele>209.435002614</ele>
        <time>2018-03-29T13:51:33Z</time>
      </trkpt>
      <trkpt lat="44.40556" lon="1.45246">
        <ele>210.42263340222</ele>
        <time>2018-03-29T13:51:38Z</time>
      </trkpt>
      <trkpt lat="44.40559" lon="1.45251">
        <ele>211.54102827726</ele>
        <time>2018-03-29T13:51:43Z</time>
      </trkpt>
      <trkpt lat="44.4056" lon="1.45257">
        <ele>213.18169850945</ele>
        <time>2018-03-29T13:51:51Z</time>
      </trkpt>
      <trkpt lat="44.4056" lon="1.45262">
        <ele>213.5739139527</ele>
        <time>2018-03-29T13:51:56Z</time>
      </trkpt>
      <trkpt lat="44.40561" lon="1.45268">
        <ele>214.03284006391</ele>
        <time>2018-03-29T13:52:02Z</time>
      </trkpt>
      <trkpt lat="44.40563" lon="1.45273">
        <ele>214.93882074978</ele>
        <time>2018-03-29T13:52:10Z</time>
      </trkpt>
      <trkpt lat="44.40565" lon="1.45278">
        <ele>215.76285952699</ele>
        <time>2018-03-29T13:52:14Z</time>
      </trkpt>
      <trkpt lat="44.40566" lon="1.45283">
        <ele>216.22897990118</ele>
        <time>2018-03-29T13:52:19Z</time>
      </trkpt>
      <trkpt lat="44.40568" lon="1.45288">
        <ele>216.46408420162</ele>
        <time>2018-03-29T13:52:24Z</time>
      </trkpt>
      <trkpt lat="44.40571" lon="1.45294">
        <ele>216.95085712303</ele>
        <time>2018-03-29T13:52:29Z</time>
      </trkpt>
      <trkpt lat="44.40572" lon="1.45299">
        <ele>218.42095391208</ele>
        <time>2018-03-29T13:52:39Z</time>
      </trkpt>
      <trkpt lat="44.40574" lon="1.45305">
        <ele>219.40531093477</ele>
        <time>2018-03-29T13:52:44Z</time>
      </trkpt>
      <trkpt lat="44.40577" lon="1.45311">
        <ele>220.65167319716</ele>
        <time>2018-03-29T13:52:49Z</time>
      </trkpt>
      <trkpt lat="44.40578" lon="1.45317">
        <ele>221.85067705665</ele>
        <time>2018-03-29T13:52:56Z</time>
      </trkpt>
      <trkpt lat="44.40579" lon="1.45323">
        <ele>222.94911950318</ele>
        <time>2018-03-29T13:53:01Z</time>
      </trkpt>
      <trkpt lat="44.40581" lon="1.45329">
        <ele>223.82766153957</ele>
        <time>2018-03-29T13:53:06Z</time>
      </trkpt>
      <trkpt lat="44.40586" lon="1.45329">
        <ele>223.73067339615</ele>
        <time>2018-03-29T13:53:15Z</time>
      </trkpt>
      <trkpt lat="44.40589" lon="1.4533">
        <ele>225.65340526345</ele>
        <time>2018-03-29T13:53:28Z</time>
      </trkpt>
      <trkpt lat="44.40594" lon="1.45332">
        <ele>226.8293191135</ele>
        <time>2018-03-29T13:53:35Z</time>
      </trkpt>
      <trkpt lat="44.40598" lon="1.45333">
        <ele>228.77258818163</ele>
        <time>2018-03-29T13:53:45Z</time>
      </trkpt>
      <trkpt lat="44.40602" lon="1.45333">
        <ele>230.94075045857</ele>
        <time>2018-03-29T13:53:54Z</time>
      </trkpt>
      <trkpt lat="44.40606" lon="1.45334">
        <ele>233.11460006236</ele>
        <time>2018-03-29T13:54:07Z</time>
      </trkpt>
      <trkpt lat="44.4061" lon="1.45334">
        <ele>234.92184991961</ele>
        <time>2018-03-29T13:54:17Z</time>
      </trkpt>
      <trkpt lat="44.40615" lon="1.45334">
        <ele>237.46029182168</ele>
        <time>2018-03-29T13:54:28Z</time>
      </trkpt>
      <trkpt lat="44.40618" lon="1.45332">
        <ele>240.37606994491</ele>
        <time>2018-03-29T13:54:36Z</time>
      </trkpt>
      <trkpt lat="44.40622" lon="1.4533">
        <ele>241.80335257475</ele>
        <time>2018-03-29T13:54:42Z</time>
      </trkpt>
      <trkpt lat="44.40626" lon="1.4533">
        <ele>243.72137579723</ele>
        <time>2018-03-29T13:54:50Z</time>
      </trkpt>
      <trkpt lat="44.4063" lon="1.4533">
        <ele>244.59691978963</ele>
        <time>2018-03-29T13:54:56Z</time>
      </trkpt>
      <trkpt lat="44.40634" lon="1.45328">
        <ele>245.15130045561</ele>
        <time>2018-03-29T13:55:01Z</time>
      </trkpt>
      <trkpt lat="44.4064" lon="1.45325">
        <ele>245.44242638861</ele>
        <time>2018-03-29T13:55:06Z</time>
      </trkpt>
      <trkpt lat="44.40643" lon="1.45328">
        <ele>246.0791635748</ele>
        <time>2018-03-29T13:55:10Z</time>
      </trkpt>
      <trkpt lat="44.40647" lon="1.45331">
        <ele>245.90317702409</ele>
        <time>2018-03-29T13:55:18Z</time>
      </trkpt>
      <trkpt lat="44.40644" lon="1.45334">
        <ele>251.84984699675</ele>
        <time>2018-03-29T14:01:32Z</time>
      </trkpt>
      <trkpt lat="44.40642" lon="1.45339">
        <ele>251.53849194547</ele>
        <time>2018-03-29T14:01:38Z</time>
      </trkpt>
      <trkpt lat="44.40643" lon="1.45344">
        <ele>251.61888779158</ele>
        <time>2018-03-29T14:01:42Z</time>
      </trkpt>
      <trkpt lat="44.40646" lon="1.45351">
        <ele>251.86714206949</ele>
        <time>2018-03-29T14:01:46Z</time>
      </trkpt>
      <trkpt lat="44.40649" lon="1.45359">
        <ele>252.34956287574</ele>
        <time>2018-03-29T14:01:50Z</time>
      </trkpt>
      <trkpt lat="44.40651" lon="1.45364">
        <ele>253.228022539</ele>
        <time>2018-03-29T14:01:57Z</time>
      </trkpt>
      <trkpt lat="44.40654" lon="1.45368">
        <ele>254.58592969052</ele>
        <time>2018-03-29T14:02:06Z</time>
      </trkpt>
      <trkpt lat="44.40654" lon="1.45376">
        <ele>255.02852563871</ele>
        <time>2018-03-29T14:02:11Z</time>
      </trkpt>
      <trkpt lat="44.40653" lon="1.45383">
        <ele>255.18517949468</ele>
        <time>2018-03-29T14:02:15Z</time>
      </trkpt>
      <trkpt lat="44.40649" lon="1.45391">
        <ele>255.27842456588</ele>
        <time>2018-03-29T14:02:19Z</time>
      </trkpt>
      <trkpt lat="44.40649" lon="1.45397">
        <ele>255.35541270215</ele>
        <time>2018-03-29T14:02:24Z</time>
      </trkpt>
      <trkpt lat="44.4065" lon="1.45402">
        <ele>255.66215447442</ele>
        <time>2018-03-29T14:02:28Z</time>
      </trkpt>
      <trkpt lat="44.4065" lon="1.45411">
        <ele>255.75606638722</ele>
        <time>2018-03-29T14:02:32Z</time>
      </trkpt>
      <trkpt lat="44.4065" lon="1.45416">
        <ele>255.44867013675</ele>
        <time>2018-03-29T14:02:36Z</time>
      </trkpt>
      <trkpt lat="44.40649" lon="1.45423">
        <ele>255.26374947072</ele>
        <time>2018-03-29T14:02:40Z</time>
      </trkpt>
      <trkpt lat="44.40647" lon="1.45432">
        <ele>255.03728368245</ele>
        <time>2018-03-29T14:02:45Z</time>
      </trkpt>
      <trkpt lat="44.40648" lon="1.45438">
        <ele>254.91840912691</ele>
        <time>2018-03-29T14:02:49Z</time>
      </trkpt>
      <trkpt lat="44.40646" lon="1.45446">
        <ele>254.91885232131</ele>
        <time>2018-03-29T14:02:54Z</time>
      </trkpt>
      <trkpt lat="44.40646" lon="1.45452">
        <ele>254.96509096999</ele>
        <time>2018-03-29T14:02:58Z</time>
      </trkpt>
      <trkpt lat="44.40646" lon="1.45458">
        <ele>255.06022184654</ele>
        <time>2018-03-29T14:03:02Z</time>
      </trkpt>
      <trkpt lat="44.40646" lon="1.45463">
        <ele>254.83878109212</ele>
        <time>2018-03-29T14:03:07Z</time>
      </trkpt>
      <trkpt lat="44.40647" lon="1.4547">
        <ele>254.89757738236</ele>
        <time>2018-03-29T14:03:12Z</time>
      </trkpt>
      <trkpt lat="44.40647" lon="1.45476">
        <ele>254.77619265866</ele>
        <time>2018-03-29T14:03:17Z</time>
      </trkpt>
      <trkpt lat="44.40647" lon="1.45482">
        <ele>254.69281872922</ele>
        <time>2018-03-29T14:03:22Z</time>
      </trkpt>
      <trkpt lat="44.40649" lon="1.45487">
        <ele>254.30876372483</ele>
        <time>2018-03-29T14:03:27Z</time>
      </trkpt>
      <trkpt lat="44.40648" lon="1.45492">
        <ele>254.04671363424</ele>
        <time>2018-03-29T14:03:31Z</time>
      </trkpt>
      <trkpt lat="44.40648" lon="1.45501">
        <ele>254.1103839118</ele>
        <time>2018-03-29T14:03:36Z</time>
      </trkpt>
      <trkpt lat="44.40646" lon="1.45507">
        <ele>254.93136674516</ele>
        <time>2018-03-29T14:03:45Z</time>
      </trkpt>
      <trkpt lat="44.40647" lon="1.45512">
        <ele>255.18884252046</ele>
        <time>2018-03-29T14:03:49Z</time>
      </trkpt>
      <trkpt lat="44.40646" lon="1.4552">
        <ele>255.6521188358</ele>
        <time>2018-03-29T14:03:54Z</time>
      </trkpt>
      <trkpt lat="44.40644" lon="1.45525">
        <ele>256.08376896813</ele>
        <time>2018-03-29T14:03:59Z</time>
      </trkpt>
      <trkpt lat="44.40643" lon="1.4553">
        <ele>256.14689765519</ele>
        <time>2018-03-29T14:04:03Z</time>
      </trkpt>
      <trkpt lat="44.40642" lon="1.45537">
        <ele>256.28237793534</ele>
        <time>2018-03-29T14:04:08Z</time>
      </trkpt>
      <trkpt lat="44.40642" lon="1.45542">
        <ele>256.24369306751</ele>
        <time>2018-03-29T14:04:12Z</time>
      </trkpt>
      <trkpt lat="44.40642" lon="1.45551">
        <ele>256.26961848121</ele>
        <time>2018-03-29T14:04:16Z</time>
      </trkpt>
      <trkpt lat="44.40644" lon="1.45559">
        <ele>256.37273964422</ele>
        <time>2018-03-29T14:04:21Z</time>
      </trkpt>
      <trkpt lat="44.40645" lon="1.45564">
        <ele>256.74943359793</ele>
        <time>2018-03-29T14:04:26Z</time>
      </trkpt>
      <trkpt lat="44.40643" lon="1.45571">
        <ele>257.45296964789</ele>
        <time>2018-03-29T14:04:31Z</time>
      </trkpt>
      <trkpt lat="44.40644" lon="1.45576">
        <ele>257.46140476026</ele>
        <time>2018-03-29T14:04:36Z</time>
      </trkpt>
      <trkpt lat="44.40641" lon="1.45583">
        <ele>257.21143676922</ele>
        <time>2018-03-29T14:04:41Z</time>
      </trkpt>
      <trkpt lat="44.4064" lon="1.45591">
        <ele>256.87452963345</ele>
        <time>2018-03-29T14:04:45Z</time>
      </trkpt>
      <trkpt lat="44.40641" lon="1.45597">
        <ele>257.02084434243</ele>
        <time>2018-03-29T14:04:51Z</time>
      </trkpt>
      <trkpt lat="44.40641" lon="1.45603">
        <ele>257.86329913931</ele>
        <time>2018-03-29T14:04:55Z</time>
      </trkpt>
      <trkpt lat="44.40642" lon="1.45609">
        <ele>258.37856103719</ele>
        <time>2018-03-29T14:05:01Z</time>
      </trkpt>
      <trkpt lat="44.40642" lon="1.45615">
        <ele>258.54755838156</ele>
        <time>2018-03-29T14:05:05Z</time>
      </trkpt>
      <trkpt lat="44.40642" lon="1.45623">
        <ele>258.87315191909</ele>
        <time>2018-03-29T14:05:09Z</time>
      </trkpt>
      <trkpt lat="44.40642" lon="1.45628">
        <ele>259.19933824392</ele>
        <time>2018-03-29T14:05:14Z</time>
      </trkpt>
      <trkpt lat="44.40643" lon="1.45633">
        <ele>259.52772472049</ele>
        <time>2018-03-29T14:05:19Z</time>
      </trkpt>
      <trkpt lat="44.40643" lon="1.4564">
        <ele>260.26868482997</ele>
        <time>2018-03-29T14:05:24Z</time>
      </trkpt>
      <trkpt lat="44.40646" lon="1.45643">
        <ele>261.07502305787</ele>
        <time>2018-03-29T14:05:37Z</time>
      </trkpt>
      <trkpt lat="44.40649" lon="1.45646">
        <ele>261.44612404743</ele>
        <time>2018-03-29T14:05:46Z</time>
      </trkpt>
      <trkpt lat="44.40653" lon="1.45645">
        <ele>261.58119000158</ele>
        <time>2018-03-29T14:05:53Z</time>
      </trkpt>
      <trkpt lat="44.40653" lon="1.4565">
        <ele>263.23826362683</ele>
        <time>2018-03-29T14:06:41Z</time>
      </trkpt>
      <trkpt lat="44.40655" lon="1.45652">
        <ele>264.45013472915</ele>
        <time>2018-03-29T14:07:19Z</time>
      </trkpt>
      <trkpt lat="44.4066" lon="1.45659">
        <ele>264.7753285249</ele>
        <time>2018-03-29T14:07:24Z</time>
      </trkpt>
      <trkpt lat="44.40664" lon="1.45659">
        <ele>265.08412580483</ele>
        <time>2018-03-29T14:07:29Z</time>
      </trkpt>
      <trkpt lat="44.40669" lon="1.45661">
        <ele>265.93019311989</ele>
        <time>2018-03-29T14:07:35Z</time>
      </trkpt>
      <trkpt lat="44.4067" lon="1.45662">
        <ele>266.05704724582</ele>
        <time>2018-03-29T14:07:39Z</time>
      </trkpt>
      <trkpt lat="44.40675" lon="1.45664">
        <ele>266.43278586595</ele>
        <time>2018-03-29T14:07:44Z</time>
      </trkpt>
      <trkpt lat="44.40679" lon="1.45665">
        <ele>266.9498211913</ele>
        <time>2018-03-29T14:07:50Z</time>
      </trkpt>
      <trkpt lat="44.40684" lon="1.45667">
        <ele>267.20252570247</ele>
        <time>2018-03-29T14:07:54Z</time>
      </trkpt>
      <trkpt lat="44.40687" lon="1.45669">
        <ele>268.93355430217</ele>
        <time>2018-03-29T14:09:03Z</time>
      </trkpt>
      <trkpt lat="44.40689" lon="1.45676">
        <ele>268.25541549646</ele>
        <time>2018-03-29T14:09:08Z</time>
      </trkpt>
      <trkpt lat="44.40691" lon="1.4568">
        <ele>268.20348357491</ele>
        <time>2018-03-29T14:09:12Z</time>
      </trkpt>
      <trkpt lat="44.4069" lon="1.45688">
        <ele>267.90828793482</ele>
        <time>2018-03-29T14:09:17Z</time>
      </trkpt>
      <trkpt lat="44.40687" lon="1.45693">
        <ele>267.65988378108</ele>
        <time>2018-03-29T14:09:22Z</time>
      </trkpt>
      <trkpt lat="44.40682" lon="1.45697">
        <ele>267.46103034066</ele>
        <time>2018-03-29T14:09:27Z</time>
      </trkpt>
      <trkpt lat="44.40679" lon="1.45699">
        <ele>267.45583663911</ele>
        <time>2018-03-29T14:09:31Z</time>
      </trkpt>
      <trkpt lat="44.40675" lon="1.45701">
        <ele>268.23824125816</ele>
        <time>2018-03-29T14:09:56Z</time>
      </trkpt>
      <trkpt lat="44.40673" lon="1.45707">
        <ele>268.48170033878</ele>
        <time>2018-03-29T14:10:02Z</time>
      </trkpt>
      <trkpt lat="44.4067" lon="1.45711">
        <ele>268.62414977772</ele>
        <time>2018-03-29T14:10:09Z</time>
      </trkpt>
      <trkpt lat="44.4067" lon="1.45717">
        <ele>268.9962837941</ele>
        <time>2018-03-29T14:10:19Z</time>
      </trkpt>
      <trkpt lat="44.40667" lon="1.45724">
        <ele>268.98771445851</ele>
        <time>2018-03-29T14:10:24Z</time>
      </trkpt>
      <trkpt lat="44.40667" lon="1.4573">
        <ele>268.79925551692</ele>
        <time>2018-03-29T14:10:28Z</time>
      </trkpt>
      <trkpt lat="44.40665" lon="1.45735">
        <ele>268.41212117001</ele>
        <time>2018-03-29T14:10:34Z</time>
      </trkpt>
      <trkpt lat="44.40662" lon="1.45741">
        <ele>268.32822560752</ele>
        <time>2018-03-29T14:10:38Z</time>
      </trkpt>
      <trkpt lat="44.40659" lon="1.45744">
        <ele>268.03062210755</ele>
        <time>2018-03-29T14:10:43Z</time>
      </trkpt>
      <trkpt lat="44.40658" lon="1.45751">
        <ele>267.92235972537</ele>
        <time>2018-03-29T14:10:48Z</time>
      </trkpt>
      <trkpt lat="44.40656" lon="1.45754">
        <ele>268.32786722478</ele>
        <time>2018-03-29T14:10:58Z</time>
      </trkpt>
      <trkpt lat="44.40652" lon="1.45757">
        <ele>268.62761209134</ele>
        <time>2018-03-29T14:11:06Z</time>
      </trkpt>
      <trkpt lat="44.40646" lon="1.45762">
        <ele>268.5824964423</ele>
        <time>2018-03-29T14:11:11Z</time>
      </trkpt>
      <trkpt lat="44.40644" lon="1.45766">
        <ele>268.8194212345</ele>
        <time>2018-03-29T14:11:15Z</time>
      </trkpt>
      <trkpt lat="44.4064" lon="1.45769">
        <ele>268.94328728757</ele>
        <time>2018-03-29T14:11:19Z</time>
      </trkpt>
      <trkpt lat="44.4063" lon="1.45773">
        <ele>269.1097766499</ele>
        <time>2018-03-29T14:11:24Z</time>
      </trkpt>
      <trkpt lat="44.40626" lon="1.45775">
        <ele>269.52266326495</ele>
        <time>2018-03-29T14:11:29Z</time>
      </trkpt>
      <trkpt lat="44.40621" lon="1.45778">
        <ele>269.71425696387</ele>
        <time>2018-03-29T14:11:33Z</time>
      </trkpt>
      <trkpt lat="44.40617" lon="1.45783">
        <ele>270.00647089329</ele>
        <time>2018-03-29T14:11:38Z</time>
      </trkpt>
      <trkpt lat="44.40613" lon="1.45785">
        <ele>270.33975530252</ele>
        <time>2018-03-29T14:11:43Z</time>
      </trkpt>
      <trkpt lat="44.40606" lon="1.45788">
        <ele>270.48408601614</ele>
        <time>2018-03-29T14:11:47Z</time>
      </trkpt>
      <trkpt lat="44.40602" lon="1.45791">
        <ele>270.67903210368</ele>
        <time>2018-03-29T14:11:51Z</time>
      </trkpt>
      <trkpt lat="44.40596" lon="1.45794">
        <ele>270.79946902465</ele>
        <time>2018-03-29T14:11:55Z</time>
      </trkpt>
      <trkpt lat="44.4059" lon="1.45797">
        <ele>270.83145631863</ele>
        <time>2018-03-29T14:11:59Z</time>
      </trkpt>
      <trkpt lat="44.40584" lon="1.45801">
        <ele>270.52172436961</ele>
        <time>2018-03-29T14:12:04Z</time>
      </trkpt>
      <trkpt lat="44.4058" lon="1.45804">
        <ele>270.34378159563</ele>
        <time>2018-03-29T14:12:08Z</time>
      </trkpt>
      <trkpt lat="44.40575" lon="1.45809">
        <ele>270.49378812313</ele>
        <time>2018-03-29T14:12:13Z</time>
      </trkpt>
      <trkpt lat="44.40572" lon="1.45812">
        <ele>270.57106974829</ele>
        <time>2018-03-29T14:12:17Z</time>
      </trkpt>
      <trkpt lat="44.40566" lon="1.45815">
        <ele>270.88724908329</ele>
        <time>2018-03-29T14:12:22Z</time>
      </trkpt>
      <trkpt lat="44.40559" lon="1.4582">
        <ele>271.31724230189</ele>
        <time>2018-03-29T14:12:27Z</time>
      </trkpt>
      <trkpt lat="44.40556" lon="1.45824">
        <ele>271.53854839292</ele>
        <time>2018-03-29T14:12:34Z</time>
      </trkpt>
      <trkpt lat="44.4055" lon="1.45829">
        <ele>271.62660599132</ele>
        <time>2018-03-29T14:12:38Z</time>
      </trkpt>
      <trkpt lat="44.40545" lon="1.45831">
        <ele>271.65203668155</ele>
        <time>2018-03-29T14:12:43Z</time>
      </trkpt>
      <trkpt lat="44.40539" lon="1.45836">
        <ele>271.49493096294</ele>
        <time>2018-03-29T14:12:47Z</time>
      </trkpt>
      <trkpt lat="44.40537" lon="1.45841">
        <ele>271.2936090604</ele>
        <time>2018-03-29T14:12:52Z</time>
      </trkpt>
      <trkpt lat="44.40532" lon="1.45843">
        <ele>271.35210130396</ele>
        <time>2018-03-29T14:13:01Z</time>
      </trkpt>
      <trkpt lat="44.4053" lon="1.45847">
        <ele>271.68077800171</ele>
        <time>2018-03-29T14:13:07Z</time>
      </trkpt>
      <trkpt lat="44.40524" lon="1.45857">
        <ele>272.05329745418</ele>
        <time>2018-03-29T14:13:11Z</time>
      </trkpt>
      <trkpt lat="44.40519" lon="1.45864">
        <ele>272.15870541653</ele>
        <time>2018-03-29T14:13:16Z</time>
      </trkpt>
      <trkpt lat="44.40516" lon="1.45867">
        <ele>272.1312378658</ele>
        <time>2018-03-29T14:13:19Z</time>
      </trkpt>
      <trkpt lat="44.4051" lon="1.45873">
        <ele>271.8279146338</ele>
        <time>2018-03-29T14:13:24Z</time>
      </trkpt>
      <trkpt lat="44.40508" lon="1.45878">
        <ele>271.35867269133</ele>
        <time>2018-03-29T14:13:28Z</time>
      </trkpt>
      <trkpt lat="44.405" lon="1.45885">
        <ele>271.18968327335</ele>
        <time>2018-03-29T14:13:33Z</time>
      </trkpt>
      <trkpt lat="44.40496" lon="1.45891">
        <ele>270.86850607551</ele>
        <time>2018-03-29T14:13:37Z</time>
      </trkpt>
      <trkpt lat="44.40492" lon="1.45895">
        <ele>271.14843707945</ele>
        <time>2018-03-29T14:13:41Z</time>
      </trkpt>
      <trkpt lat="44.40489" lon="1.45898">
        <ele>271.61332608447</ele>
        <time>2018-03-29T14:13:46Z</time>
      </trkpt>
      <trkpt lat="44.40484" lon="1.45902">
        <ele>272.10950029232</ele>
        <time>2018-03-29T14:13:51Z</time>
      </trkpt>
      <trkpt lat="44.4048" lon="1.45905">
        <ele>272.34916733696</ele>
        <time>2018-03-29T14:13:55Z</time>
      </trkpt>
      <trkpt lat="44.40475" lon="1.45908">
        <ele>272.09003320168</ele>
        <time>2018-03-29T14:14:00Z</time>
      </trkpt>
      <trkpt lat="44.40472" lon="1.45912">
        <ele>271.91841773063</ele>
        <time>2018-03-29T14:14:04Z</time>
      </trkpt>
      <trkpt lat="44.40468" lon="1.45918">
        <ele>271.86718278031</ele>
        <time>2018-03-29T14:14:08Z</time>
      </trkpt>
      <trkpt lat="44.40466" lon="1.45922">
        <ele>272.12564797039</ele>
        <time>2018-03-29T14:14:13Z</time>
      </trkpt>
      <trkpt lat="44.40462" lon="1.45924">
        <ele>271.85505453222</ele>
        <time>2018-03-29T14:14:26Z</time>
      </trkpt>
      <trkpt lat="44.40459" lon="1.45928">
        <ele>271.91946046872</ele>
        <time>2018-03-29T14:14:38Z</time>
      </trkpt>
      <trkpt lat="44.40456" lon="1.45931">
        <ele>272.06297431355</ele>
        <time>2018-03-29T14:14:46Z</time>
      </trkpt>
      <trkpt lat="44.40451" lon="1.45933">
        <ele>272.25409349849</ele>
        <time>2018-03-29T14:15:09Z</time>
      </trkpt>
      <trkpt lat="44.40449" lon="1.45938">
        <ele>269.34426195884</ele>
        <time>2018-03-29T14:21:37Z</time>
      </trkpt>
      <trkpt lat="44.40453" lon="1.45936">
        <ele>270.37533769672</ele>
        <time>2018-03-29T14:24:31Z</time>
      </trkpt>
      <trkpt lat="44.40454" lon="1.45942">
        <ele>268.57238542069</ele>
        <time>2018-03-29T14:24:49Z</time>
      </trkpt>
      <trkpt lat="44.40451" lon="1.45946">
        <ele>268.16188704663</ele>
        <time>2018-03-29T14:24:53Z</time>
      </trkpt>
      <trkpt lat="44.40447" lon="1.45949">
        <ele>267.72220458961</ele>
        <time>2018-03-29T14:24:58Z</time>
      </trkpt>
      <trkpt lat="44.40443" lon="1.45953">
        <ele>267.64592631887</ele>
        <time>2018-03-29T14:25:03Z</time>
      </trkpt>
      <trkpt lat="44.4044" lon="1.45957">
        <ele>267.4610455459</ele>
        <time>2018-03-29T14:25:08Z</time>
      </trkpt>
      <trkpt lat="44.40438" lon="1.45963">
        <ele>267.13394178301</ele>
        <time>2018-03-29T14:25:13Z</time>
      </trkpt>
      <trkpt lat="44.40435" lon="1.45968">
        <ele>266.98698022739</ele>
        <time>2018-03-29T14:25:17Z</time>
      </trkpt>
      <trkpt lat="44.40432" lon="1.45973">
        <ele>266.80796293774</ele>
        <time>2018-03-29T14:25:22Z</time>
      </trkpt>
      <trkpt lat="44.40428" lon="1.45978">
        <ele>266.72734656014</ele>
        <time>2018-03-29T14:25:27Z</time>
      </trkpt>
      <trkpt lat="44.40424" lon="1.45981">
        <ele>266.19920835918</ele>
        <time>2018-03-29T14:25:32Z</time>
      </trkpt>
      <trkpt lat="44.4042" lon="1.45987">
        <ele>265.62507487063</ele>
        <time>2018-03-29T14:25:37Z</time>
      </trkpt>
      <trkpt lat="44.40416" lon="1.45993">
        <ele>265.49165592994</ele>
        <time>2018-03-29T14:25:41Z</time>
      </trkpt>
      <trkpt lat="44.40415" lon="1.46">
        <ele>265.26276193048</ele>
        <time>2018-03-29T14:25:46Z</time>
      </trkpt>
      <trkpt lat="44.40415" lon="1.46007">
        <ele>264.99400710325</ele>
        <time>2018-03-29T14:25:51Z</time>
      </trkpt>
      <trkpt lat="44.40415" lon="1.46013">
        <ele>265.07077086243</ele>
        <time>2018-03-29T14:25:56Z</time>
      </trkpt>
      <trkpt lat="44.40414" lon="1.46019">
        <ele>264.95664394221</ele>
        <time>2018-03-29T14:26:03Z</time>
      </trkpt>
      <trkpt lat="44.40413" lon="1.46026">
        <ele>264.73596351873</ele>
        <time>2018-03-29T14:26:08Z</time>
      </trkpt>
      <trkpt lat="44.40411" lon="1.46034">
        <ele>264.71743229289</ele>
        <time>2018-03-29T14:26:13Z</time>
      </trkpt>
      <trkpt lat="44.40409" lon="1.4604">
        <ele>264.75216984918</ele>
        <time>2018-03-29T14:26:20Z</time>
      </trkpt>
      <trkpt lat="44.40407" lon="1.46045">
        <ele>264.69383389364</ele>
        <time>2018-03-29T14:26:24Z</time>
      </trkpt>
      <trkpt lat="44.40405" lon="1.4605">
        <ele>264.53236272384</ele>
        <time>2018-03-29T14:26:30Z</time>
      </trkpt>
      <trkpt lat="44.40401" lon="1.46054">
        <ele>264.39931955223</ele>
        <time>2018-03-29T14:26:35Z</time>
      </trkpt>
      <trkpt lat="44.40397" lon="1.46058">
        <ele>264.05269178058</ele>
        <time>2018-03-29T14:26:40Z</time>
      </trkpt>
      <trkpt lat="44.40394" lon="1.46062">
        <ele>263.79802928486</ele>
        <time>2018-03-29T14:26:45Z</time>
      </trkpt>
      <trkpt lat="44.40392" lon="1.46066">
        <ele>263.67011529684</ele>
        <time>2018-03-29T14:26:50Z</time>
      </trkpt>
      <trkpt lat="44.40389" lon="1.46071">
        <ele>263.29359957728</ele>
        <time>2018-03-29T14:26:55Z</time>
      </trkpt>
      <trkpt lat="44.40385" lon="1.46074">
        <ele>263.2814010318</ele>
        <time>2018-03-29T14:26:59Z</time>
      </trkpt>
      <trkpt lat="44.40381" lon="1.4608">
        <ele>263.54631666089</ele>
        <time>2018-03-29T14:27:04Z</time>
      </trkpt>
      <trkpt lat="44.40376" lon="1.46085">
        <ele>263.97246333738</ele>
        <time>2018-03-29T14:27:09Z</time>
      </trkpt>
      <trkpt lat="44.40373" lon="1.4609">
        <ele>264.29988559207</ele>
        <time>2018-03-29T14:27:13Z</time>
      </trkpt>
      <trkpt lat="44.40369" lon="1.46092">
        <ele>264.29174726761</ele>
        <time>2018-03-29T14:27:20Z</time>
      </trkpt>
      <trkpt lat="44.40365" lon="1.46089">
        <ele>264.11296096172</ele>
        <time>2018-03-29T14:27:24Z</time>
      </trkpt>
      <trkpt lat="44.40361" lon="1.46087">
        <ele>263.84887713537</ele>
        <time>2018-03-29T14:27:29Z</time>
      </trkpt>
      <trkpt lat="44.40357" lon="1.46081">
        <ele>263.61493882606</ele>
        <time>2018-03-29T14:27:34Z</time>
      </trkpt>
      <trkpt lat="44.40353" lon="1.46078">
        <ele>263.50728307038</ele>
        <time>2018-03-29T14:27:41Z</time>
      </trkpt>
      <trkpt lat="44.4035" lon="1.46073">
        <ele>263.96266283279</ele>
        <time>2018-03-29T14:27:45Z</time>
      </trkpt>
      <trkpt lat="44.40348" lon="1.46069">
        <ele>264.93574581382</ele>
        <time>2018-03-29T14:27:49Z</time>
      </trkpt>
      <trkpt lat="44.40345" lon="1.46064">
        <ele>265.89296438484</ele>
        <time>2018-03-29T14:27:54Z</time>
      </trkpt>
      <trkpt lat="44.40341" lon="1.46058">
        <ele>266.85181590243</ele>
        <time>2018-03-29T14:27:59Z</time>
      </trkpt>
      <trkpt lat="44.40339" lon="1.46054">
        <ele>267.6124837096</ele>
        <time>2018-03-29T14:28:04Z</time>
      </trkpt>
      <trkpt lat="44.40337" lon="1.46048">
        <ele>268.15912480464</ele>
        <time>2018-03-29T14:28:09Z</time>
      </trkpt>
      <trkpt lat="44.40334" lon="1.46043">
        <ele>268.47805601949</ele>
        <time>2018-03-29T14:28:13Z</time>
      </trkpt>
      <trkpt lat="44.40332" lon="1.46038">
        <ele>269.21201967459</ele>
        <time>2018-03-29T14:28:20Z</time>
      </trkpt>
      <trkpt lat="44.40329" lon="1.46031">
        <ele>269.24965609086</ele>
        <time>2018-03-29T14:28:24Z</time>
      </trkpt>
      <trkpt lat="44.40328" lon="1.46026">
        <ele>269.38367612729</ele>
        <time>2018-03-29T14:28:28Z</time>
      </trkpt>
      <trkpt lat="44.40326" lon="1.46021">
        <ele>269.43327142857</ele>
        <time>2018-03-29T14:28:34Z</time>
      </trkpt>
      <trkpt lat="44.40324" lon="1.46016">
        <ele>269.66910746885</ele>
        <time>2018-03-29T14:28:38Z</time>
      </trkpt>
      <trkpt lat="44.40319" lon="1.46013">
        <ele>269.98769880728</ele>
        <time>2018-03-29T14:28:43Z</time>
      </trkpt>
      <trkpt lat="44.40315" lon="1.46013">
        <ele>270.01732739493</ele>
        <time>2018-03-29T14:28:50Z</time>
      </trkpt>
      <trkpt lat="44.40316" lon="1.46008">
        <ele>270.42441353451</ele>
        <time>2018-03-29T14:28:56Z</time>
      </trkpt>
      <trkpt lat="44.40315" lon="1.45996">
        <ele>270.39164543535</ele>
        <time>2018-03-29T14:29:00Z</time>
      </trkpt>
      <trkpt lat="44.40312" lon="1.45991">
        <ele>269.95557912592</ele>
        <time>2018-03-29T14:29:04Z</time>
      </trkpt>
      <trkpt lat="44.40311" lon="1.45986">
        <ele>269.33368700796</ele>
        <time>2018-03-29T14:29:09Z</time>
      </trkpt>
      <trkpt lat="44.40306" lon="1.45976">
        <ele>268.67081728033</ele>
        <time>2018-03-29T14:29:14Z</time>
      </trkpt>
      <trkpt lat="44.40304" lon="1.45972">
        <ele>268.03250286214</ele>
        <time>2018-03-29T14:29:18Z</time>
      </trkpt>
      <trkpt lat="44.40301" lon="1.45966">
        <ele>267.49035157148</ele>
        <time>2018-03-29T14:29:23Z</time>
      </trkpt>
      <trkpt lat="44.403" lon="1.45962">
        <ele>267.20141090708</ele>
        <time>2018-03-29T14:29:27Z</time>
      </trkpt>
      <trkpt lat="44.40297" lon="1.45956">
        <ele>266.76274508234</ele>
        <time>2018-03-29T14:29:32Z</time>
      </trkpt>
      <trkpt lat="44.40294" lon="1.45953">
        <ele>266.42645318042</ele>
        <time>2018-03-29T14:29:36Z</time>
      </trkpt>
      <trkpt lat="44.40292" lon="1.45948">
        <ele>266.03706587174</ele>
        <time>2018-03-29T14:29:40Z</time>
      </trkpt>
      <trkpt lat="44.40289" lon="1.45942">
        <ele>264.98891263186</ele>
        <time>2018-03-29T14:29:45Z</time>
      </trkpt>
      <trkpt lat="44.40287" lon="1.45936">
        <ele>263.80896712278</ele>
        <time>2018-03-29T14:29:50Z</time>
      </trkpt>
      <trkpt lat="44.40283" lon="1.45931">
        <ele>262.88203972986</ele>
        <time>2018-03-29T14:29:55Z</time>
      </trkpt>
      <trkpt lat="44.40281" lon="1.45927">
        <ele>262.32831620846</ele>
        <time>2018-03-29T14:29:59Z</time>
      </trkpt>
      <trkpt lat="44.40278" lon="1.45923">
        <ele>261.41971453518</ele>
        <time>2018-03-29T14:30:06Z</time>
      </trkpt>
      <trkpt lat="44.40276" lon="1.45917">
        <ele>261.17565257505</ele>
        <time>2018-03-29T14:30:10Z</time>
      </trkpt>
      <trkpt lat="44.40276" lon="1.45912">
        <ele>261.04600953772</ele>
        <time>2018-03-29T14:30:15Z</time>
      </trkpt>
      <trkpt lat="44.40276" lon="1.45906">
        <ele>260.05821602305</ele>
        <time>2018-03-29T14:30:23Z</time>
      </trkpt>
      <trkpt lat="44.40274" lon="1.459">
        <ele>259.28363179604</ele>
        <time>2018-03-29T14:30:27Z</time>
      </trkpt>
      <trkpt lat="44.40271" lon="1.45894">
        <ele>258.81444407133</ele>
        <time>2018-03-29T14:30:32Z</time>
      </trkpt>
      <trkpt lat="44.40269" lon="1.4589">
        <ele>258.23671761474</ele>
        <time>2018-03-29T14:30:36Z</time>
      </trkpt>
      <trkpt lat="44.40267" lon="1.45882">
        <ele>257.54980815913</ele>
        <time>2018-03-29T14:30:40Z</time>
      </trkpt>
      <trkpt lat="44.40265" lon="1.45879">
        <ele>256.21600366298</ele>
        <time>2018-03-29T14:30:47Z</time>
      </trkpt>
      <trkpt lat="44.40262" lon="1.45874">
        <ele>255.31322386764</ele>
        <time>2018-03-29T14:30:51Z</time>
      </trkpt>
      <trkpt lat="44.40262" lon="1.45868">
        <ele>254.4313075216</ele>
        <time>2018-03-29T14:30:56Z</time>
      </trkpt>
      <trkpt lat="44.40262" lon="1.45862">
        <ele>253.58678534088</ele>
        <time>2018-03-29T14:31:00Z</time>
      </trkpt>
      <trkpt lat="44.4026" lon="1.45855">
        <ele>252.74707137825</ele>
        <time>2018-03-29T14:31:05Z</time>
      </trkpt>
      <trkpt lat="44.40259" lon="1.4585">
        <ele>251.74970588936</ele>
        <time>2018-03-29T14:31:10Z</time>
      </trkpt>
      <trkpt lat="44.40257" lon="1.45845">
        <ele>250.59839870481</ele>
        <time>2018-03-29T14:31:15Z</time>
      </trkpt>
      <trkpt lat="44.40255" lon="1.45838">
        <ele>249.85552688287</ele>
        <time>2018-03-29T14:31:19Z</time>
      </trkpt>
      <trkpt lat="44.40253" lon="1.45832">
        <ele>249.21742106009</ele>
        <time>2018-03-29T14:31:25Z</time>
      </trkpt>
      <trkpt lat="44.40252" lon="1.45826">
        <ele>248.81175814508</ele>
        <time>2018-03-29T14:31:32Z</time>
      </trkpt>
      <trkpt lat="44.4025" lon="1.45821">
        <ele>248.66419444536</ele>
        <time>2018-03-29T14:31:38Z</time>
      </trkpt>
      <trkpt lat="44.40248" lon="1.45814">
        <ele>248.26169454109</ele>
        <time>2018-03-29T14:31:42Z</time>
      </trkpt>
      <trkpt lat="44.40247" lon="1.45809">
        <ele>247.78102644258</ele>
        <time>2018-03-29T14:31:46Z</time>
      </trkpt>
      <trkpt lat="44.40245" lon="1.45806">
        <ele>247.14213382491</ele>
        <time>2018-03-29T14:31:50Z</time>
      </trkpt>
      <trkpt lat="44.40243" lon="1.458">
        <ele>245.95927419333</ele>
        <time>2018-03-29T14:31:54Z</time>
      </trkpt>
      <trkpt lat="44.40242" lon="1.45794">
        <ele>244.76396634564</ele>
        <time>2018-03-29T14:31:58Z</time>
      </trkpt>
      <trkpt lat="44.40241" lon="1.45788">
        <ele>243.71510495305</ele>
        <time>2018-03-29T14:32:03Z</time>
      </trkpt>
      <trkpt lat="44.40238" lon="1.45784">
        <ele>242.73363093723</ele>
        <time>2018-03-29T14:32:09Z</time>
      </trkpt>
      <trkpt lat="44.40233" lon="1.45778">
        <ele>241.84756988905</ele>
        <time>2018-03-29T14:32:14Z</time>
      </trkpt>
      <trkpt lat="44.4023" lon="1.45774">
        <ele>241.50482796842</ele>
        <time>2018-03-29T14:32:19Z</time>
      </trkpt>
      <trkpt lat="44.40227" lon="1.45769">
        <ele>241.02697230559</ele>
        <time>2018-03-29T14:32:24Z</time>
      </trkpt>
      <trkpt lat="44.40222" lon="1.45762">
        <ele>240.54288552648</ele>
        <time>2018-03-29T14:32:29Z</time>
      </trkpt>
      <trkpt lat="44.40218" lon="1.4576">
        <ele>240.1046763227</ele>
        <time>2018-03-29T14:32:33Z</time>
      </trkpt>
      <trkpt lat="44.40215" lon="1.45755">
        <ele>239.45745681165</ele>
        <time>2018-03-29T14:32:38Z</time>
      </trkpt>
      <trkpt lat="44.40212" lon="1.4575">
        <ele>237.97282402075</ele>
        <time>2018-03-29T14:32:45Z</time>
      </trkpt>
      <trkpt lat="44.40208" lon="1.45747">
        <ele>236.54470755397</ele>
        <time>2018-03-29T14:32:51Z</time>
      </trkpt>
      <trkpt lat="44.40204" lon="1.45744">
        <ele>235.52474026662</ele>
        <time>2018-03-29T14:32:56Z</time>
      </trkpt>
      <trkpt lat="44.40197" lon="1.45741">
        <ele>234.89423412028</ele>
        <time>2018-03-29T14:33:00Z</time>
      </trkpt>
      <trkpt lat="44.40195" lon="1.45734">
        <ele>234.44627509798</ele>
        <time>2018-03-29T14:33:05Z</time>
      </trkpt>
      <trkpt lat="44.40191" lon="1.45731">
        <ele>234.19734573679</ele>
        <time>2018-03-29T14:33:10Z</time>
      </trkpt>
      <trkpt lat="44.40188" lon="1.45727">
        <ele>233.55680011763</ele>
        <time>2018-03-29T14:33:16Z</time>
      </trkpt>
      <trkpt lat="44.40185" lon="1.45724">
        <ele>232.94343404533</ele>
        <time>2018-03-29T14:33:20Z</time>
      </trkpt>
      <trkpt lat="44.4018" lon="1.4572">
        <ele>232.32578088061</ele>
        <time>2018-03-29T14:33:24Z</time>
      </trkpt>
      <trkpt lat="44.40176" lon="1.45715">
        <ele>231.73795173228</ele>
        <time>2018-03-29T14:33:28Z</time>
      </trkpt>
      <trkpt lat="44.40174" lon="1.4571">
        <ele>231.01747378251</ele>
        <time>2018-03-29T14:33:32Z</time>
      </trkpt>
      <trkpt lat="44.40174" lon="1.45704">
        <ele>230.20686627236</ele>
        <time>2018-03-29T14:33:41Z</time>
      </trkpt>
      <trkpt lat="44.40172" lon="1.45699">
        <ele>229.51271533487</ele>
        <time>2018-03-29T14:33:47Z</time>
      </trkpt>
      <trkpt lat="44.40171" lon="1.45694">
        <ele>228.38928588706</ele>
        <time>2018-03-29T14:33:53Z</time>
      </trkpt>
      <trkpt lat="44.40167" lon="1.45687">
        <ele>227.52382936609</ele>
        <time>2018-03-29T14:33:58Z</time>
      </trkpt>
      <trkpt lat="44.40165" lon="1.45684">
        <ele>226.85962503243</ele>
        <time>2018-03-29T14:34:02Z</time>
      </trkpt>
      <trkpt lat="44.40161" lon="1.45678">
        <ele>226.09941164815</ele>
        <time>2018-03-29T14:34:07Z</time>
      </trkpt>
      <trkpt lat="44.40159" lon="1.45673">
        <ele>225.78914666517</ele>
        <time>2018-03-29T14:34:12Z</time>
      </trkpt>
      <trkpt lat="44.40156" lon="1.45667">
        <ele>225.33103101178</ele>
        <time>2018-03-29T14:34:17Z</time>
      </trkpt>
      <trkpt lat="44.40153" lon="1.45663">
        <ele>224.89745270175</ele>
        <time>2018-03-29T14:34:22Z</time>
      </trkpt>
      <trkpt lat="44.4015" lon="1.45658">
        <ele>224.20870776879</ele>
        <time>2018-03-29T14:34:27Z</time>
      </trkpt>
      <trkpt lat="44.40148" lon="1.45652">
        <ele>223.81046271945</ele>
        <time>2018-03-29T14:34:31Z</time>
      </trkpt>
      <trkpt lat="44.40145" lon="1.45645">
        <ele>223.53494966429</ele>
        <time>2018-03-29T14:34:36Z</time>
      </trkpt>
      <trkpt lat="44.40145" lon="1.4564">
        <ele>223.55227896422</ele>
        <time>2018-03-29T14:34:44Z</time>
      </trkpt>
      <trkpt lat="44.40142" lon="1.45634">
        <ele>223.36418908528</ele>
        <time>2018-03-29T14:34:49Z</time>
      </trkpt>
      <trkpt lat="44.40143" lon="1.45628">
        <ele>222.62859788785</ele>
        <time>2018-03-29T14:34:55Z</time>
      </trkpt>
      <trkpt lat="44.4014" lon="1.45623">
        <ele>221.72287963001</ele>
        <time>2018-03-29T14:35:00Z</time>
      </trkpt>
      <trkpt lat="44.40138" lon="1.45616">
        <ele>221.06906484977</ele>
        <time>2018-03-29T14:35:04Z</time>
      </trkpt>
      <trkpt lat="44.40135" lon="1.45612">
        <ele>220.47693072228</ele>
        <time>2018-03-29T14:35:08Z</time>
      </trkpt>
      <trkpt lat="44.40132" lon="1.45609">
        <ele>219.61804504219</ele>
        <time>2018-03-29T14:35:14Z</time>
      </trkpt>
      <trkpt lat="44.4013" lon="1.45604">
        <ele>218.93434555819</ele>
        <time>2018-03-29T14:35:18Z</time>
      </trkpt>
      <trkpt lat="44.40128" lon="1.45599">
        <ele>217.48757519991</ele>
        <time>2018-03-29T14:35:24Z</time>
      </trkpt>
      <trkpt lat="44.40126" lon="1.45593">
        <ele>216.04507460928</ele>
        <time>2018-03-29T14:35:31Z</time>
      </trkpt>
      <trkpt lat="44.40124" lon="1.45588">
        <ele>215.18623400654</ele>
        <time>2018-03-29T14:35:36Z</time>
      </trkpt>
      <trkpt lat="44.40121" lon="1.45582">
        <ele>214.31998295841</ele>
        <time>2018-03-29T14:35:41Z</time>
      </trkpt>
      <trkpt lat="44.4012" lon="1.45576">
        <ele>213.11052888641</ele>
        <time>2018-03-29T14:35:48Z</time>
      </trkpt>
      <trkpt lat="44.40117" lon="1.45573">
        <ele>212.48252685668</ele>
        <time>2018-03-29T14:35:52Z</time>
      </trkpt>
      <trkpt lat="44.40115" lon="1.45566">
        <ele>211.50148160795</ele>
        <time>2018-03-29T14:35:57Z</time>
      </trkpt>
      <trkpt lat="44.40114" lon="1.45561">
        <ele>210.43911667969</ele>
        <time>2018-03-29T14:36:02Z</time>
      </trkpt>
      <trkpt lat="44.40113" lon="1.45554">
        <ele>209.30385499557</ele>
        <time>2018-03-29T14:36:07Z</time>
      </trkpt>
      <trkpt lat="44.40113" lon="1.45548">
        <ele>207.70131099585</ele>
        <time>2018-03-29T14:36:14Z</time>
      </trkpt>
      <trkpt lat="44.40112" lon="1.45543">
        <ele>206.37683965704</ele>
        <time>2018-03-29T14:36:20Z</time>
      </trkpt>
      <trkpt lat="44.4011" lon="1.45537">
        <ele>205.22602809721</ele>
        <time>2018-03-29T14:36:25Z</time>
      </trkpt>
      <trkpt lat="44.40107" lon="1.45528">
        <ele>204.05271195533</ele>
        <time>2018-03-29T14:36:30Z</time>
      </trkpt>
      <trkpt lat="44.40106" lon="1.45523">
        <ele>203.28914053433</ele>
        <time>2018-03-29T14:36:35Z</time>
      </trkpt>
      <trkpt lat="44.40107" lon="1.45516">
        <ele>202.6958011422</ele>
        <time>2018-03-29T14:36:40Z</time>
      </trkpt>
      <trkpt lat="44.40105" lon="1.45511">
        <ele>202.19608792547</ele>
        <time>2018-03-29T14:36:46Z</time>
      </trkpt>
      <trkpt lat="44.401" lon="1.45501">
        <ele>201.99242143773</ele>
        <time>2018-03-29T14:36:51Z</time>
      </trkpt>
      <trkpt lat="44.40098" lon="1.45495">
        <ele>201.84047804121</ele>
        <time>2018-03-29T14:36:56Z</time>
      </trkpt>
      <trkpt lat="44.40096" lon="1.45491">
        <ele>201.81710304255</ele>
        <time>2018-03-29T14:37:03Z</time>
      </trkpt>
      <trkpt lat="44.40093" lon="1.45488">
        <ele>201.37600895493</ele>
        <time>2018-03-29T14:37:08Z</time>
      </trkpt>
      <trkpt lat="44.4009" lon="1.45485">
        <ele>200.94701611383</ele>
        <time>2018-03-29T14:37:13Z</time>
      </trkpt>
      <trkpt lat="44.40086" lon="1.45479">
        <ele>200.48514361929</ele>
        <time>2018-03-29T14:37:18Z</time>
      </trkpt>
      <trkpt lat="44.40084" lon="1.45475">
        <ele>199.12397300353</ele>
        <time>2018-03-29T14:37:25Z</time>
      </trkpt>
      <trkpt lat="44.4008" lon="1.45472">
        <ele>197.9011574801</ele>
        <time>2018-03-29T14:37:30Z</time>
      </trkpt>
      <trkpt lat="44.40077" lon="1.45469">
        <ele>196.91918924927</ele>
        <time>2018-03-29T14:37:35Z</time>
      </trkpt>
      <trkpt lat="44.40072" lon="1.45463">
        <ele>195.60429243808</ele>
        <time>2018-03-29T14:37:40Z</time>
      </trkpt>
      <trkpt lat="44.40069" lon="1.4546">
        <ele>194.17686857138</ele>
        <time>2018-03-29T14:37:47Z</time>
      </trkpt>
      <trkpt lat="44.40066" lon="1.45455">
        <ele>192.77519961846</ele>
        <time>2018-03-29T14:37:54Z</time>
      </trkpt>
      <trkpt lat="44.40061" lon="1.45451">
        <ele>191.86775477948</ele>
        <time>2018-03-29T14:37:59Z</time>
      </trkpt>
      <trkpt lat="44.40059" lon="1.45449">
        <ele>190.88962248859</ele>
        <time>2018-03-29T14:38:05Z</time>
      </trkpt>
      <trkpt lat="44.40055" lon="1.45444">
        <ele>190.40549064221</ele>
        <time>2018-03-29T14:38:10Z</time>
      </trkpt>
      <trkpt lat="44.40053" lon="1.4544">
        <ele>189.74684089196</ele>
        <time>2018-03-29T14:38:16Z</time>
      </trkpt>
      <trkpt lat="44.40041" lon="1.45435">
        <ele>188.73458353019</ele>
        <time>2018-03-29T14:38:21Z</time>
      </trkpt>
      <trkpt lat="44.40036" lon="1.45433">
        <ele>188.0178514523</ele>
        <time>2018-03-29T14:38:26Z</time>
      </trkpt>
      <trkpt lat="44.40034" lon="1.45431">
        <ele>186.91744727701</ele>
        <time>2018-03-29T14:38:36Z</time>
      </trkpt>
      <trkpt lat="44.40027" lon="1.45428">
        <ele>186.47626718901</ele>
        <time>2018-03-29T14:38:40Z</time>
      </trkpt>
      <trkpt lat="44.40023" lon="1.45426">
        <ele>184.64768759743</ele>
        <time>2018-03-29T14:38:54Z</time>
      </trkpt>
      <trkpt lat="44.4002" lon="1.45422">
        <ele>183.49696204666</ele>
        <time>2018-03-29T14:39:04Z</time>
      </trkpt>
      <trkpt lat="44.40015" lon="1.45419">
        <ele>182.73813360623</ele>
        <time>2018-03-29T14:39:09Z</time>
      </trkpt>
      <trkpt lat="44.40011" lon="1.45417">
        <ele>182.39451091672</ele>
        <time>2018-03-29T14:39:13Z</time>
      </trkpt>
      <trkpt lat="44.39998" lon="1.45407">
        <ele>182.0306742306</ele>
        <time>2018-03-29T14:39:17Z</time>
      </trkpt>
      <trkpt lat="44.39994" lon="1.45406">
        <ele>182.16802220838</ele>
        <time>2018-03-29T14:39:22Z</time>
      </trkpt>
      <trkpt lat="44.3999" lon="1.45404">
        <ele>182.62281136244</ele>
        <time>2018-03-29T14:39:29Z</time>
      </trkpt>
      <trkpt lat="44.39983" lon="1.454">
        <ele>182.77396163851</ele>
        <time>2018-03-29T14:39:34Z</time>
      </trkpt>
      <trkpt lat="44.39981" lon="1.45395">
        <ele>182.956232076</ele>
        <time>2018-03-29T14:39:38Z</time>
      </trkpt>
      <trkpt lat="44.39976" lon="1.45391">
        <ele>183.14199796372</ele>
        <time>2018-03-29T14:39:43Z</time>
      </trkpt>
      <trkpt lat="44.39974" lon="1.45386">
        <ele>183.13210224507</ele>
        <time>2018-03-29T14:39:48Z</time>
      </trkpt>
      <trkpt lat="44.39969" lon="1.45381">
        <ele>182.8313941798</ele>
        <time>2018-03-29T14:39:53Z</time>
      </trkpt>
      <trkpt lat="44.39964" lon="1.45381">
        <ele>178.51022494393</ele>
        <time>2018-03-29T14:40:15Z</time>
      </trkpt>
      <trkpt lat="44.39961" lon="1.45384">
        <ele>175.8123618411</ele>
        <time>2018-03-29T14:43:05Z</time>
      </trkpt>
      <trkpt lat="44.3996" lon="1.4539">
        <ele>175.19646870864</ele>
        <time>2018-03-29T14:43:10Z</time>
      </trkpt>
      <trkpt lat="44.3996" lon="1.45395">
        <ele>174.62007618192</ele>
        <time>2018-03-29T14:43:15Z</time>
      </trkpt>
      <trkpt lat="44.39957" lon="1.45401">
        <ele>174.5665685359</ele>
        <time>2018-03-29T14:43:20Z</time>
      </trkpt>
      <trkpt lat="44.39956" lon="1.45406">
        <ele>174.56744610831</ele>
        <time>2018-03-29T14:43:24Z</time>
      </trkpt>
      <trkpt lat="44.39954" lon="1.45413">
        <ele>174.59702512104</ele>
        <time>2018-03-29T14:43:29Z</time>
      </trkpt>
      <trkpt lat="44.39952" lon="1.45418">
        <ele>174.78712766064</ele>
        <time>2018-03-29T14:43:33Z</time>
      </trkpt>
      <trkpt lat="44.39951" lon="1.45425">
        <ele>175.0672376892</ele>
        <time>2018-03-29T14:43:38Z</time>
      </trkpt>
      <trkpt lat="44.39948" lon="1.45429">
        <ele>174.85905029582</ele>
        <time>2018-03-29T14:43:42Z</time>
      </trkpt>
      <trkpt lat="44.39944" lon="1.45433">
        <ele>175.37110374156</ele>
        <time>2018-03-29T14:43:47Z</time>
      </trkpt>
      <trkpt lat="44.39941" lon="1.45437">
        <ele>175.83105615689</ele>
        <time>2018-03-29T14:43:51Z</time>
      </trkpt>
      <trkpt lat="44.39939" lon="1.45442">
        <ele>175.94559086358</ele>
        <time>2018-03-29T14:43:55Z</time>
      </trkpt>
      <trkpt lat="44.39938" lon="1.45447">
        <ele>175.70228164195</ele>
        <time>2018-03-29T14:44:00Z</time>
      </trkpt>
      <trkpt lat="44.39936" lon="1.45455">
        <ele>175.68351094212</ele>
        <time>2018-03-29T14:44:05Z</time>
      </trkpt>
      <trkpt lat="44.39935" lon="1.45461">
        <ele>175.82393571711</ele>
        <time>2018-03-29T14:44:10Z</time>
      </trkpt>
      <trkpt lat="44.39933" lon="1.45468">
        <ele>176.11625842755</ele>
        <time>2018-03-29T14:44:15Z</time>
      </trkpt>
      <trkpt lat="44.39931" lon="1.45473">
        <ele>176.11563715011</ele>
        <time>2018-03-29T14:44:20Z</time>
      </trkpt>
      <trkpt lat="44.39929" lon="1.45479">
        <ele>176.27578582582</ele>
        <time>2018-03-29T14:44:24Z</time>
      </trkpt>
      <trkpt lat="44.39927" lon="1.45486">
        <ele>176.26084146239</ele>
        <time>2018-03-29T14:44:28Z</time>
      </trkpt>
      <trkpt lat="44.39923" lon="1.45493">
        <ele>175.95732970467</ele>
        <time>2018-03-29T14:44:33Z</time>
      </trkpt>
      <trkpt lat="44.39921" lon="1.45499">
        <ele>175.91712992861</ele>
        <time>2018-03-29T14:44:37Z</time>
      </trkpt>
      <trkpt lat="44.39918" lon="1.45504">
        <ele>176.37313979848</ele>
        <time>2018-03-29T14:44:44Z</time>
      </trkpt>
      <trkpt lat="44.39918" lon="1.4551">
        <ele>176.75399846084</ele>
        <time>2018-03-29T14:44:49Z</time>
      </trkpt>
      <trkpt lat="44.39917" lon="1.45516">
        <ele>176.8554749199</ele>
        <time>2018-03-29T14:44:53Z</time>
      </trkpt>
      <trkpt lat="44.39914" lon="1.45523">
        <ele>177.01910037332</ele>
        <time>2018-03-29T14:44:58Z</time>
      </trkpt>
      <trkpt lat="44.39914" lon="1.4553">
        <ele>177.02082384555</ele>
        <time>2018-03-29T14:45:02Z</time>
      </trkpt>
      <trkpt lat="44.39913" lon="1.45536">
        <ele>177.11397787781</ele>
        <time>2018-03-29T14:45:08Z</time>
      </trkpt>
      <trkpt lat="44.39913" lon="1.45541">
        <ele>177.23703847632</ele>
        <time>2018-03-29T14:45:13Z</time>
      </trkpt>
      <trkpt lat="44.39913" lon="1.45547">
        <ele>177.15462253777</ele>
        <time>2018-03-29T14:45:17Z</time>
      </trkpt>
      <trkpt lat="44.39911" lon="1.45554">
        <ele>177.04330155491</ele>
        <time>2018-03-29T14:45:22Z</time>
      </trkpt>
      <trkpt lat="44.39907" lon="1.45563">
        <ele>177.18302716021</ele>
        <time>2018-03-29T14:45:27Z</time>
      </trkpt>
      <trkpt lat="44.39904" lon="1.45571">
        <ele>177.29550637406</ele>
        <time>2018-03-29T14:45:32Z</time>
      </trkpt>
      <trkpt lat="44.39902" lon="1.45576">
        <ele>177.26768141563</ele>
        <time>2018-03-29T14:45:36Z</time>
      </trkpt>
      <trkpt lat="44.39902" lon="1.45582">
        <ele>176.73275100276</ele>
        <time>2018-03-29T14:45:42Z</time>
      </trkpt>
      <trkpt lat="44.39901" lon="1.4559">
        <ele>176.61667071298</ele>
        <time>2018-03-29T14:45:47Z</time>
      </trkpt>
      <trkpt lat="44.39901" lon="1.45596">
        <ele>177.0315018283</ele>
        <time>2018-03-29T14:45:52Z</time>
      </trkpt>
      <trkpt lat="44.39899" lon="1.45601">
        <ele>177.4434614397</ele>
        <time>2018-03-29T14:45:57Z</time>
      </trkpt>
      <trkpt lat="44.39898" lon="1.45607">
        <ele>177.85951350254</ele>
        <time>2018-03-29T14:46:02Z</time>
      </trkpt>
      <trkpt lat="44.39896" lon="1.45612">
        <ele>177.9744874011</ele>
        <time>2018-03-29T14:46:06Z</time>
      </trkpt>
      <trkpt lat="44.39896" lon="1.45618">
        <ele>178.40277082701</ele>
        <time>2018-03-29T14:46:11Z</time>
      </trkpt>
      <trkpt lat="44.39895" lon="1.45626">
        <ele>178.78545842594</ele>
        <time>2018-03-29T14:46:16Z</time>
      </trkpt>
      <trkpt lat="44.39896" lon="1.45634">
        <ele>179.01140297389</ele>
        <time>2018-03-29T14:46:20Z</time>
      </trkpt>
      <trkpt lat="44.39897" lon="1.45645">
        <ele>179.27537515218</ele>
        <time>2018-03-29T14:46:25Z</time>
      </trkpt>
      <trkpt lat="44.39897" lon="1.45653">
        <ele>179.81823134402</ele>
        <time>2018-03-29T14:46:29Z</time>
      </trkpt>
      <trkpt lat="44.39897" lon="1.45658">
        <ele>180.28025915467</ele>
        <time>2018-03-29T14:46:34Z</time>
      </trkpt>
      <trkpt lat="44.39898" lon="1.45666">
        <ele>180.23840579645</ele>
        <time>2018-03-29T14:46:38Z</time>
      </trkpt>
      <trkpt lat="44.39895" lon="1.45671">
        <ele>180.24660398042</ele>
        <time>2018-03-29T14:46:42Z</time>
      </trkpt>
      <trkpt lat="44.39896" lon="1.45678">
        <ele>180.44536201606</ele>
        <time>2018-03-29T14:46:47Z</time>
      </trkpt>
      <trkpt lat="44.39898" lon="1.45687">
        <ele>180.90936355087</ele>
        <time>2018-03-29T14:46:51Z</time>
      </trkpt>
      <trkpt lat="44.39899" lon="1.45693">
        <ele>181.5278499222</ele>
        <time>2018-03-29T14:46:56Z</time>
      </trkpt>
      <trkpt lat="44.39902" lon="1.45703">
        <ele>181.90814217674</ele>
        <time>2018-03-29T14:47:01Z</time>
      </trkpt>
      <trkpt lat="44.39904" lon="1.45708">
        <ele>182.17022755583</ele>
        <time>2018-03-29T14:47:05Z</time>
      </trkpt>
      <trkpt lat="44.39908" lon="1.45714">
        <ele>181.92096305809</ele>
        <time>2018-03-29T14:47:10Z</time>
      </trkpt>
      <trkpt lat="44.39911" lon="1.45718">
        <ele>181.95176270156</ele>
        <time>2018-03-29T14:47:14Z</time>
      </trkpt>
      <trkpt lat="44.39914" lon="1.45722">
        <ele>181.95460606379</ele>
        <time>2018-03-29T14:47:18Z</time>
      </trkpt>
      <trkpt lat="44.39918" lon="1.45727">
        <ele>182.09686048153</ele>
        <time>2018-03-29T14:47:23Z</time>
      </trkpt>
      <trkpt lat="44.39922" lon="1.45733">
        <ele>182.28150670352</ele>
        <time>2018-03-29T14:47:28Z</time>
      </trkpt>
      <trkpt lat="44.39925" lon="1.45739">
        <ele>182.06597683734</ele>
        <time>2018-03-29T14:47:33Z</time>
      </trkpt>
      <trkpt lat="44.3993" lon="1.45741">
        <ele>181.80735034528</ele>
        <time>2018-03-29T14:47:37Z</time>
      </trkpt>
      <trkpt lat="44.39937" lon="1.45748">
        <ele>181.55509134942</ele>
        <time>2018-03-29T14:47:42Z</time>
      </trkpt>
      <trkpt lat="44.39939" lon="1.45753">
        <ele>181.09986515948</ele>
        <time>2018-03-29T14:47:47Z</time>
      </trkpt>
      <trkpt lat="44.39941" lon="1.45758">
        <ele>180.88270343339</ele>
        <time>2018-03-29T14:47:51Z</time>
      </trkpt>
      <trkpt lat="44.39944" lon="1.45764">
        <ele>180.79024743552</ele>
        <time>2018-03-29T14:47:56Z</time>
      </trkpt>
      <trkpt lat="44.39947" lon="1.4577">
        <ele>180.61553267233</ele>
        <time>2018-03-29T14:48:01Z</time>
      </trkpt>
      <trkpt lat="44.3995" lon="1.45777">
        <ele>180.69918516518</ele>
        <time>2018-03-29T14:48:05Z</time>
      </trkpt>
      <trkpt lat="44.39952" lon="1.45781">
        <ele>180.8673214352</ele>
        <time>2018-03-29T14:48:09Z</time>
      </trkpt>
      <trkpt lat="44.39956" lon="1.45787">
        <ele>181.12205216855</ele>
        <time>2018-03-29T14:48:14Z</time>
      </trkpt>
      <trkpt lat="44.3996" lon="1.4579">
        <ele>181.19363453028</ele>
        <time>2018-03-29T14:48:18Z</time>
      </trkpt>
      <trkpt lat="44.39964" lon="1.4579">
        <ele>181.53118079694</ele>
        <time>2018-03-29T14:48:22Z</time>
      </trkpt>
      <trkpt lat="44.3997" lon="1.45792">
        <ele>181.83964059194</ele>
        <time>2018-03-29T14:48:27Z</time>
      </trkpt>
      <trkpt lat="44.39973" lon="1.45796">
        <ele>182.31346645133</ele>
        <time>2018-03-29T14:48:31Z</time>
      </trkpt>
      <trkpt lat="44.39977" lon="1.45797">
        <ele>182.94603315816</ele>
        <time>2018-03-29T14:48:36Z</time>
      </trkpt>
      <trkpt lat="44.39983" lon="1.45801">
        <ele>183.18781558356</ele>
        <time>2018-03-29T14:48:41Z</time>
      </trkpt>
      <trkpt lat="44.39987" lon="1.45806">
        <ele>183.55647715023</ele>
        <time>2018-03-29T14:48:45Z</time>
      </trkpt>
      <trkpt lat="44.3999" lon="1.45811">
        <ele>184.2228915372</ele>
        <time>2018-03-29T14:48:50Z</time>
      </trkpt>
      <trkpt lat="44.39995" lon="1.45814">
        <ele>184.79102598353</ele>
        <time>2018-03-29T14:48:55Z</time>
      </trkpt>
      <trkpt lat="44.4" lon="1.45817">
        <ele>185.08540029979</ele>
        <time>2018-03-29T14:48:59Z</time>
      </trkpt>
      <trkpt lat="44.40004" lon="1.4582">
        <ele>186.35281920721</ele>
        <time>2018-03-29T14:49:06Z</time>
      </trkpt>
      <trkpt lat="44.40008" lon="1.45824">
        <ele>187.49532760976</ele>
        <time>2018-03-29T14:49:11Z</time>
      </trkpt>
      <trkpt lat="44.40011" lon="1.45827">
        <ele>188.00769268988</ele>
        <time>2018-03-29T14:49:16Z</time>
      </trkpt>
      <trkpt lat="44.40015" lon="1.45833">
        <ele>188.37607084092</ele>
        <time>2018-03-29T14:49:20Z</time>
      </trkpt>
      <trkpt lat="44.40025" lon="1.45836">
        <ele>188.73029847179</ele>
        <time>2018-03-29T14:49:25Z</time>
      </trkpt>
      <trkpt lat="44.40028" lon="1.45839">
        <ele>188.78177169662</ele>
        <time>2018-03-29T14:49:31Z</time>
      </trkpt>
      <trkpt lat="44.40035" lon="1.45841">
        <ele>189.08713981337</ele>
        <time>2018-03-29T14:49:36Z</time>
      </trkpt>
      <trkpt lat="44.40039" lon="1.45843">
        <ele>189.28512041095</ele>
        <time>2018-03-29T14:49:42Z</time>
      </trkpt>
      <trkpt lat="44.40042" lon="1.45847">
        <ele>189.62834090475</ele>
        <time>2018-03-29T14:49:46Z</time>
      </trkpt>
      <trkpt lat="44.40044" lon="1.4585">
        <ele>189.8059768117</ele>
        <time>2018-03-29T14:49:50Z</time>
      </trkpt>
      <trkpt lat="44.40049" lon="1.45855">
        <ele>189.99087747838</ele>
        <time>2018-03-29T14:49:54Z</time>
      </trkpt>
      <trkpt lat="44.40053" lon="1.45859">
        <ele>190.4071407935</ele>
        <time>2018-03-29T14:49:59Z</time>
      </trkpt>
      <trkpt lat="44.40056" lon="1.45863">
        <ele>190.59733539881</ele>
        <time>2018-03-29T14:50:04Z</time>
      </trkpt>
      <trkpt lat="44.40059" lon="1.45868">
        <ele>191.16847984753</ele>
        <time>2018-03-29T14:50:09Z</time>
      </trkpt>
      <trkpt lat="44.40062" lon="1.45871">
        <ele>191.45681924925</ele>
        <time>2018-03-29T14:50:20Z</time>
      </trkpt>
      <trkpt lat="44.40071" lon="1.45879">
        <ele>191.58634413451</ele>
        <time>2018-03-29T14:50:24Z</time>
      </trkpt>
      <trkpt lat="44.40074" lon="1.45887">
        <ele>192.05837544066</ele>
        <time>2018-03-29T14:50:28Z</time>
      </trkpt>
      <trkpt lat="44.40079" lon="1.45892">
        <ele>192.47287489125</ele>
        <time>2018-03-29T14:50:33Z</time>
      </trkpt>
      <trkpt lat="44.40084" lon="1.45896">
        <ele>193.06940043067</ele>
        <time>2018-03-29T14:50:37Z</time>
      </trkpt>
      <trkpt lat="44.40086" lon="1.45901">
        <ele>193.67557116453</ele>
        <time>2018-03-29T14:50:43Z</time>
      </trkpt>
      <trkpt lat="44.40088" lon="1.45905">
        <ele>194.05050283306</ele>
        <time>2018-03-29T14:50:48Z</time>
      </trkpt>
      <trkpt lat="44.40091" lon="1.45908">
        <ele>194.63629998772</ele>
        <time>2018-03-29T14:50:52Z</time>
      </trkpt>
      <trkpt lat="44.40095" lon="1.45912">
        <ele>195.19805984895</ele>
        <time>2018-03-29T14:50:56Z</time>
      </trkpt>
      <trkpt lat="44.40098" lon="1.45915">
        <ele>196.19002826229</ele>
        <time>2018-03-29T14:51:02Z</time>
      </trkpt>
      <trkpt lat="44.40105" lon="1.45922">
        <ele>196.75737764826</ele>
        <time>2018-03-29T14:51:07Z</time>
      </trkpt>
      <trkpt lat="44.40109" lon="1.45925">
        <ele>197.15390659349</ele>
        <time>2018-03-29T14:51:11Z</time>
      </trkpt>
      <trkpt lat="44.40112" lon="1.45931">
        <ele>197.54264769932</ele>
        <time>2018-03-29T14:51:16Z</time>
      </trkpt>
      <trkpt lat="44.40116" lon="1.45935">
        <ele>198.22009157794</ele>
        <time>2018-03-29T14:51:21Z</time>
      </trkpt>
      <trkpt lat="44.40119" lon="1.45939">
        <ele>199.11348127557</ele>
        <time>2018-03-29T14:51:26Z</time>
      </trkpt>
      <trkpt lat="44.40123" lon="1.45942">
        <ele>199.59062132318</ele>
        <time>2018-03-29T14:51:30Z</time>
      </trkpt>
      <trkpt lat="44.40126" lon="1.45945">
        <ele>199.89643292072</ele>
        <time>2018-03-29T14:51:36Z</time>
      </trkpt>
      <trkpt lat="44.40131" lon="1.45949">
        <ele>200.16665894286</ele>
        <time>2018-03-29T14:51:41Z</time>
      </trkpt>
      <trkpt lat="44.40135" lon="1.45953">
        <ele>200.47769124093</ele>
        <time>2018-03-29T14:51:46Z</time>
      </trkpt>
      <trkpt lat="44.40138" lon="1.45956">
        <ele>200.66372739008</ele>
        <time>2018-03-29T14:51:50Z</time>
      </trkpt>
      <trkpt lat="44.40145" lon="1.45966">
        <ele>200.7763897718</ele>
        <time>2018-03-29T14:51:54Z</time>
      </trkpt>
      <trkpt lat="44.40148" lon="1.45971">
        <ele>200.52533754027</ele>
        <time>2018-03-29T14:51:59Z</time>
      </trkpt>
      <trkpt lat="44.4015" lon="1.45975">
        <ele>200.47993300651</ele>
        <time>2018-03-29T14:52:04Z</time>
      </trkpt>
      <trkpt lat="44.40153" lon="1.45978">
        <ele>200.56432228336</ele>
        <time>2018-03-29T14:52:08Z</time>
      </trkpt>
      <trkpt lat="44.40156" lon="1.45983">
        <ele>200.88642620149</ele>
        <time>2018-03-29T14:52:12Z</time>
      </trkpt>
      <trkpt lat="44.40157" lon="1.45989">
        <ele>200.88493920756</ele>
        <time>2018-03-29T14:52:17Z</time>
      </trkpt>
      <trkpt lat="44.40159" lon="1.45995">
        <ele>200.94059272596</ele>
        <time>2018-03-29T14:52:21Z</time>
      </trkpt>
      <trkpt lat="44.40161" lon="1.45999">
        <ele>201.22762619521</ele>
        <time>2018-03-29T14:52:28Z</time>
      </trkpt>
      <trkpt lat="44.40163" lon="1.46004">
        <ele>201.99156436036</ele>
        <time>2018-03-29T14:52:34Z</time>
      </trkpt>
      <trkpt lat="44.40165" lon="1.46009">
        <ele>202.32882926688</ele>
        <time>2018-03-29T14:52:39Z</time>
      </trkpt>
      <trkpt lat="44.40166" lon="1.46014">
        <ele>202.56218480497</ele>
        <time>2018-03-29T14:52:43Z</time>
      </trkpt>
      <trkpt lat="44.40167" lon="1.46021">
        <ele>202.63102775752</ele>
        <time>2018-03-29T14:52:47Z</time>
      </trkpt>
      <trkpt lat="44.40169" lon="1.46028">
        <ele>202.69196458141</ele>
        <time>2018-03-29T14:52:52Z</time>
      </trkpt>
      <trkpt lat="44.40169" lon="1.46034">
        <ele>202.8562699915</ele>
        <time>2018-03-29T14:52:58Z</time>
      </trkpt>
      <trkpt lat="44.4017" lon="1.46042">
        <ele>202.92530088354</ele>
        <time>2018-03-29T14:53:03Z</time>
      </trkpt>
      <trkpt lat="44.40171" lon="1.46049">
        <ele>203.04296863182</ele>
        <time>2018-03-29T14:53:07Z</time>
      </trkpt>
      <trkpt lat="44.40172" lon="1.46055">
        <ele>203.50943747554</ele>
        <time>2018-03-29T14:53:12Z</time>
      </trkpt>
      <trkpt lat="44.40173" lon="1.46061">
        <ele>203.9169266226</ele>
        <time>2018-03-29T14:53:17Z</time>
      </trkpt>
      <trkpt lat="44.40176" lon="1.4607">
        <ele>204.63826798457</ele>
        <time>2018-03-29T14:53:22Z</time>
      </trkpt>
      <trkpt lat="44.40178" lon="1.46076">
        <ele>205.07732461349</ele>
        <time>2018-03-29T14:53:27Z</time>
      </trkpt>
      <trkpt lat="44.40179" lon="1.46082">
        <ele>205.71858684281</ele>
        <time>2018-03-29T14:53:31Z</time>
      </trkpt>
      <trkpt lat="44.4018" lon="1.46088">
        <ele>206.50026849847</ele>
        <time>2018-03-29T14:53:36Z</time>
      </trkpt>
      <trkpt lat="44.40182" lon="1.46094">
        <ele>207.219179765</ele>
        <time>2018-03-29T14:53:41Z</time>
      </trkpt>
      <trkpt lat="44.40183" lon="1.461">
        <ele>208.16659787087</ele>
        <time>2018-03-29T14:53:46Z</time>
      </trkpt>
      <trkpt lat="44.40183" lon="1.46104">
        <ele>209.10762128894</ele>
        <time>2018-03-29T14:53:50Z</time>
      </trkpt>
      <trkpt lat="44.40183" lon="1.46115">
        <ele>210.24738701168</ele>
        <time>2018-03-29T14:53:55Z</time>
      </trkpt>
      <trkpt lat="44.40185" lon="1.46119">
        <ele>210.79149613745</ele>
        <time>2018-03-29T14:53:59Z</time>
      </trkpt>
      <trkpt lat="44.40187" lon="1.46126">
        <ele>211.59037970093</ele>
        <time>2018-03-29T14:54:04Z</time>
      </trkpt>
      <trkpt lat="44.40187" lon="1.46133">
        <ele>212.28358092888</ele>
        <time>2018-03-29T14:54:08Z</time>
      </trkpt>
      <trkpt lat="44.40188" lon="1.46139">
        <ele>212.79800225221</ele>
        <time>2018-03-29T14:54:13Z</time>
      </trkpt>
      <trkpt lat="44.40189" lon="1.46146">
        <ele>212.85799984823</ele>
        <time>2018-03-29T14:54:17Z</time>
      </trkpt>
      <trkpt lat="44.40188" lon="1.46152">
        <ele>212.83435629819</ele>
        <time>2018-03-29T14:54:22Z</time>
      </trkpt>
      <trkpt lat="44.40187" lon="1.46159">
        <ele>213.02147157216</ele>
        <time>2018-03-29T14:54:26Z</time>
      </trkpt>
      <trkpt lat="44.40185" lon="1.46163">
        <ele>213.22339954259</ele>
        <time>2018-03-29T14:54:31Z</time>
      </trkpt>
      <trkpt lat="44.40184" lon="1.46173">
        <ele>213.23103440289</ele>
        <time>2018-03-29T14:54:35Z</time>
      </trkpt>
      <trkpt lat="44.40183" lon="1.46179">
        <ele>213.36138174285</ele>
        <time>2018-03-29T14:54:39Z</time>
      </trkpt>
      <trkpt lat="44.40181" lon="1.46183">
        <ele>213.44960413081</ele>
        <time>2018-03-29T14:54:43Z</time>
      </trkpt>
      <trkpt lat="44.4018" lon="1.46189">
        <ele>213.33873793006</ele>
        <time>2018-03-29T14:54:48Z</time>
      </trkpt>
      <trkpt lat="44.40178" lon="1.46193">
        <ele>213.48470270343</ele>
        <time>2018-03-29T14:54:52Z</time>
      </trkpt>
      <trkpt lat="44.40176" lon="1.46199">
        <ele>213.53136353703</ele>
        <time>2018-03-29T14:54:56Z</time>
      </trkpt>
      <trkpt lat="44.40173" lon="1.46205">
        <ele>214.1033863036</ele>
        <time>2018-03-29T14:55:01Z</time>
      </trkpt>
      <trkpt lat="44.40171" lon="1.46209">
        <ele>214.79171074981</ele>
        <time>2018-03-29T14:55:05Z</time>
      </trkpt>
      <trkpt lat="44.40169" lon="1.46213">
        <ele>215.42289648646</ele>
        <time>2018-03-29T14:55:09Z</time>
      </trkpt>
      <trkpt lat="44.40168" lon="1.46218">
        <ele>215.79456836444</ele>
        <time>2018-03-29T14:55:13Z</time>
      </trkpt>
      <trkpt lat="44.40164" lon="1.46225">
        <ele>216.02172924503</ele>
        <time>2018-03-29T14:55:18Z</time>
      </trkpt>
      <trkpt lat="44.40162" lon="1.4623">
        <ele>216.51062928595</ele>
        <time>2018-03-29T14:55:22Z</time>
      </trkpt>
      <trkpt lat="44.40157" lon="1.46236">
        <ele>217.10998010662</ele>
        <time>2018-03-29T14:55:27Z</time>
      </trkpt>
      <trkpt lat="44.40156" lon="1.46243">
        <ele>217.60684359514</ele>
        <time>2018-03-29T14:55:31Z</time>
      </trkpt>
      <trkpt lat="44.40152" lon="1.46251">
        <ele>218.00396554234</ele>
        <time>2018-03-29T14:55:36Z</time>
      </trkpt>
      <trkpt lat="44.4015" lon="1.46254">
        <ele>218.2906797787</ele>
        <time>2018-03-29T14:55:40Z</time>
      </trkpt>
      <trkpt lat="44.40148" lon="1.46262">
        <ele>218.41086453494</ele>
        <time>2018-03-29T14:55:44Z</time>
      </trkpt>
      <trkpt lat="44.40144" lon="1.46269">
        <ele>218.47969797927</ele>
        <time>2018-03-29T14:55:49Z</time>
      </trkpt>
      <trkpt lat="44.40141" lon="1.46272">
        <ele>218.46083266234</ele>
        <time>2018-03-29T14:55:53Z</time>
      </trkpt>
      <trkpt lat="44.40141" lon="1.46278">
        <ele>218.63564344538</ele>
        <time>2018-03-29T14:55:58Z</time>
      </trkpt>
      <trkpt lat="44.40138" lon="1.46279">
        <ele>219.25196578654</ele>
        <time>2018-03-29T14:56:02Z</time>
      </trkpt>
      <trkpt lat="44.40136" lon="1.46285">
        <ele>220.76628408613</ele>
        <time>2018-03-29T14:56:08Z</time>
      </trkpt>
      <trkpt lat="44.40139" lon="1.46288">
        <ele>222.59725039114</ele>
        <time>2018-03-29T14:56:15Z</time>
      </trkpt>
      <trkpt lat="44.40139" lon="1.46293">
        <ele>223.83037970831</ele>
        <time>2018-03-29T14:56:21Z</time>
      </trkpt>
      <trkpt lat="44.40136" lon="1.46305">
        <ele>224.47977009427</ele>
        <time>2018-03-29T14:56:25Z</time>
      </trkpt>
      <trkpt lat="44.40133" lon="1.46311">
        <ele>224.65236036875</ele>
        <time>2018-03-29T14:56:28Z</time>
      </trkpt>
      <trkpt lat="44.40132" lon="1.46318">
        <ele>224.99797484653</ele>
        <time>2018-03-29T14:56:33Z</time>
      </trkpt>
      <trkpt lat="44.40132" lon="1.46324">
        <ele>225.27585989375</ele>
        <time>2018-03-29T14:56:37Z</time>
      </trkpt>
      <trkpt lat="44.40133" lon="1.46329">
        <ele>226.1718332649</ele>
        <time>2018-03-29T14:56:44Z</time>
      </trkpt>
      <trkpt lat="44.40133" lon="1.46334">
        <ele>227.21344182859</ele>
        <time>2018-03-29T14:56:49Z</time>
      </trkpt>
      <trkpt lat="44.4013" lon="1.4634">
        <ele>228.23709819735</ele>
        <time>2018-03-29T14:56:54Z</time>
      </trkpt>
      <trkpt lat="44.40131" lon="1.46349">
        <ele>228.76013650138</ele>
        <time>2018-03-29T14:56:59Z</time>
      </trkpt>
      <trkpt lat="44.40128" lon="1.46353">
        <ele>228.98999117792</ele>
        <time>2018-03-29T14:57:03Z</time>
      </trkpt>
      <trkpt lat="44.40121" lon="1.46365">
        <ele>229.46125087187</ele>
        <time>2018-03-29T14:57:08Z</time>
      </trkpt>
      <trkpt lat="44.40118" lon="1.46372">
        <ele>229.7502308694</ele>
        <time>2018-03-29T14:57:13Z</time>
      </trkpt>
      <trkpt lat="44.40114" lon="1.46372">
        <ele>230.53495765296</ele>
        <time>2018-03-29T14:57:19Z</time>
      </trkpt>
      <trkpt lat="44.40108" lon="1.46371">
        <ele>231.33850773823</ele>
        <time>2018-03-29T14:57:24Z</time>
      </trkpt>
      <trkpt lat="44.40106" lon="1.46365">
        <ele>232.85974056154</ele>
        <time>2018-03-29T14:57:32Z</time>
      </trkpt>
      <trkpt lat="44.40101" lon="1.4636">
        <ele>233.21689346936</ele>
        <time>2018-03-29T14:57:36Z</time>
      </trkpt>
      <trkpt lat="44.40097" lon="1.46357">
        <ele>234.4471134918</ele>
        <time>2018-03-29T14:57:40Z</time>
      </trkpt>
      <trkpt lat="44.40091" lon="1.46357">
        <ele>235.57339886143</ele>
        <time>2018-03-29T14:57:44Z</time>
      </trkpt>
      <trkpt lat="44.40088" lon="1.46357">
        <ele>236.20920411932</ele>
        <time>2018-03-29T14:57:50Z</time>
      </trkpt>
      <trkpt lat="44.40084" lon="1.46359">
        <ele>237.05052691911</ele>
        <time>2018-03-29T14:57:54Z</time>
      </trkpt>
      <trkpt lat="44.4008" lon="1.46362">
        <ele>238.24484617496</ele>
        <time>2018-03-29T14:58:01Z</time>
      </trkpt>
      <trkpt lat="44.40075" lon="1.46363">
        <ele>238.53267883982</ele>
        <time>2018-03-29T14:58:06Z</time>
      </trkpt>
      <trkpt lat="44.4007" lon="1.46365">
        <ele>238.46067138927</ele>
        <time>2018-03-29T14:58:10Z</time>
      </trkpt>
      <trkpt lat="44.40067" lon="1.46368">
        <ele>238.23883426514</ele>
        <time>2018-03-29T14:58:16Z</time>
      </trkpt>
      <trkpt lat="44.40061" lon="1.46371">
        <ele>238.04811896529</ele>
        <time>2018-03-29T14:58:21Z</time>
      </trkpt>
      <trkpt lat="44.40057" lon="1.46373">
        <ele>238.11560797741</ele>
        <time>2018-03-29T14:58:25Z</time>
      </trkpt>
      <trkpt lat="44.40054" lon="1.46375">
        <ele>238.10990208542</ele>
        <time>2018-03-29T14:58:30Z</time>
      </trkpt>
      <trkpt lat="44.4005" lon="1.46377">
        <ele>238.21994047004</ele>
        <time>2018-03-29T14:58:35Z</time>
      </trkpt>
      <trkpt lat="44.40045" lon="1.46381">
        <ele>238.23887026809</ele>
        <time>2018-03-29T14:58:40Z</time>
      </trkpt>
      <trkpt lat="44.40041" lon="1.46381">
        <ele>238.35885811273</ele>
        <time>2018-03-29T14:58:44Z</time>
      </trkpt>
      <trkpt lat="44.40036" lon="1.46383">
        <ele>238.69780041464</ele>
        <time>2018-03-29T14:58:48Z</time>
      </trkpt>
      <trkpt lat="44.40032" lon="1.46385">
        <ele>239.09896841387</ele>
        <time>2018-03-29T14:58:52Z</time>
      </trkpt>
      <trkpt lat="44.40027" lon="1.46388">
        <ele>239.46879951561</ele>
        <time>2018-03-29T14:58:57Z</time>
      </trkpt>
      <trkpt lat="44.40024" lon="1.46388">
        <ele>239.66452449681</ele>
        <time>2018-03-29T14:59:02Z</time>
      </trkpt>
      <trkpt lat="44.4002" lon="1.46389">
        <ele>239.71304571387</ele>
        <time>2018-03-29T14:59:07Z</time>
      </trkpt>
      <trkpt lat="44.40016" lon="1.46391">
        <ele>239.98593239271</ele>
        <time>2018-03-29T14:59:12Z</time>
      </trkpt>
      <trkpt lat="44.40012" lon="1.46395">
        <ele>240.17777824524</ele>
        <time>2018-03-29T14:59:16Z</time>
      </trkpt>
      <trkpt lat="44.40007" lon="1.46398">
        <ele>240.40804398097</ele>
        <time>2018-03-29T14:59:21Z</time>
      </trkpt>
      <trkpt lat="44.40003" lon="1.464">
        <ele>240.59085391351</ele>
        <time>2018-03-29T14:59:25Z</time>
      </trkpt>
      <trkpt lat="44.39998" lon="1.46403">
        <ele>240.91019068877</ele>
        <time>2018-03-29T14:59:29Z</time>
      </trkpt>
      <trkpt lat="44.39993" lon="1.46406">
        <ele>240.99436658468</ele>
        <time>2018-03-29T14:59:33Z</time>
      </trkpt>
      <trkpt lat="44.39989" lon="1.46408">
        <ele>241.34127087955</ele>
        <time>2018-03-29T14:59:39Z</time>
      </trkpt>
      <trkpt lat="44.39985" lon="1.46409">
        <ele>241.90441419644</ele>
        <time>2018-03-29T14:59:44Z</time>
      </trkpt>
      <trkpt lat="44.3998" lon="1.46412">
        <ele>242.5044762143</ele>
        <time>2018-03-29T14:59:49Z</time>
      </trkpt>
      <trkpt lat="44.39976" lon="1.46415">
        <ele>242.73099284326</ele>
        <time>2018-03-29T14:59:53Z</time>
      </trkpt>
      <trkpt lat="44.39971" lon="1.46419">
        <ele>242.91815859512</ele>
        <time>2018-03-29T14:59:58Z</time>
      </trkpt>
      <trkpt lat="44.39968" lon="1.46422">
        <ele>243.06503914877</ele>
        <time>2018-03-29T15:00:04Z</time>
      </trkpt>
      <trkpt lat="44.39965" lon="1.46427">
        <ele>243.34346858397</ele>
        <time>2018-03-29T15:00:09Z</time>
      </trkpt>
      <trkpt lat="44.39962" lon="1.46431">
        <ele>244.19785128199</ele>
        <time>2018-03-29T15:00:13Z</time>
      </trkpt>
      <trkpt lat="44.39958" lon="1.46435">
        <ele>244.72853314814</ele>
        <time>2018-03-29T15:00:20Z</time>
      </trkpt>
      <trkpt lat="44.39955" lon="1.46439">
        <ele>245.27492717473</ele>
        <time>2018-03-29T15:00:26Z</time>
      </trkpt>
      <trkpt lat="44.39951" lon="1.46444">
        <ele>245.90713145035</ele>
        <time>2018-03-29T15:00:31Z</time>
      </trkpt>
      <trkpt lat="44.39948" lon="1.4645">
        <ele>246.08240658786</ele>
        <time>2018-03-29T15:00:35Z</time>
      </trkpt>
      <trkpt lat="44.39945" lon="1.46454">
        <ele>246.44144666798</ele>
        <time>2018-03-29T15:00:40Z</time>
      </trkpt>
      <trkpt lat="44.39943" lon="1.46458">
        <ele>246.55567371072</ele>
        <time>2018-03-29T15:00:44Z</time>
      </trkpt>
      <trkpt lat="44.3994" lon="1.46463">
        <ele>246.8385847169</ele>
        <time>2018-03-29T15:00:48Z</time>
      </trkpt>
      <trkpt lat="44.39937" lon="1.46468">
        <ele>246.91419899151</ele>
        <time>2018-03-29T15:00:53Z</time>
      </trkpt>
      <trkpt lat="44.39934" lon="1.46475">
        <ele>246.65724080719</ele>
        <time>2018-03-29T15:00:58Z</time>
      </trkpt>
      <trkpt lat="44.39933" lon="1.46482">
        <ele>246.54838101362</ele>
        <time>2018-03-29T15:01:02Z</time>
      </trkpt>
      <trkpt lat="44.39932" lon="1.46489">
        <ele>246.81596031142</ele>
        <time>2018-03-29T15:01:07Z</time>
      </trkpt>
      <trkpt lat="44.39931" lon="1.46495">
        <ele>247.36889973864</ele>
        <time>2018-03-29T15:01:13Z</time>
      </trkpt>
      <trkpt lat="44.39931" lon="1.465">
        <ele>248.02568125418</ele>
        <time>2018-03-29T15:01:17Z</time>
      </trkpt>
      <trkpt lat="44.39931" lon="1.46506">
        <ele>248.71570634385</ele>
        <time>2018-03-29T15:01:23Z</time>
      </trkpt>
      <trkpt lat="44.39931" lon="1.46512">
        <ele>249.57753680061</ele>
        <time>2018-03-29T15:01:27Z</time>
      </trkpt>
      <trkpt lat="44.39931" lon="1.4652">
        <ele>250.09224233793</ele>
        <time>2018-03-29T15:01:32Z</time>
      </trkpt>
      <trkpt lat="44.39932" lon="1.46527">
        <ele>250.14308814079</ele>
        <time>2018-03-29T15:01:37Z</time>
      </trkpt>
      <trkpt lat="44.39932" lon="1.46532">
        <ele>249.78813026257</ele>
        <time>2018-03-29T15:01:42Z</time>
      </trkpt>
      <trkpt lat="44.39932" lon="1.46538">
        <ele>249.59879747329</ele>
        <time>2018-03-29T15:01:46Z</time>
      </trkpt>
      <trkpt lat="44.39934" lon="1.46548">
        <ele>249.3398159714</ele>
        <time>2018-03-29T15:01:51Z</time>
      </trkpt>
      <trkpt lat="44.39936" lon="1.46553">
        <ele>249.65092286175</ele>
        <time>2018-03-29T15:01:57Z</time>
      </trkpt>
      <trkpt lat="44.39937" lon="1.4656">
        <ele>250.39972543616</ele>
        <time>2018-03-29T15:02:02Z</time>
      </trkpt>
      <trkpt lat="44.39939" lon="1.46565">
        <ele>251.0502771697</ele>
        <time>2018-03-29T15:02:06Z</time>
      </trkpt>
      <trkpt lat="44.3994" lon="1.4657">
        <ele>251.82475729992</ele>
        <time>2018-03-29T15:02:11Z</time>
      </trkpt>
      <trkpt lat="44.39941" lon="1.46577">
        <ele>252.49345401473</ele>
        <time>2018-03-29T15:02:15Z</time>
      </trkpt>
      <trkpt lat="44.39942" lon="1.46584">
        <ele>252.90182123288</ele>
        <time>2018-03-29T15:02:20Z</time>
      </trkpt>
      <trkpt lat="44.39943" lon="1.4659">
        <ele>253.49795253229</ele>
        <time>2018-03-29T15:02:24Z</time>
      </trkpt>
      <trkpt lat="44.39944" lon="1.46597">
        <ele>253.89076281491</ele>
        <time>2018-03-29T15:02:29Z</time>
      </trkpt>
      <trkpt lat="44.39944" lon="1.46603">
        <ele>254.33078139902</ele>
        <time>2018-03-29T15:02:33Z</time>
      </trkpt>
      <trkpt lat="44.39944" lon="1.46611">
        <ele>254.99197976669</ele>
        <time>2018-03-29T15:02:38Z</time>
      </trkpt>
      <trkpt lat="44.39943" lon="1.46618">
        <ele>255.53495178154</ele>
        <time>2018-03-29T15:02:42Z</time>
      </trkpt>
      <trkpt lat="44.3994" lon="1.46625">
        <ele>255.86367166174</ele>
        <time>2018-03-29T15:02:47Z</time>
      </trkpt>
      <trkpt lat="44.39937" lon="1.46633">
        <ele>256.10625725442</ele>
        <time>2018-03-29T15:02:52Z</time>
      </trkpt>
      <trkpt lat="44.39934" lon="1.46638">
        <ele>256.64421044743</ele>
        <time>2018-03-29T15:02:59Z</time>
      </trkpt>
      <trkpt lat="44.39932" lon="1.46644">
        <ele>257.32011177885</ele>
        <time>2018-03-29T15:03:03Z</time>
      </trkpt>
      <trkpt lat="44.39929" lon="1.4665">
        <ele>257.91479140606</ele>
        <time>2018-03-29T15:03:08Z</time>
      </trkpt>
      <trkpt lat="44.39927" lon="1.46658">
        <ele>258.24494699484</ele>
        <time>2018-03-29T15:03:12Z</time>
      </trkpt>
      <trkpt lat="44.39923" lon="1.46666">
        <ele>258.70151320005</ele>
        <time>2018-03-29T15:03:17Z</time>
      </trkpt>
      <trkpt lat="44.3992" lon="1.4667">
        <ele>258.75379574344</ele>
        <time>2018-03-29T15:03:22Z</time>
      </trkpt>
      <trkpt lat="44.39917" lon="1.46674">
        <ele>258.80850677231</ele>
        <time>2018-03-29T15:03:26Z</time>
      </trkpt>
      <trkpt lat="44.39917" lon="1.4668">
        <ele>261.03676890646</ele>
        <time>2018-03-29T15:03:43Z</time>
      </trkpt>
      <trkpt lat="44.39918" lon="1.46684">
        <ele>261.0819528078</ele>
        <time>2018-03-29T15:04:03Z</time>
      </trkpt>
      <trkpt lat="44.39914" lon="1.46684">
        <ele>263.98268533933</ele>
        <time>2018-03-29T15:10:47Z</time>
      </trkpt>
      <trkpt lat="44.39911" lon="1.46681">
        <ele>263.98204701787</ele>
        <time>2018-03-29T15:10:54Z</time>
      </trkpt>
      <trkpt lat="44.39908" lon="1.46677">
        <ele>264.16322148563</ele>
        <time>2018-03-29T15:11:00Z</time>
      </trkpt>
      <trkpt lat="44.39905" lon="1.46673">
        <ele>264.75359128312</ele>
        <time>2018-03-29T15:11:05Z</time>
      </trkpt>
      <trkpt lat="44.39901" lon="1.46671">
        <ele>264.90830662961</ele>
        <time>2018-03-29T15:11:10Z</time>
      </trkpt>
      <trkpt lat="44.39896" lon="1.46668">
        <ele>264.93642965567</ele>
        <time>2018-03-29T15:11:15Z</time>
      </trkpt>
      <trkpt lat="44.39892" lon="1.46666">
        <ele>264.90955445803</ele>
        <time>2018-03-29T15:11:19Z</time>
      </trkpt>
      <trkpt lat="44.39887" lon="1.46662">
        <ele>265.13566020398</ele>
        <time>2018-03-29T15:11:23Z</time>
      </trkpt>
      <trkpt lat="44.39881" lon="1.46658">
        <ele>265.19794463063</ele>
        <time>2018-03-29T15:11:28Z</time>
      </trkpt>
      <trkpt lat="44.39876" lon="1.46652">
        <ele>265.08791304034</ele>
        <time>2018-03-29T15:11:33Z</time>
      </trkpt>
      <trkpt lat="44.39871" lon="1.4665">
        <ele>264.81165174568</ele>
        <time>2018-03-29T15:11:37Z</time>
      </trkpt>
      <trkpt lat="44.39867" lon="1.46646">
        <ele>264.214834973</ele>
        <time>2018-03-29T15:11:42Z</time>
      </trkpt>
      <trkpt lat="44.39862" lon="1.46641">
        <ele>263.82572813588</ele>
        <time>2018-03-29T15:11:47Z</time>
      </trkpt>
      <trkpt lat="44.39856" lon="1.46639">
        <ele>264.00319783385</ele>
        <time>2018-03-29T15:11:52Z</time>
      </trkpt>
      <trkpt lat="44.39852" lon="1.46638">
        <ele>264.43061040398</ele>
        <time>2018-03-29T15:11:56Z</time>
      </trkpt>
      <trkpt lat="44.39848" lon="1.46635">
        <ele>265.01193155613</ele>
        <time>2018-03-29T15:12:00Z</time>
      </trkpt>
      <trkpt lat="44.39844" lon="1.46631">
        <ele>265.88971837121</ele>
        <time>2018-03-29T15:12:05Z</time>
      </trkpt>
      <trkpt lat="44.39841" lon="1.46627">
        <ele>266.44640424224</ele>
        <time>2018-03-29T15:12:09Z</time>
      </trkpt>
      <trkpt lat="44.39834" lon="1.46622">
        <ele>267.1961775889</ele>
        <time>2018-03-29T15:12:14Z</time>
      </trkpt>
      <trkpt lat="44.39828" lon="1.46618">
        <ele>267.9005960261</ele>
        <time>2018-03-29T15:12:19Z</time>
      </trkpt>
      <trkpt lat="44.39824" lon="1.46615">
        <ele>268.35210448171</ele>
        <time>2018-03-29T15:12:23Z</time>
      </trkpt>
      <trkpt lat="44.3982" lon="1.46612">
        <ele>268.82729173253</ele>
        <time>2018-03-29T15:12:27Z</time>
      </trkpt>
      <trkpt lat="44.39815" lon="1.46606">
        <ele>269.53266550138</ele>
        <time>2018-03-29T15:12:32Z</time>
      </trkpt>
      <trkpt lat="44.3981" lon="1.46602">
        <ele>269.83680514357</ele>
        <time>2018-03-29T15:12:37Z</time>
      </trkpt>
      <trkpt lat="44.39806" lon="1.46599">
        <ele>269.9831644999</ele>
        <time>2018-03-29T15:12:41Z</time>
      </trkpt>
      <trkpt lat="44.39802" lon="1.46595">
        <ele>269.91404728276</ele>
        <time>2018-03-29T15:12:45Z</time>
      </trkpt>
      <trkpt lat="44.39798" lon="1.4659">
        <ele>270.31133901691</ele>
        <time>2018-03-29T15:12:49Z</time>
      </trkpt>
      <trkpt lat="44.39794" lon="1.46588">
        <ele>270.57983253113</ele>
        <time>2018-03-29T15:12:54Z</time>
      </trkpt>
      <trkpt lat="44.3979" lon="1.46581">
        <ele>270.60312289056</ele>
        <time>2018-03-29T15:12:58Z</time>
      </trkpt>
      <trkpt lat="44.39785" lon="1.46579">
        <ele>270.89641612765</ele>
        <time>2018-03-29T15:13:03Z</time>
      </trkpt>
      <trkpt lat="44.3978" lon="1.46573">
        <ele>271.03996638264</ele>
        <time>2018-03-29T15:13:07Z</time>
      </trkpt>
      <trkpt lat="44.39776" lon="1.46568">
        <ele>270.99301604474</ele>
        <time>2018-03-29T15:13:11Z</time>
      </trkpt>
      <trkpt lat="44.39774" lon="1.46564">
        <ele>270.96388687949</ele>
        <time>2018-03-29T15:13:16Z</time>
      </trkpt>
      <trkpt lat="44.39769" lon="1.46561">
        <ele>270.83328587702</ele>
        <time>2018-03-29T15:13:21Z</time>
      </trkpt>
      <trkpt lat="44.39766" lon="1.46557">
        <ele>270.63658828226</ele>
        <time>2018-03-29T15:13:25Z</time>
      </trkpt>
      <trkpt lat="44.39762" lon="1.46553">
        <ele>270.36062354421</ele>
        <time>2018-03-29T15:13:30Z</time>
      </trkpt>
      <trkpt lat="44.39759" lon="1.46549">
        <ele>270.07568742834</ele>
        <time>2018-03-29T15:13:36Z</time>
      </trkpt>
      <trkpt lat="44.39756" lon="1.46544">
        <ele>269.70420081318</ele>
        <time>2018-03-29T15:13:40Z</time>
      </trkpt>
      <trkpt lat="44.39752" lon="1.46541">
        <ele>269.61285188673</ele>
        <time>2018-03-29T15:13:44Z</time>
      </trkpt>
      <trkpt lat="44.39748" lon="1.46537">
        <ele>269.76111306749</ele>
        <time>2018-03-29T15:13:49Z</time>
      </trkpt>
      <trkpt lat="44.39744" lon="1.46533">
        <ele>270.00969264081</ele>
        <time>2018-03-29T15:13:53Z</time>
      </trkpt>
      <trkpt lat="44.3974" lon="1.4653">
        <ele>269.93281358563</ele>
        <time>2018-03-29T15:13:57Z</time>
      </trkpt>
      <trkpt lat="44.39735" lon="1.46528">
        <ele>269.59412250606</ele>
        <time>2018-03-29T15:14:02Z</time>
      </trkpt>
      <trkpt lat="44.39731" lon="1.46523">
        <ele>269.06206806467</ele>
        <time>2018-03-29T15:14:07Z</time>
      </trkpt>
      <trkpt lat="44.39726" lon="1.46519">
        <ele>269.01152752649</ele>
        <time>2018-03-29T15:14:12Z</time>
      </trkpt>
      <trkpt lat="44.39723" lon="1.46515">
        <ele>268.9454818427</ele>
        <time>2018-03-29T15:14:17Z</time>
      </trkpt>
      <trkpt lat="44.3972" lon="1.46512">
        <ele>269.07075275494</ele>
        <time>2018-03-29T15:14:21Z</time>
      </trkpt>
      <trkpt lat="44.39714" lon="1.46508">
        <ele>269.20565855121</ele>
        <time>2018-03-29T15:14:26Z</time>
      </trkpt>
      <trkpt lat="44.3971" lon="1.46506">
        <ele>268.98729396782</ele>
        <time>2018-03-29T15:14:31Z</time>
      </trkpt>
      <trkpt lat="44.39706" lon="1.46504">
        <ele>268.98811150579</ele>
        <time>2018-03-29T15:14:35Z</time>
      </trkpt>
      <trkpt lat="44.39701" lon="1.46502">
        <ele>269.22947445369</ele>
        <time>2018-03-29T15:14:40Z</time>
      </trkpt>
      <trkpt lat="44.39694" lon="1.46501">
        <ele>269.39984838333</ele>
        <time>2018-03-29T15:14:45Z</time>
      </trkpt>
      <trkpt lat="44.39689" lon="1.46499">
        <ele>269.4287806872</ele>
        <time>2018-03-29T15:14:50Z</time>
      </trkpt>
      <trkpt lat="44.39681" lon="1.46499">
        <ele>269.67293276159</ele>
        <time>2018-03-29T15:14:54Z</time>
      </trkpt>
      <trkpt lat="44.39677" lon="1.46499">
        <ele>270.09848058661</ele>
        <time>2018-03-29T15:14:59Z</time>
      </trkpt>
      <trkpt lat="44.39673" lon="1.46498">
        <ele>270.12113155359</ele>
        <time>2018-03-29T15:15:03Z</time>
      </trkpt>
      <trkpt lat="44.39669" lon="1.465">
        <ele>270.18440103857</ele>
        <time>2018-03-29T15:15:08Z</time>
      </trkpt>
      <trkpt lat="44.39668" lon="1.46505">
        <ele>270.9519928423</ele>
        <time>2018-03-29T15:15:23Z</time>
      </trkpt>
      <trkpt lat="44.39668" lon="1.46513">
        <ele>271.05441147515</ele>
        <time>2018-03-29T15:15:28Z</time>
      </trkpt>
      <trkpt lat="44.39669" lon="1.46519">
        <ele>270.94462185526</ele>
        <time>2018-03-29T15:15:32Z</time>
      </trkpt>
      <trkpt lat="44.3967" lon="1.46524">
        <ele>271.13940811332</ele>
        <time>2018-03-29T15:15:36Z</time>
      </trkpt>
      <trkpt lat="44.39671" lon="1.4653">
        <ele>271.07660975048</ele>
        <time>2018-03-29T15:15:40Z</time>
      </trkpt>
      <trkpt lat="44.39671" lon="1.46536">
        <ele>271.3347555369</ele>
        <time>2018-03-29T15:15:45Z</time>
      </trkpt>
      <trkpt lat="44.39672" lon="1.46544">
        <ele>271.89339812998</ele>
        <time>2018-03-29T15:15:50Z</time>
      </trkpt>
      <trkpt lat="44.39672" lon="1.46552">
        <ele>272.27904098158</ele>
        <time>2018-03-29T15:15:54Z</time>
      </trkpt>
      <trkpt lat="44.3967" lon="1.46562">
        <ele>272.3500454965</ele>
        <time>2018-03-29T15:15:59Z</time>
      </trkpt>
      <trkpt lat="44.39671" lon="1.4657">
        <ele>272.01181492718</ele>
        <time>2018-03-29T15:16:04Z</time>
      </trkpt>
      <trkpt lat="44.39672" lon="1.46577">
        <ele>271.90601318331</ele>
        <time>2018-03-29T15:16:08Z</time>
      </trkpt>
      <trkpt lat="44.39673" lon="1.46583">
        <ele>271.73255131901</ele>
        <time>2018-03-29T15:16:12Z</time>
      </trkpt>
      <trkpt lat="44.39672" lon="1.46593">
        <ele>271.84775081142</ele>
        <time>2018-03-29T15:16:17Z</time>
      </trkpt>
      <trkpt lat="44.39672" lon="1.46601">
        <ele>272.18154722328</ele>
        <time>2018-03-29T15:16:22Z</time>
      </trkpt>
      <trkpt lat="44.39671" lon="1.46607">
        <ele>272.34643698547</ele>
        <time>2018-03-29T15:16:26Z</time>
      </trkpt>
      <trkpt lat="44.39672" lon="1.46614">
        <ele>272.56978536762</ele>
        <time>2018-03-29T15:16:31Z</time>
      </trkpt>
      <trkpt lat="44.39672" lon="1.46619">
        <ele>273.00833072075</ele>
        <time>2018-03-29T15:16:36Z</time>
      </trkpt>
      <trkpt lat="44.39672" lon="1.46625">
        <ele>273.35119860922</ele>
        <time>2018-03-29T15:16:40Z</time>
      </trkpt>
      <trkpt lat="44.39672" lon="1.46633">
        <ele>273.62005517485</ele>
        <time>2018-03-29T15:16:45Z</time>
      </trkpt>
      <trkpt lat="44.39672" lon="1.4664">
        <ele>273.91825858972</ele>
        <time>2018-03-29T15:16:49Z</time>
      </trkpt>
      <trkpt lat="44.39674" lon="1.46646">
        <ele>274.2321725402</ele>
        <time>2018-03-29T15:16:53Z</time>
      </trkpt>
      <trkpt lat="44.39673" lon="1.46652">
        <ele>274.30586374132</ele>
        <time>2018-03-29T15:16:57Z</time>
      </trkpt>
      <trkpt lat="44.39672" lon="1.46659">
        <ele>274.30299835403</ele>
        <time>2018-03-29T15:17:02Z</time>
      </trkpt>
      <trkpt lat="44.39672" lon="1.46668">
        <ele>274.27527687353</ele>
        <time>2018-03-29T15:17:06Z</time>
      </trkpt>
      <trkpt lat="44.39673" lon="1.46676">
        <ele>274.60051353414</ele>
        <time>2018-03-29T15:17:11Z</time>
      </trkpt>
      <trkpt lat="44.39674" lon="1.46682">
        <ele>274.74131703438</ele>
        <time>2018-03-29T15:17:15Z</time>
      </trkpt>
      <trkpt lat="44.39676" lon="1.46691">
        <ele>275.06540742492</ele>
        <time>2018-03-29T15:17:20Z</time>
      </trkpt>
      <trkpt lat="44.39676" lon="1.46697">
        <ele>275.37345261869</ele>
        <time>2018-03-29T15:17:24Z</time>
      </trkpt>
      <trkpt lat="44.39676" lon="1.46705">
        <ele>275.5529867986</ele>
        <time>2018-03-29T15:17:29Z</time>
      </trkpt>
      <trkpt lat="44.39676" lon="1.46712">
        <ele>275.42238320231</ele>
        <time>2018-03-29T15:17:33Z</time>
      </trkpt>
      <trkpt lat="44.39676" lon="1.4672">
        <ele>275.27795714909</ele>
        <time>2018-03-29T15:17:38Z</time>
      </trkpt>
      <trkpt lat="44.39675" lon="1.46728">
        <ele>275.07639162402</ele>
        <time>2018-03-29T15:17:42Z</time>
      </trkpt>
      <trkpt lat="44.39675" lon="1.46734">
        <ele>274.97513154709</ele>
        <time>2018-03-29T15:17:46Z</time>
      </trkpt>
      <trkpt lat="44.39674" lon="1.4674">
        <ele>274.90083107606</ele>
        <time>2018-03-29T15:17:50Z</time>
      </trkpt>
      <trkpt lat="44.39674" lon="1.46746">
        <ele>274.80094306598</ele>
        <time>2018-03-29T15:17:54Z</time>
      </trkpt>
      <trkpt lat="44.39673" lon="1.46751">
        <ele>274.47332010329</ele>
        <time>2018-03-29T15:18:01Z</time>
      </trkpt>
      <trkpt lat="44.39672" lon="1.46757">
        <ele>274.81675453566</ele>
        <time>2018-03-29T15:18:06Z</time>
      </trkpt>
      <trkpt lat="44.39672" lon="1.46763">
        <ele>275.64587189612</ele>
        <time>2018-03-29T15:18:13Z</time>
      </trkpt>
      <trkpt lat="44.39673" lon="1.46769">
        <ele>276.12785347609</ele>
        <time>2018-03-29T15:18:17Z</time>
      </trkpt>
      <trkpt lat="44.39672" lon="1.46777">
        <ele>276.63697940405</ele>
        <time>2018-03-29T15:18:22Z</time>
      </trkpt>
      <trkpt lat="44.39669" lon="1.46783">
        <ele>276.61115704728</ele>
        <time>2018-03-29T15:18:26Z</time>
      </trkpt>
      <trkpt lat="44.39668" lon="1.46788">
        <ele>276.83546850987</ele>
        <time>2018-03-29T15:18:30Z</time>
      </trkpt>
      <trkpt lat="44.39667" lon="1.46798">
        <ele>276.51146460765</ele>
        <time>2018-03-29T15:18:35Z</time>
      </trkpt>
      <trkpt lat="44.39667" lon="1.46808">
        <ele>276.39193208242</ele>
        <time>2018-03-29T15:18:39Z</time>
      </trkpt>
      <trkpt lat="44.39666" lon="1.46814">
        <ele>276.20111577834</ele>
        <time>2018-03-29T15:18:43Z</time>
      </trkpt>
      <trkpt lat="44.39667" lon="1.4682">
        <ele>275.98420773877</ele>
        <time>2018-03-29T15:18:48Z</time>
      </trkpt>
      <trkpt lat="44.39666" lon="1.46826">
        <ele>275.81896522035</ele>
        <time>2018-03-29T15:18:52Z</time>
      </trkpt>
      <trkpt lat="44.39665" lon="1.46835">
        <ele>275.91414015382</ele>
        <time>2018-03-29T15:18:57Z</time>
      </trkpt>
      <trkpt lat="44.39665" lon="1.46841">
        <ele>276.03188996312</ele>
        <time>2018-03-29T15:19:01Z</time>
      </trkpt>
      <trkpt lat="44.39663" lon="1.46849">
        <ele>275.93454498496</ele>
        <time>2018-03-29T15:19:06Z</time>
      </trkpt>
      <trkpt lat="44.39662" lon="1.46857">
        <ele>276.06975939109</ele>
        <time>2018-03-29T15:19:11Z</time>
      </trkpt>
      <trkpt lat="44.39662" lon="1.46863">
        <ele>276.12320788014</ele>
        <time>2018-03-29T15:19:15Z</time>
      </trkpt>
      <trkpt lat="44.39661" lon="1.46873">
        <ele>276.01719873564</ele>
        <time>2018-03-29T15:19:20Z</time>
      </trkpt>
      <trkpt lat="44.39658" lon="1.46882">
        <ele>275.67650315039</ele>
        <time>2018-03-29T15:19:24Z</time>
      </trkpt>
      <trkpt lat="44.39658" lon="1.46889">
        <ele>275.07061691718</ele>
        <time>2018-03-29T15:19:29Z</time>
      </trkpt>
      <trkpt lat="44.39657" lon="1.46894">
        <ele>274.84023782287</ele>
        <time>2018-03-29T15:19:33Z</time>
      </trkpt>
      <trkpt lat="44.39655" lon="1.469">
        <ele>274.82808161572</ele>
        <time>2018-03-29T15:19:37Z</time>
      </trkpt>
      <trkpt lat="44.39654" lon="1.46905">
        <ele>275.08333187473</ele>
        <time>2018-03-29T15:19:42Z</time>
      </trkpt>
      <trkpt lat="44.39653" lon="1.46912">
        <ele>275.30002832557</ele>
        <time>2018-03-29T15:19:47Z</time>
      </trkpt>
      <trkpt lat="44.39652" lon="1.46919">
        <ele>275.76742788029</ele>
        <time>2018-03-29T15:19:51Z</time>
      </trkpt>
      <trkpt lat="44.3965" lon="1.46925">
        <ele>276.40909541669</ele>
        <time>2018-03-29T15:19:55Z</time>
      </trkpt>
      <trkpt lat="44.39649" lon="1.46931">
        <ele>276.73207429725</ele>
        <time>2018-03-29T15:20:01Z</time>
      </trkpt>
      <trkpt lat="44.39645" lon="1.46935">
        <ele>277.16046818899</ele>
        <time>2018-03-29T15:20:06Z</time>
      </trkpt>
      <trkpt lat="44.39641" lon="1.46939">
        <ele>277.39808825116</ele>
        <time>2018-03-29T15:20:10Z</time>
      </trkpt>
      <trkpt lat="44.39639" lon="1.46944">
        <ele>277.52351303017</ele>
        <time>2018-03-29T15:20:15Z</time>
      </trkpt>
      <trkpt lat="44.39636" lon="1.46954">
        <ele>277.53499077151</ele>
        <time>2018-03-29T15:20:20Z</time>
      </trkpt>
      <trkpt lat="44.39633" lon="1.4696">
        <ele>277.19180081659</ele>
        <time>2018-03-29T15:20:25Z</time>
      </trkpt>
      <trkpt lat="44.39633" lon="1.4697">
        <ele>276.78887616515</ele>
        <time>2018-03-29T15:20:29Z</time>
      </trkpt>
      <trkpt lat="44.39629" lon="1.46978">
        <ele>276.27564223479</ele>
        <time>2018-03-29T15:20:34Z</time>
      </trkpt>
      <trkpt lat="44.39627" lon="1.46982">
        <ele>275.69894695687</ele>
        <time>2018-03-29T15:20:39Z</time>
      </trkpt>
      <trkpt lat="44.39626" lon="1.46988">
        <ele>275.31424531916</ele>
        <time>2018-03-29T15:20:43Z</time>
      </trkpt>
      <trkpt lat="44.39624" lon="1.46996">
        <ele>275.04685705242</ele>
        <time>2018-03-29T15:20:47Z</time>
      </trkpt>
      <trkpt lat="44.39622" lon="1.47002">
        <ele>274.69617548204</ele>
        <time>2018-03-29T15:20:51Z</time>
      </trkpt>
      <trkpt lat="44.39621" lon="1.47008">
        <ele>274.37102454387</ele>
        <time>2018-03-29T15:20:55Z</time>
      </trkpt>
      <trkpt lat="44.39619" lon="1.47013">
        <ele>273.97502194491</ele>
        <time>2018-03-29T15:21:00Z</time>
      </trkpt>
      <trkpt lat="44.39616" lon="1.47022">
        <ele>273.53337621831</ele>
        <time>2018-03-29T15:21:05Z</time>
      </trkpt>
      <trkpt lat="44.39615" lon="1.47028">
        <ele>273.04432363003</ele>
        <time>2018-03-29T15:21:10Z</time>
      </trkpt>
      <trkpt lat="44.39611" lon="1.47041">
        <ele>272.52725600783</ele>
        <time>2018-03-29T15:21:15Z</time>
      </trkpt>
      <trkpt lat="44.39608" lon="1.47046">
        <ele>271.7963447713</ele>
        <time>2018-03-29T15:21:21Z</time>
      </trkpt>
      <trkpt lat="44.39606" lon="1.47051">
        <ele>271.38682981223</ele>
        <time>2018-03-29T15:21:27Z</time>
      </trkpt>
      <trkpt lat="44.39602" lon="1.47057">
        <ele>270.92619392179</ele>
        <time>2018-03-29T15:21:32Z</time>
      </trkpt>
      <trkpt lat="44.39601" lon="1.47062">
        <ele>270.46432158226</ele>
        <time>2018-03-29T15:21:36Z</time>
      </trkpt>
      <trkpt lat="44.396" lon="1.47069">
        <ele>269.51836393839</ele>
        <time>2018-03-29T15:21:41Z</time>
      </trkpt>
      <trkpt lat="44.39598" lon="1.47076">
        <ele>268.74101510714</ele>
        <time>2018-03-29T15:21:46Z</time>
      </trkpt>
      <trkpt lat="44.39596" lon="1.4708">
        <ele>268.21041354011</ele>
        <time>2018-03-29T15:21:51Z</time>
      </trkpt>
      <trkpt lat="44.39594" lon="1.47088">
        <ele>267.93274047851</ele>
        <time>2018-03-29T15:21:56Z</time>
      </trkpt>
      <trkpt lat="44.39591" lon="1.47094">
        <ele>268.04631618878</ele>
        <time>2018-03-29T15:22:01Z</time>
      </trkpt>
      <trkpt lat="44.3959" lon="1.47098">
        <ele>267.76660120478</ele>
        <time>2018-03-29T15:22:05Z</time>
      </trkpt>
      <trkpt lat="44.39587" lon="1.47106">
        <ele>267.91468226729</ele>
        <time>2018-03-29T15:22:10Z</time>
      </trkpt>
      <trkpt lat="44.39585" lon="1.47111">
        <ele>268.08112610555</ele>
        <time>2018-03-29T15:22:15Z</time>
      </trkpt>
      <trkpt lat="44.39583" lon="1.47116">
        <ele>268.22289723982</ele>
        <time>2018-03-29T15:22:19Z</time>
      </trkpt>
      <trkpt lat="44.3958" lon="1.47122">
        <ele>268.37887059129</ele>
        <time>2018-03-29T15:22:23Z</time>
      </trkpt>
      <trkpt lat="44.39577" lon="1.47127">
        <ele>268.53026410364</ele>
        <time>2018-03-29T15:22:27Z</time>
      </trkpt>
      <trkpt lat="44.39574" lon="1.47131">
        <ele>268.47870906706</ele>
        <time>2018-03-29T15:22:32Z</time>
      </trkpt>
      <trkpt lat="44.3957" lon="1.47135">
        <ele>268.17615185985</ele>
        <time>2018-03-29T15:22:37Z</time>
      </trkpt>
      <trkpt lat="44.39566" lon="1.47139">
        <ele>267.80559682619</ele>
        <time>2018-03-29T15:22:41Z</time>
      </trkpt>
      <trkpt lat="44.3956" lon="1.47144">
        <ele>267.31025984967</ele>
        <time>2018-03-29T15:22:46Z</time>
      </trkpt>
      <trkpt lat="44.39558" lon="1.47151">
        <ele>266.77833904749</ele>
        <time>2018-03-29T15:22:51Z</time>
      </trkpt>
      <trkpt lat="44.39558" lon="1.47157">
        <ele>265.45656644948</ele>
        <time>2018-03-29T15:23:00Z</time>
      </trkpt>
      <trkpt lat="44.39557" lon="1.47163">
        <ele>264.60507871996</ele>
        <time>2018-03-29T15:23:06Z</time>
      </trkpt>
      <trkpt lat="44.39556" lon="1.47169">
        <ele>264.33795923043</ele>
        <time>2018-03-29T15:23:11Z</time>
      </trkpt>
      <trkpt lat="44.39554" lon="1.47173">
        <ele>264.51432646501</ele>
        <time>2018-03-29T15:23:17Z</time>
      </trkpt>
      <trkpt lat="44.39551" lon="1.47177">
        <ele>264.75302316813</ele>
        <time>2018-03-29T15:23:24Z</time>
      </trkpt>
      <trkpt lat="44.39549" lon="1.47183">
        <ele>264.56953002968</ele>
        <time>2018-03-29T15:23:29Z</time>
      </trkpt>
      <trkpt lat="44.39548" lon="1.47189">
        <ele>264.46746157552</ele>
        <time>2018-03-29T15:23:34Z</time>
      </trkpt>
      <trkpt lat="44.39548" lon="1.47195">
        <ele>264.70122456378</ele>
        <time>2018-03-29T15:23:39Z</time>
      </trkpt>
      <trkpt lat="44.39546" lon="1.472">
        <ele>264.9782059375</ele>
        <time>2018-03-29T15:23:44Z</time>
      </trkpt>
      <trkpt lat="44.39546" lon="1.47205">
        <ele>265.31695801895</ele>
        <time>2018-03-29T15:23:49Z</time>
      </trkpt>
      <trkpt lat="44.39544" lon="1.47211">
        <ele>265.4943307028</ele>
        <time>2018-03-29T15:23:54Z</time>
      </trkpt>
      <trkpt lat="44.39539" lon="1.47218">
        <ele>265.6547559769</ele>
        <time>2018-03-29T15:23:58Z</time>
      </trkpt>
      <trkpt lat="44.39534" lon="1.47223">
        <ele>265.39253561139</ele>
        <time>2018-03-29T15:24:03Z</time>
      </trkpt>
      <trkpt lat="44.39532" lon="1.47229">
        <ele>265.3210209296</ele>
        <time>2018-03-29T15:24:08Z</time>
      </trkpt>
      <trkpt lat="44.39532" lon="1.47233">
        <ele>265.64029116466</ele>
        <time>2018-03-29T15:24:13Z</time>
      </trkpt>
      <trkpt lat="44.39529" lon="1.4724">
        <ele>266.01069678366</ele>
        <time>2018-03-29T15:24:17Z</time>
      </trkpt>
      <trkpt lat="44.39526" lon="1.47243">
        <ele>266.44573776572</ele>
        <time>2018-03-29T15:24:24Z</time>
      </trkpt>
      <trkpt lat="44.39523" lon="1.47249">
        <ele>266.59477527464</ele>
        <time>2018-03-29T15:24:29Z</time>
      </trkpt>
      <trkpt lat="44.39522" lon="1.47254">
        <ele>266.44556793044</ele>
        <time>2018-03-29T15:24:35Z</time>
      </trkpt>
      <trkpt lat="44.39518" lon="1.47257">
        <ele>266.45568715336</ele>
        <time>2018-03-29T15:24:39Z</time>
      </trkpt>
      <trkpt lat="44.39515" lon="1.47261">
        <ele>266.17647202792</ele>
        <time>2018-03-29T15:24:48Z</time>
      </trkpt>
      <trkpt lat="44.39512" lon="1.47267">
        <ele>266.2422465852</ele>
        <time>2018-03-29T15:24:53Z</time>
      </trkpt>
      <trkpt lat="44.39507" lon="1.47274">
        <ele>266.55706803211</ele>
        <time>2018-03-29T15:24:57Z</time>
      </trkpt>
      <trkpt lat="44.39507" lon="1.4728">
        <ele>267.23119875562</ele>
        <time>2018-03-29T15:25:04Z</time>
      </trkpt>
      <trkpt lat="44.39504" lon="1.47285">
        <ele>267.51995778355</ele>
        <time>2018-03-29T15:25:09Z</time>
      </trkpt>
      <trkpt lat="44.39502" lon="1.47289">
        <ele>268.16225208333</ele>
        <time>2018-03-29T15:25:15Z</time>
      </trkpt>
      <trkpt lat="44.39502" lon="1.47295">
        <ele>269.12854244386</ele>
        <time>2018-03-29T15:25:21Z</time>
      </trkpt>
      <trkpt lat="44.39502" lon="1.47303">
        <ele>269.54763369327</ele>
        <time>2018-03-29T15:25:26Z</time>
      </trkpt>
      <trkpt lat="44.395" lon="1.47309">
        <ele>269.53725371345</ele>
        <time>2018-03-29T15:25:34Z</time>
      </trkpt>
      <trkpt lat="44.39496" lon="1.4731">
        <ele>269.50288783337</ele>
        <time>2018-03-29T15:25:38Z</time>
      </trkpt>
      <trkpt lat="44.39496" lon="1.47304">
        <ele>269.23549628323</ele>
        <time>2018-03-29T15:25:51Z</time>
      </trkpt>
      <trkpt lat="44.39498" lon="1.47309">
        <ele>269.36285735008</ele>
        <time>2018-03-29T15:25:59Z</time>
      </trkpt>
      <trkpt lat="44.39495" lon="1.47319">
        <ele>269.78099033507</ele>
        <time>2018-03-29T15:26:04Z</time>
      </trkpt>
      <trkpt lat="44.39495" lon="1.47328">
        <ele>270.54697218501</ele>
        <time>2018-03-29T15:26:09Z</time>
      </trkpt>
      <trkpt lat="44.39493" lon="1.47338">
        <ele>271.51862528358</ele>
        <time>2018-03-29T15:26:14Z</time>
      </trkpt>
      <trkpt lat="44.3949" lon="1.47344">
        <ele>272.34253230523</ele>
        <time>2018-03-29T15:26:18Z</time>
      </trkpt>
      <trkpt lat="44.39488" lon="1.47351">
        <ele>272.85034210981</ele>
        <time>2018-03-29T15:26:23Z</time>
      </trkpt>
      <trkpt lat="44.39486" lon="1.47358">
        <ele>273.17468799688</ele>
        <time>2018-03-29T15:26:27Z</time>
      </trkpt>
      <trkpt lat="44.39484" lon="1.47366">
        <ele>273.42064965056</ele>
        <time>2018-03-29T15:26:32Z</time>
      </trkpt>
      <trkpt lat="44.39481" lon="1.47373">
        <ele>273.71571408232</ele>
        <time>2018-03-29T15:26:37Z</time>
      </trkpt>
      <trkpt lat="44.39478" lon="1.47379">
        <ele>274.1435399786</ele>
        <time>2018-03-29T15:26:41Z</time>
      </trkpt>
      <trkpt lat="44.39473" lon="1.47387">
        <ele>274.55278919787</ele>
        <time>2018-03-29T15:26:46Z</time>
      </trkpt>
      <trkpt lat="44.39468" lon="1.47394">
        <ele>274.73902368472</ele>
        <time>2018-03-29T15:26:50Z</time>
      </trkpt>
      <trkpt lat="44.39465" lon="1.474">
        <ele>275.01931371841</ele>
        <time>2018-03-29T15:26:55Z</time>
      </trkpt>
      <trkpt lat="44.39463" lon="1.47405">
        <ele>275.49121186131</ele>
        <time>2018-03-29T15:26:59Z</time>
      </trkpt>
      <trkpt lat="44.39461" lon="1.47411">
        <ele>275.98300034476</ele>
        <time>2018-03-29T15:27:04Z</time>
      </trkpt>
      <trkpt lat="44.39458" lon="1.47419">
        <ele>276.44894198453</ele>
        <time>2018-03-29T15:27:09Z</time>
      </trkpt>
      <trkpt lat="44.39457" lon="1.47425">
        <ele>276.54357053373</ele>
        <time>2018-03-29T15:27:14Z</time>
      </trkpt>
      <trkpt lat="44.39454" lon="1.47432">
        <ele>276.44383926027</ele>
        <time>2018-03-29T15:27:18Z</time>
      </trkpt>
      <trkpt lat="44.39452" lon="1.47439">
        <ele>276.09519577902</ele>
        <time>2018-03-29T15:27:23Z</time>
      </trkpt>
      <trkpt lat="44.39447" lon="1.47447">
        <ele>275.83105256471</ele>
        <time>2018-03-29T15:27:27Z</time>
      </trkpt>
      <trkpt lat="44.39444" lon="1.47451">
        <ele>275.39270826572</ele>
        <time>2018-03-29T15:27:32Z</time>
      </trkpt>
      <trkpt lat="44.39442" lon="1.47458">
        <ele>275.31929345019</ele>
        <time>2018-03-29T15:27:36Z</time>
      </trkpt>
      <trkpt lat="44.3944" lon="1.47466">
        <ele>275.58069233299</ele>
        <time>2018-03-29T15:27:41Z</time>
      </trkpt>
      <trkpt lat="44.39437" lon="1.47471">
        <ele>275.59810199491</ele>
        <time>2018-03-29T15:27:45Z</time>
      </trkpt>
      <trkpt lat="44.39434" lon="1.47477">
        <ele>275.77131553587</ele>
        <time>2018-03-29T15:27:49Z</time>
      </trkpt>
      <trkpt lat="44.39431" lon="1.47482">
        <ele>275.98566442589</ele>
        <time>2018-03-29T15:27:54Z</time>
      </trkpt>
      <trkpt lat="44.39429" lon="1.47487">
        <ele>276.05118518361</ele>
        <time>2018-03-29T15:27:59Z</time>
      </trkpt>
      <trkpt lat="44.3943" lon="1.47494">
        <ele>275.98540795631</ele>
        <time>2018-03-29T15:28:04Z</time>
      </trkpt>
      <trkpt lat="44.39431" lon="1.47501">
        <ele>276.12763731124</ele>
        <time>2018-03-29T15:28:09Z</time>
      </trkpt>
      <trkpt lat="44.39432" lon="1.47507">
        <ele>276.25441767194</ele>
        <time>2018-03-29T15:28:13Z</time>
      </trkpt>
      <trkpt lat="44.39433" lon="1.47512">
        <ele>276.23315094626</ele>
        <time>2018-03-29T15:28:17Z</time>
      </trkpt>
      <trkpt lat="44.39434" lon="1.47519">
        <ele>276.14944854724</ele>
        <time>2018-03-29T15:28:21Z</time>
      </trkpt>
      <trkpt lat="44.39435" lon="1.47526">
        <ele>276.28116095674</ele>
        <time>2018-03-29T15:28:26Z</time>
      </trkpt>
      <trkpt lat="44.39435" lon="1.47533">
        <ele>276.68332209918</ele>
        <time>2018-03-29T15:28:31Z</time>
      </trkpt>
      <trkpt lat="44.39436" lon="1.47539">
        <ele>276.8096706959</ele>
        <time>2018-03-29T15:28:36Z</time>
      </trkpt>
      <trkpt lat="44.39437" lon="1.47547">
        <ele>277.24507086222</ele>
        <time>2018-03-29T15:28:40Z</time>
      </trkpt>
      <trkpt lat="44.39436" lon="1.47555">
        <ele>278.00325658734</ele>
        <time>2018-03-29T15:28:45Z</time>
      </trkpt>
      <trkpt lat="44.39436" lon="1.47562">
        <ele>278.59779115325</ele>
        <time>2018-03-29T15:28:49Z</time>
      </trkpt>
      <trkpt lat="44.39432" lon="1.4757">
        <ele>278.88025809698</ele>
        <time>2018-03-29T15:28:54Z</time>
      </trkpt>
      <trkpt lat="44.3943" lon="1.47575">
        <ele>278.61943783283</ele>
        <time>2018-03-29T15:28:59Z</time>
      </trkpt>
      <trkpt lat="44.39428" lon="1.47582">
        <ele>278.72378356263</ele>
        <time>2018-03-29T15:29:04Z</time>
      </trkpt>
      <trkpt lat="44.39425" lon="1.47587">
        <ele>278.55191936516</ele>
        <time>2018-03-29T15:29:09Z</time>
      </trkpt>
      <trkpt lat="44.39424" lon="1.47593">
        <ele>278.45267046242</ele>
        <time>2018-03-29T15:29:15Z</time>
      </trkpt>
      <trkpt lat="44.39423" lon="1.47598">
        <ele>278.40515022488</ele>
        <time>2018-03-29T15:29:19Z</time>
      </trkpt>
      <trkpt lat="44.39421" lon="1.47603">
        <ele>278.83729049266</ele>
        <time>2018-03-29T15:29:26Z</time>
      </trkpt>
      <trkpt lat="44.3942" lon="1.47608">
        <ele>279.33303561549</ele>
        <time>2018-03-29T15:29:32Z</time>
      </trkpt>
      <trkpt lat="44.39419" lon="1.47617">
        <ele>279.575774819</ele>
        <time>2018-03-29T15:29:36Z</time>
      </trkpt>
      <trkpt lat="44.39416" lon="1.47623">
        <ele>279.81241143543</ele>
        <time>2018-03-29T15:29:41Z</time>
      </trkpt>
      <trkpt lat="44.39416" lon="1.47629">
        <ele>280.35455329976</ele>
        <time>2018-03-29T15:29:45Z</time>
      </trkpt>
      <trkpt lat="44.39415" lon="1.47635">
        <ele>280.71575063067</ele>
        <time>2018-03-29T15:29:49Z</time>
      </trkpt>
      <trkpt lat="44.39414" lon="1.4764">
        <ele>281.00947840389</ele>
        <time>2018-03-29T15:29:57Z</time>
      </trkpt>
      <trkpt lat="44.39413" lon="1.47646">
        <ele>281.47378918079</ele>
        <time>2018-03-29T15:30:02Z</time>
      </trkpt>
      <trkpt lat="44.3941" lon="1.47653">
        <ele>281.79395220061</ele>
        <time>2018-03-29T15:30:06Z</time>
      </trkpt>
      <trkpt lat="44.39408" lon="1.47662">
        <ele>282.11113668812</ele>
        <time>2018-03-29T15:30:11Z</time>
      </trkpt>
      <trkpt lat="44.39406" lon="1.47667">
        <ele>282.75604268872</ele>
        <time>2018-03-29T15:30:16Z</time>
      </trkpt>
      <trkpt lat="44.39403" lon="1.47673">
        <ele>283.1657979058</ele>
        <time>2018-03-29T15:30:20Z</time>
      </trkpt>
      <trkpt lat="44.39401" lon="1.47679">
        <ele>283.76623663016</ele>
        <time>2018-03-29T15:30:24Z</time>
      </trkpt>
      <trkpt lat="44.39398" lon="1.47686">
        <ele>284.13293665856</ele>
        <time>2018-03-29T15:30:29Z</time>
      </trkpt>
      <trkpt lat="44.39396" lon="1.47692">
        <ele>284.46146287262</ele>
        <time>2018-03-29T15:30:33Z</time>
      </trkpt>
      <trkpt lat="44.39395" lon="1.47698">
        <ele>284.7610351783</ele>
        <time>2018-03-29T15:30:38Z</time>
      </trkpt>
      <trkpt lat="44.39393" lon="1.47704">
        <ele>285.19072206245</ele>
        <time>2018-03-29T15:30:50Z</time>
      </trkpt>
      <trkpt lat="44.3939" lon="1.4771">
        <ele>285.60106283024</ele>
        <time>2018-03-29T15:30:54Z</time>
      </trkpt>
      <trkpt lat="44.39387" lon="1.47718">
        <ele>285.96924629252</ele>
        <time>2018-03-29T15:30:58Z</time>
      </trkpt>
      <trkpt lat="44.39385" lon="1.47724">
        <ele>286.46986631562</ele>
        <time>2018-03-29T15:31:03Z</time>
      </trkpt>
      <trkpt lat="44.39383" lon="1.47733">
        <ele>287.1434039718</ele>
        <time>2018-03-29T15:31:08Z</time>
      </trkpt>
      <trkpt lat="44.3938" lon="1.47739">
        <ele>287.66309082875</ele>
        <time>2018-03-29T15:31:12Z</time>
      </trkpt>
      <trkpt lat="44.39378" lon="1.47743">
        <ele>288.17773814293</ele>
        <time>2018-03-29T15:31:16Z</time>
      </trkpt>
      <trkpt lat="44.39374" lon="1.47746">
        <ele>288.62787856927</ele>
        <time>2018-03-29T15:31:20Z</time>
      </trkpt>
      <trkpt lat="44.3937" lon="1.47752">
        <ele>288.8935971316</ele>
        <time>2018-03-29T15:31:24Z</time>
      </trkpt>
      <trkpt lat="44.39367" lon="1.47759">
        <ele>289.04015298204</ele>
        <time>2018-03-29T15:31:29Z</time>
      </trkpt>
      <trkpt lat="44.39362" lon="1.47767">
        <ele>289.03800458146</ele>
        <time>2018-03-29T15:31:34Z</time>
      </trkpt>
      <trkpt lat="44.39358" lon="1.47773">
        <ele>288.81535646642</ele>
        <time>2018-03-29T15:31:39Z</time>
      </trkpt>
      <trkpt lat="44.39356" lon="1.47777">
        <ele>288.49581644353</ele>
        <time>2018-03-29T15:31:43Z</time>
      </trkpt>
      <trkpt lat="44.39353" lon="1.47782">
        <ele>288.37082329342</ele>
        <time>2018-03-29T15:31:47Z</time>
      </trkpt>
      <trkpt lat="44.39348" lon="1.47789">
        <ele>288.41730307833</ele>
        <time>2018-03-29T15:31:51Z</time>
      </trkpt>
      <trkpt lat="44.39346" lon="1.47795">
        <ele>288.76253758987</ele>
        <time>2018-03-29T15:31:56Z</time>
      </trkpt>
      <trkpt lat="44.39342" lon="1.478">
        <ele>288.73162030315</ele>
        <time>2018-03-29T15:32:01Z</time>
      </trkpt>
      <trkpt lat="44.3934" lon="1.47804">
        <ele>288.56228854593</ele>
        <time>2018-03-29T15:32:05Z</time>
      </trkpt>
      <trkpt lat="44.39336" lon="1.47809">
        <ele>288.43447499414</ele>
        <time>2018-03-29T15:32:09Z</time>
      </trkpt>
      <trkpt lat="44.39331" lon="1.47816">
        <ele>288.37869246312</ele>
        <time>2018-03-29T15:32:14Z</time>
      </trkpt>
      <trkpt lat="44.39328" lon="1.4782">
        <ele>288.33945944459</ele>
        <time>2018-03-29T15:32:18Z</time>
      </trkpt>
      <trkpt lat="44.39323" lon="1.47824">
        <ele>288.57164949862</ele>
        <time>2018-03-29T15:32:23Z</time>
      </trkpt>
      <trkpt lat="44.3932" lon="1.4783">
        <ele>288.87997824253</ele>
        <time>2018-03-29T15:32:27Z</time>
      </trkpt>
      <trkpt lat="44.39317" lon="1.47835">
        <ele>288.93606774918</ele>
        <time>2018-03-29T15:32:31Z</time>
      </trkpt>
      <trkpt lat="44.39313" lon="1.47843">
        <ele>288.94410957191</ele>
        <time>2018-03-29T15:32:36Z</time>
      </trkpt>
      <trkpt lat="44.3931" lon="1.47849">
        <ele>288.65462975102</ele>
        <time>2018-03-29T15:32:40Z</time>
      </trkpt>
      <trkpt lat="44.39308" lon="1.47854">
        <ele>288.74633837205</ele>
        <time>2018-03-29T15:32:45Z</time>
      </trkpt>
      <trkpt lat="44.39304" lon="1.47862">
        <ele>288.6763343917</ele>
        <time>2018-03-29T15:32:50Z</time>
      </trkpt>
      <trkpt lat="44.39302" lon="1.47867">
        <ele>288.65096618556</ele>
        <time>2018-03-29T15:32:55Z</time>
      </trkpt>
      <trkpt lat="44.39298" lon="1.47869">
        <ele>289.15373875001</ele>
        <time>2018-03-29T15:33:00Z</time>
      </trkpt>
      <trkpt lat="44.39293" lon="1.47874">
        <ele>289.39409336571</ele>
        <time>2018-03-29T15:33:04Z</time>
      </trkpt>
      <trkpt lat="44.39288" lon="1.4788">
        <ele>289.3992735663</ele>
        <time>2018-03-29T15:33:08Z</time>
      </trkpt>
      <trkpt lat="44.39285" lon="1.47883">
        <ele>289.32331946806</ele>
        <time>2018-03-29T15:33:13Z</time>
      </trkpt>
      <trkpt lat="44.3928" lon="1.47889">
        <ele>289.22330094679</ele>
        <time>2018-03-29T15:33:18Z</time>
      </trkpt>
      <trkpt lat="44.39278" lon="1.47895">
        <ele>288.99619646563</ele>
        <time>2018-03-29T15:33:22Z</time>
      </trkpt>
      <trkpt lat="44.39275" lon="1.479">
        <ele>288.86175299</ele>
        <time>2018-03-29T15:33:26Z</time>
      </trkpt>
      <trkpt lat="44.39271" lon="1.47904">
        <ele>288.69717008304</ele>
        <time>2018-03-29T15:33:30Z</time>
      </trkpt>
      <trkpt lat="44.39268" lon="1.47909">
        <ele>288.63954925545</ele>
        <time>2018-03-29T15:33:34Z</time>
      </trkpt>
      <trkpt lat="44.39265" lon="1.47913">
        <ele>288.56768995528</ele>
        <time>2018-03-29T15:33:39Z</time>
      </trkpt>
      <trkpt lat="44.39262" lon="1.47917">
        <ele>288.57701013628</ele>
        <time>2018-03-29T15:33:43Z</time>
      </trkpt>
      <trkpt lat="44.39257" lon="1.47921">
        <ele>288.58628548553</ele>
        <time>2018-03-29T15:33:47Z</time>
      </trkpt>
      <trkpt lat="44.39254" lon="1.47927">
        <ele>288.34546200218</ele>
        <time>2018-03-29T15:33:52Z</time>
      </trkpt>
      <trkpt lat="44.3925" lon="1.47933">
        <ele>288.18001063084</ele>
        <time>2018-03-29T15:33:56Z</time>
      </trkpt>
      <trkpt lat="44.39245" lon="1.47939">
        <ele>287.88720483586</ele>
        <time>2018-03-29T15:34:01Z</time>
      </trkpt>
      <trkpt lat="44.3924" lon="1.47945">
        <ele>287.66876592623</ele>
        <time>2018-03-29T15:34:06Z</time>
      </trkpt>
      <trkpt lat="44.39238" lon="1.4795">
        <ele>287.62517960269</ele>
        <time>2018-03-29T15:34:11Z</time>
      </trkpt>
      <trkpt lat="44.39234" lon="1.47954">
        <ele>287.71791728931</ele>
        <time>2018-03-29T15:34:16Z</time>
      </trkpt>
      <trkpt lat="44.3923" lon="1.47958">
        <ele>287.70758095105</ele>
        <time>2018-03-29T15:34:21Z</time>
      </trkpt>
      <trkpt lat="44.39226" lon="1.47965">
        <ele>287.81681512287</ele>
        <time>2018-03-29T15:34:26Z</time>
      </trkpt>
      <trkpt lat="44.39223" lon="1.47971">
        <ele>287.75983850599</ele>
        <time>2018-03-29T15:34:30Z</time>
      </trkpt>
      <trkpt lat="44.39217" lon="1.47979">
        <ele>287.55745318089</ele>
        <time>2018-03-29T15:34:35Z</time>
      </trkpt>
      <trkpt lat="44.39213" lon="1.47984">
        <ele>287.4731891354</ele>
        <time>2018-03-29T15:34:39Z</time>
      </trkpt>
      <trkpt lat="44.39208" lon="1.47989">
        <ele>287.1342907652</ele>
        <time>2018-03-29T15:34:43Z</time>
      </trkpt>
      <trkpt lat="44.39204" lon="1.47994">
        <ele>286.75376851041</ele>
        <time>2018-03-29T15:34:48Z</time>
      </trkpt>
      <trkpt lat="44.39199" lon="1.48001">
        <ele>286.35796947632</ele>
        <time>2018-03-29T15:34:53Z</time>
      </trkpt>
      <trkpt lat="44.39197" lon="1.48006">
        <ele>286.07771665201</ele>
        <time>2018-03-29T15:34:58Z</time>
      </trkpt>
      <trkpt lat="44.39193" lon="1.48011">
        <ele>285.88701241517</ele>
        <time>2018-03-29T15:35:03Z</time>
      </trkpt>
      <trkpt lat="44.39188" lon="1.48017">
        <ele>285.92619487589</ele>
        <time>2018-03-29T15:35:07Z</time>
      </trkpt>
      <trkpt lat="44.39186" lon="1.48022">
        <ele>285.8805021986</ele>
        <time>2018-03-29T15:35:11Z</time>
      </trkpt>
      <trkpt lat="44.39183" lon="1.48028">
        <ele>285.82894631759</ele>
        <time>2018-03-29T15:35:15Z</time>
      </trkpt>
      <trkpt lat="44.39181" lon="1.48033">
        <ele>285.43202659777</ele>
        <time>2018-03-29T15:35:20Z</time>
      </trkpt>
      <trkpt lat="44.39179" lon="1.48038">
        <ele>285.09466490859</ele>
        <time>2018-03-29T15:35:24Z</time>
      </trkpt>
      <trkpt lat="44.39174" lon="1.48043">
        <ele>284.97644537261</ele>
        <time>2018-03-29T15:35:28Z</time>
      </trkpt>
      <trkpt lat="44.39171" lon="1.48046">
        <ele>284.96822218892</ele>
        <time>2018-03-29T15:35:32Z</time>
      </trkpt>
      <trkpt lat="44.39167" lon="1.48051">
        <ele>285.09059719996</ele>
        <time>2018-03-29T15:35:37Z</time>
      </trkpt>
      <trkpt lat="44.39164" lon="1.48058">
        <ele>285.28462388856</ele>
        <time>2018-03-29T15:35:42Z</time>
      </trkpt>
      <trkpt lat="44.39161" lon="1.48064">
        <ele>285.52174842401</ele>
        <time>2018-03-29T15:35:47Z</time>
      </trkpt>
      <trkpt lat="44.39157" lon="1.48071">
        <ele>285.5154927658</ele>
        <time>2018-03-29T15:35:52Z</time>
      </trkpt>
      <trkpt lat="44.39154" lon="1.48075">
        <ele>285.62435027486</ele>
        <time>2018-03-29T15:35:56Z</time>
      </trkpt>
      <trkpt lat="44.39151" lon="1.48079">
        <ele>285.90492241326</ele>
        <time>2018-03-29T15:36:00Z</time>
      </trkpt>
      <trkpt lat="44.39147" lon="1.48084">
        <ele>286.2674121576</ele>
        <time>2018-03-29T15:36:04Z</time>
      </trkpt>
      <trkpt lat="44.39144" lon="1.48089">
        <ele>286.47241207609</ele>
        <time>2018-03-29T15:36:08Z</time>
      </trkpt>
      <trkpt lat="44.39142" lon="1.48096">
        <ele>286.26187585139</ele>
        <time>2018-03-29T15:36:13Z</time>
      </trkpt>
      <trkpt lat="44.39138" lon="1.48101">
        <ele>286.2108303395</ele>
        <time>2018-03-29T15:36:17Z</time>
      </trkpt>
      <trkpt lat="44.39133" lon="1.48107">
        <ele>286.00797907437</ele>
        <time>2018-03-29T15:36:21Z</time>
      </trkpt>
      <trkpt lat="44.3913" lon="1.48113">
        <ele>285.65416648257</ele>
        <time>2018-03-29T15:36:26Z</time>
      </trkpt>
      <trkpt lat="44.39128" lon="1.48119">
        <ele>285.36943558057</ele>
        <time>2018-03-29T15:36:30Z</time>
      </trkpt>
      <trkpt lat="44.39125" lon="1.48127">
        <ele>285.26727478279</ele>
        <time>2018-03-29T15:36:35Z</time>
      </trkpt>
      <trkpt lat="44.39123" lon="1.48133">
        <ele>285.08780263932</ele>
        <time>2018-03-29T15:36:39Z</time>
      </trkpt>
      <trkpt lat="44.3912" lon="1.48136">
        <ele>285.01169647669</ele>
        <time>2018-03-29T15:36:43Z</time>
      </trkpt>
      <trkpt lat="44.39116" lon="1.48145">
        <ele>284.70791632706</ele>
        <time>2018-03-29T15:36:48Z</time>
      </trkpt>
      <trkpt lat="44.39113" lon="1.48149">
        <ele>284.54939159663</ele>
        <time>2018-03-29T15:36:52Z</time>
      </trkpt>
      <trkpt lat="44.39111" lon="1.48155">
        <ele>284.67587633319</ele>
        <time>2018-03-29T15:36:56Z</time>
      </trkpt>
      <trkpt lat="44.39108" lon="1.48159">
        <ele>284.54406508071</ele>
        <time>2018-03-29T15:37:00Z</time>
      </trkpt>
      <trkpt lat="44.39107" lon="1.48165">
        <ele>284.40322025831</ele>
        <time>2018-03-29T15:37:04Z</time>
      </trkpt>
      <trkpt lat="44.39108" lon="1.48171">
        <ele>284.45051607848</ele>
        <time>2018-03-29T15:37:08Z</time>
      </trkpt>
      <trkpt lat="44.39106" lon="1.48178">
        <ele>284.37307242044</ele>
        <time>2018-03-29T15:37:12Z</time>
      </trkpt>
      <trkpt lat="44.39104" lon="1.48186">
        <ele>284.10369703686</ele>
        <time>2018-03-29T15:37:17Z</time>
      </trkpt>
      <trkpt lat="44.39103" lon="1.48193">
        <ele>283.80753112653</ele>
        <time>2018-03-29T15:37:21Z</time>
      </trkpt>
      <trkpt lat="44.39102" lon="1.48201">
        <ele>283.39975696009</ele>
        <time>2018-03-29T15:37:26Z</time>
      </trkpt>
      <trkpt lat="44.39102" lon="1.48209">
        <ele>282.84515470342</ele>
        <time>2018-03-29T15:37:31Z</time>
      </trkpt>
      <trkpt lat="44.391" lon="1.48216">
        <ele>282.4565286556</ele>
        <time>2018-03-29T15:37:35Z</time>
      </trkpt>
      <trkpt lat="44.39099" lon="1.48224">
        <ele>281.96761863773</ele>
        <time>2018-03-29T15:37:40Z</time>
      </trkpt>
      <trkpt lat="44.39097" lon="1.4823">
        <ele>281.72991913706</ele>
        <time>2018-03-29T15:37:44Z</time>
      </trkpt>
      <trkpt lat="44.39096" lon="1.48236">
        <ele>281.46036067331</ele>
        <time>2018-03-29T15:37:50Z</time>
      </trkpt>
      <trkpt lat="44.39096" lon="1.48243">
        <ele>281.49428326716</ele>
        <time>2018-03-29T15:37:55Z</time>
      </trkpt>
      <trkpt lat="44.39098" lon="1.48252">
        <ele>281.74112265079</ele>
        <time>2018-03-29T15:38:00Z</time>
      </trkpt>
      <trkpt lat="44.39096" lon="1.48262">
        <ele>281.99306167596</ele>
        <time>2018-03-29T15:38:05Z</time>
      </trkpt>
      <trkpt lat="44.39097" lon="1.48269">
        <ele>282.30213324094</ele>
        <time>2018-03-29T15:38:09Z</time>
      </trkpt>
      <trkpt lat="44.39098" lon="1.48275">
        <ele>282.87221617497</ele>
        <time>2018-03-29T15:38:16Z</time>
      </trkpt>
      <trkpt lat="44.39099" lon="1.48281">
        <ele>283.2823601408</ele>
        <time>2018-03-29T15:38:21Z</time>
      </trkpt>
      <trkpt lat="44.391" lon="1.48288">
        <ele>283.36205649378</ele>
        <time>2018-03-29T15:38:26Z</time>
      </trkpt>
      <trkpt lat="44.39101" lon="1.48294">
        <ele>283.20017882969</ele>
        <time>2018-03-29T15:38:31Z</time>
      </trkpt>
      <trkpt lat="44.39102" lon="1.48301">
        <ele>283.10038081517</ele>
        <time>2018-03-29T15:38:36Z</time>
      </trkpt>
      <trkpt lat="44.39105" lon="1.48309">
        <ele>282.70857642473</ele>
        <time>2018-03-29T15:38:41Z</time>
      </trkpt>
      <trkpt lat="44.39108" lon="1.48313">
        <ele>282.22761263244</ele>
        <time>2018-03-29T15:38:46Z</time>
      </trkpt>
      <trkpt lat="44.39112" lon="1.4832">
        <ele>281.9316515655</ele>
        <time>2018-03-29T15:38:51Z</time>
      </trkpt>
      <trkpt lat="44.39115" lon="1.48326">
        <ele>281.39385810398</ele>
        <time>2018-03-29T15:38:56Z</time>
      </trkpt>
      <trkpt lat="44.39116" lon="1.4833">
        <ele>281.08301125493</ele>
        <time>2018-03-29T15:39:00Z</time>
      </trkpt>
      <trkpt lat="44.39119" lon="1.48334">
        <ele>281.22031565379</ele>
        <time>2018-03-29T15:39:04Z</time>
      </trkpt>
      <trkpt lat="44.39122" lon="1.48338">
        <ele>281.60933888799</ele>
        <time>2018-03-29T15:39:09Z</time>
      </trkpt>
      <trkpt lat="44.39126" lon="1.48349">
        <ele>281.49735224768</ele>
        <time>2018-03-29T15:39:13Z</time>
      </trkpt>
      <trkpt lat="44.39129" lon="1.48359">
        <ele>281.36220626831</ele>
        <time>2018-03-29T15:39:18Z</time>
      </trkpt>
      <trkpt lat="44.3913" lon="1.48364">
        <ele>281.1631903715</ele>
        <time>2018-03-29T15:39:22Z</time>
      </trkpt>
      <trkpt lat="44.39132" lon="1.4837">
        <ele>281.23138862338</ele>
        <time>2018-03-29T15:39:26Z</time>
      </trkpt>
      <trkpt lat="44.39134" lon="1.48374">
        <ele>281.03964417779</ele>
        <time>2018-03-29T15:39:30Z</time>
      </trkpt>
      <trkpt lat="44.39135" lon="1.48379">
        <ele>279.87086675979</ele>
        <time>2018-03-29T15:40:04Z</time>
      </trkpt>
      <trkpt lat="44.39135" lon="1.48379">
        <ele>279.87086675979</ele>
        <time>2018-03-29T15:40:04Z</time>
      </trkpt>
    </trkseg>
  </trk>
</gpx>